<?xml version="1.0" encoding="UTF-8" standalone="no" ?>
<gpx xmlns="http://www.topografix.com/GPX/1/1" xmlns:xsi="http://www.w3.org/2001/XMLSchema-instance" xsi:schemaLocation="http://www.topografix.com/GPX/1/1 http://www.topografix.com/GPX/1/1/gpx.xsd" version="1.1" creator="VisuGPX - https://www.visugpx.com">
  <metadata>
    <name>Lourmarin-La tour Philippe - variante B</name>
    <desc><![CDATA[Lourmarin-La tour Philippe - variante B]]></desc>
  </metadata>
  <trk>
    <name><![CDATA[Lourmarin Marche 25 mars 2019 à 08:50]]></name>
    <trkseg>
      <trkpt lat="43.76949" lon="5.34678">
        <ele>221</ele>
        <time>2019-03-25T07:50:17Z</time>
      </trkpt>
      <trkpt lat="43.76949" lon="5.34678">
        <ele>221</ele>
        <time>2019-03-25T07:50:48Z</time>
      </trkpt>
      <trkpt lat="43.76956" lon="5.34669">
        <ele>222</ele>
        <time>2019-03-25T07:50:58Z</time>
      </trkpt>
      <trkpt lat="43.76964" lon="5.34663">
        <ele>221</ele>
        <time>2019-03-25T07:51:10Z</time>
      </trkpt>
      <trkpt lat="43.7697" lon="5.34653">
        <ele>223</ele>
        <time>2019-03-25T07:51:21Z</time>
      </trkpt>
      <trkpt lat="43.76976" lon="5.34644">
        <ele>225</ele>
        <time>2019-03-25T07:51:34Z</time>
      </trkpt>
      <trkpt lat="43.76983" lon="5.34634">
        <ele>226</ele>
        <time>2019-03-25T07:51:46Z</time>
      </trkpt>
      <trkpt lat="43.7699" lon="5.34626">
        <ele>229</ele>
        <time>2019-03-25T07:52:10Z</time>
      </trkpt>
      <trkpt lat="43.76998" lon="5.3462">
        <ele>233</ele>
        <time>2019-03-25T07:52:22Z</time>
      </trkpt>
      <trkpt lat="43.77006" lon="5.34628">
        <ele>232</ele>
        <time>2019-03-25T07:52:32Z</time>
      </trkpt>
      <trkpt lat="43.77013" lon="5.34637">
        <ele>232</ele>
        <time>2019-03-25T07:52:43Z</time>
      </trkpt>
      <trkpt lat="43.77021" lon="5.34645">
        <ele>234</ele>
        <time>2019-03-25T07:52:58Z</time>
      </trkpt>
      <trkpt lat="43.77029" lon="5.3464">
        <ele>236</ele>
        <time>2019-03-25T07:53:07Z</time>
      </trkpt>
      <trkpt lat="43.77037" lon="5.34647">
        <ele>238</ele>
        <time>2019-03-25T07:53:22Z</time>
      </trkpt>
      <trkpt lat="43.77046" lon="5.34642">
        <ele>240</ele>
        <time>2019-03-25T07:53:34Z</time>
      </trkpt>
      <trkpt lat="43.77049" lon="5.34629">
        <ele>242</ele>
        <time>2019-03-25T07:53:50Z</time>
      </trkpt>
      <trkpt lat="43.77054" lon="5.34619">
        <ele>245</ele>
        <time>2019-03-25T07:54:04Z</time>
      </trkpt>
      <trkpt lat="43.77061" lon="5.3461">
        <ele>245</ele>
        <time>2019-03-25T07:54:16Z</time>
      </trkpt>
      <trkpt lat="43.77067" lon="5.34601">
        <ele>247</ele>
        <time>2019-03-25T07:54:32Z</time>
      </trkpt>
      <trkpt lat="43.77074" lon="5.34591">
        <ele>249</ele>
        <time>2019-03-25T07:54:45Z</time>
      </trkpt>
      <trkpt lat="43.77072" lon="5.34578">
        <ele>252</ele>
        <time>2019-03-25T07:54:57Z</time>
      </trkpt>
      <trkpt lat="43.77082" lon="5.34575">
        <ele>252</ele>
        <time>2019-03-25T07:55:09Z</time>
      </trkpt>
      <trkpt lat="43.77092" lon="5.3457">
        <ele>252</ele>
        <time>2019-03-25T07:55:19Z</time>
      </trkpt>
      <trkpt lat="43.77101" lon="5.34567">
        <ele>254</ele>
        <time>2019-03-25T07:55:27Z</time>
      </trkpt>
      <trkpt lat="43.7711" lon="5.34567">
        <ele>254</ele>
        <time>2019-03-25T07:55:36Z</time>
      </trkpt>
      <trkpt lat="43.77121" lon="5.34567">
        <ele>254</ele>
        <time>2019-03-25T07:55:44Z</time>
      </trkpt>
      <trkpt lat="43.7713" lon="5.34566">
        <ele>254</ele>
        <time>2019-03-25T07:55:52Z</time>
      </trkpt>
      <trkpt lat="43.77139" lon="5.34564">
        <ele>257</ele>
        <time>2019-03-25T07:56:01Z</time>
      </trkpt>
      <trkpt lat="43.77148" lon="5.34561">
        <ele>258</ele>
        <time>2019-03-25T07:56:09Z</time>
      </trkpt>
      <trkpt lat="43.77157" lon="5.34554">
        <ele>259</ele>
        <time>2019-03-25T07:56:22Z</time>
      </trkpt>
      <trkpt lat="43.77167" lon="5.34557">
        <ele>261</ele>
        <time>2019-03-25T07:56:37Z</time>
      </trkpt>
      <trkpt lat="43.77166" lon="5.3457">
        <ele>263</ele>
        <time>2019-03-25T07:57:07Z</time>
      </trkpt>
      <trkpt lat="43.77163" lon="5.34582">
        <ele>264</ele>
        <time>2019-03-25T07:57:15Z</time>
      </trkpt>
      <trkpt lat="43.7716" lon="5.34594">
        <ele>264</ele>
        <time>2019-03-25T07:57:24Z</time>
      </trkpt>
      <trkpt lat="43.77161" lon="5.34607">
        <ele>265</ele>
        <time>2019-03-25T07:57:33Z</time>
      </trkpt>
      <trkpt lat="43.77161" lon="5.34621">
        <ele>265</ele>
        <time>2019-03-25T07:57:42Z</time>
      </trkpt>
      <trkpt lat="43.77161" lon="5.34635">
        <ele>266</ele>
        <time>2019-03-25T07:57:50Z</time>
      </trkpt>
      <trkpt lat="43.77162" lon="5.34648">
        <ele>266</ele>
        <time>2019-03-25T07:57:58Z</time>
      </trkpt>
      <trkpt lat="43.77163" lon="5.34662">
        <ele>266</ele>
        <time>2019-03-25T07:58:07Z</time>
      </trkpt>
      <trkpt lat="43.77167" lon="5.34674">
        <ele>267</ele>
        <time>2019-03-25T07:58:21Z</time>
      </trkpt>
      <trkpt lat="43.77173" lon="5.34682">
        <ele>268</ele>
        <time>2019-03-25T07:58:33Z</time>
      </trkpt>
      <trkpt lat="43.77183" lon="5.34683">
        <ele>269</ele>
        <time>2019-03-25T07:58:45Z</time>
      </trkpt>
      <trkpt lat="43.77192" lon="5.34685">
        <ele>271</ele>
        <time>2019-03-25T07:58:55Z</time>
      </trkpt>
      <trkpt lat="43.77201" lon="5.34684">
        <ele>274</ele>
        <time>2019-03-25T07:59:07Z</time>
      </trkpt>
      <trkpt lat="43.7721" lon="5.3469">
        <ele>275</ele>
        <time>2019-03-25T07:59:17Z</time>
      </trkpt>
      <trkpt lat="43.77214" lon="5.34702">
        <ele>275</ele>
        <time>2019-03-25T07:59:25Z</time>
      </trkpt>
      <trkpt lat="43.77214" lon="5.34715">
        <ele>276</ele>
        <time>2019-03-25T07:59:34Z</time>
      </trkpt>
      <trkpt lat="43.77213" lon="5.34728">
        <ele>277</ele>
        <time>2019-03-25T07:59:44Z</time>
      </trkpt>
      <trkpt lat="43.77211" lon="5.34741">
        <ele>277</ele>
        <time>2019-03-25T07:59:54Z</time>
      </trkpt>
      <trkpt lat="43.77211" lon="5.34753">
        <ele>278</ele>
        <time>2019-03-25T08:00:04Z</time>
      </trkpt>
      <trkpt lat="43.77209" lon="5.34766">
        <ele>279</ele>
        <time>2019-03-25T08:00:16Z</time>
      </trkpt>
      <trkpt lat="43.77214" lon="5.34777">
        <ele>280</ele>
        <time>2019-03-25T08:00:27Z</time>
      </trkpt>
      <trkpt lat="43.77215" lon="5.3479">
        <ele>280</ele>
        <time>2019-03-25T08:00:40Z</time>
      </trkpt>
      <trkpt lat="43.77218" lon="5.34802">
        <ele>281</ele>
        <time>2019-03-25T08:00:52Z</time>
      </trkpt>
      <trkpt lat="43.77226" lon="5.34808">
        <ele>283</ele>
        <time>2019-03-25T08:01:04Z</time>
      </trkpt>
      <trkpt lat="43.77236" lon="5.34812">
        <ele>285</ele>
        <time>2019-03-25T08:01:18Z</time>
      </trkpt>
      <trkpt lat="43.77245" lon="5.34814">
        <ele>287</ele>
        <time>2019-03-25T08:01:30Z</time>
      </trkpt>
      <trkpt lat="43.77254" lon="5.34818">
        <ele>289</ele>
        <time>2019-03-25T08:01:42Z</time>
      </trkpt>
      <trkpt lat="43.77263" lon="5.34818">
        <ele>291</ele>
        <time>2019-03-25T08:01:58Z</time>
      </trkpt>
      <trkpt lat="43.77273" lon="5.34817">
        <ele>293</ele>
        <time>2019-03-25T08:02:08Z</time>
      </trkpt>
      <trkpt lat="43.77282" lon="5.34819">
        <ele>294</ele>
        <time>2019-03-25T08:02:18Z</time>
      </trkpt>
      <trkpt lat="43.77292" lon="5.34821">
        <ele>295</ele>
        <time>2019-03-25T08:02:27Z</time>
      </trkpt>
      <trkpt lat="43.77301" lon="5.34826">
        <ele>296</ele>
        <time>2019-03-25T08:02:37Z</time>
      </trkpt>
      <trkpt lat="43.77309" lon="5.34833">
        <ele>297</ele>
        <time>2019-03-25T08:02:47Z</time>
      </trkpt>
      <trkpt lat="43.77317" lon="5.34842">
        <ele>297</ele>
        <time>2019-03-25T08:02:58Z</time>
      </trkpt>
      <trkpt lat="43.77324" lon="5.3485">
        <ele>298</ele>
        <time>2019-03-25T08:03:09Z</time>
      </trkpt>
      <trkpt lat="43.77332" lon="5.34857">
        <ele>298</ele>
        <time>2019-03-25T08:03:21Z</time>
      </trkpt>
      <trkpt lat="43.7734" lon="5.34853">
        <ele>298</ele>
        <time>2019-03-25T08:03:29Z</time>
      </trkpt>
      <trkpt lat="43.77348" lon="5.34845">
        <ele>299</ele>
        <time>2019-03-25T08:03:37Z</time>
      </trkpt>
      <trkpt lat="43.77354" lon="5.34836">
        <ele>299</ele>
        <time>2019-03-25T08:03:49Z</time>
      </trkpt>
      <trkpt lat="43.77359" lon="5.34824">
        <ele>301</ele>
        <time>2019-03-25T08:04:00Z</time>
      </trkpt>
      <trkpt lat="43.77364" lon="5.34815">
        <ele>302</ele>
        <time>2019-03-25T08:04:10Z</time>
      </trkpt>
      <trkpt lat="43.77373" lon="5.34808">
        <ele>302</ele>
        <time>2019-03-25T08:04:20Z</time>
      </trkpt>
      <trkpt lat="43.77381" lon="5.34801">
        <ele>302</ele>
        <time>2019-03-25T08:04:30Z</time>
      </trkpt>
      <trkpt lat="43.77387" lon="5.34792">
        <ele>303</ele>
        <time>2019-03-25T08:04:38Z</time>
      </trkpt>
      <trkpt lat="43.77394" lon="5.34782">
        <ele>304</ele>
        <time>2019-03-25T08:04:46Z</time>
      </trkpt>
      <trkpt lat="43.774" lon="5.34772">
        <ele>304</ele>
        <time>2019-03-25T08:04:56Z</time>
      </trkpt>
      <trkpt lat="43.77407" lon="5.34763">
        <ele>306</ele>
        <time>2019-03-25T08:05:05Z</time>
      </trkpt>
      <trkpt lat="43.77416" lon="5.34759">
        <ele>305</ele>
        <time>2019-03-25T08:05:13Z</time>
      </trkpt>
      <trkpt lat="43.77425" lon="5.34755">
        <ele>305</ele>
        <time>2019-03-25T08:05:22Z</time>
      </trkpt>
      <trkpt lat="43.7743" lon="5.34743">
        <ele>305</ele>
        <time>2019-03-25T08:05:33Z</time>
      </trkpt>
      <trkpt lat="43.77433" lon="5.34731">
        <ele>307</ele>
        <time>2019-03-25T08:05:44Z</time>
      </trkpt>
      <trkpt lat="43.77433" lon="5.34718">
        <ele>308</ele>
        <time>2019-03-25T08:05:57Z</time>
      </trkpt>
      <trkpt lat="43.7743" lon="5.34706">
        <ele>310</ele>
        <time>2019-03-25T08:06:09Z</time>
      </trkpt>
      <trkpt lat="43.77431" lon="5.34692">
        <ele>310</ele>
        <time>2019-03-25T08:06:19Z</time>
      </trkpt>
      <trkpt lat="43.77437" lon="5.34681">
        <ele>311</ele>
        <time>2019-03-25T08:06:29Z</time>
      </trkpt>
      <trkpt lat="43.77438" lon="5.34669">
        <ele>313</ele>
        <time>2019-03-25T08:06:37Z</time>
      </trkpt>
      <trkpt lat="43.77437" lon="5.34655">
        <ele>314</ele>
        <time>2019-03-25T08:06:48Z</time>
      </trkpt>
      <trkpt lat="43.77443" lon="5.34645">
        <ele>316</ele>
        <time>2019-03-25T08:07:00Z</time>
      </trkpt>
      <trkpt lat="43.77445" lon="5.34632">
        <ele>316</ele>
        <time>2019-03-25T08:07:10Z</time>
      </trkpt>
      <trkpt lat="43.77451" lon="5.34622">
        <ele>317</ele>
        <time>2019-03-25T08:07:22Z</time>
      </trkpt>
      <trkpt lat="43.77459" lon="5.34616">
        <ele>318</ele>
        <time>2019-03-25T08:07:33Z</time>
      </trkpt>
      <trkpt lat="43.77465" lon="5.34606">
        <ele>319</ele>
        <time>2019-03-25T08:07:44Z</time>
      </trkpt>
      <trkpt lat="43.77469" lon="5.34594">
        <ele>318</ele>
        <time>2019-03-25T08:07:56Z</time>
      </trkpt>
      <trkpt lat="43.77474" lon="5.34583">
        <ele>318</ele>
        <time>2019-03-25T08:08:05Z</time>
      </trkpt>
      <trkpt lat="43.77476" lon="5.34571">
        <ele>319</ele>
        <time>2019-03-25T08:08:14Z</time>
      </trkpt>
      <trkpt lat="43.77477" lon="5.34558">
        <ele>319</ele>
        <time>2019-03-25T08:08:25Z</time>
      </trkpt>
      <trkpt lat="43.7748" lon="5.34545">
        <ele>321</ele>
        <time>2019-03-25T08:08:38Z</time>
      </trkpt>
      <trkpt lat="43.77481" lon="5.34532">
        <ele>322</ele>
        <time>2019-03-25T08:08:46Z</time>
      </trkpt>
      <trkpt lat="43.77486" lon="5.3452">
        <ele>323</ele>
        <time>2019-03-25T08:08:58Z</time>
      </trkpt>
      <trkpt lat="43.77487" lon="5.34507">
        <ele>324</ele>
        <time>2019-03-25T08:09:07Z</time>
      </trkpt>
      <trkpt lat="43.77487" lon="5.34495">
        <ele>325</ele>
        <time>2019-03-25T08:09:15Z</time>
      </trkpt>
      <trkpt lat="43.77487" lon="5.34482">
        <ele>327</ele>
        <time>2019-03-25T08:09:23Z</time>
      </trkpt>
      <trkpt lat="43.77492" lon="5.34471">
        <ele>326</ele>
        <time>2019-03-25T08:09:34Z</time>
      </trkpt>
      <trkpt lat="43.77495" lon="5.34459">
        <ele>324</ele>
        <time>2019-03-25T08:09:44Z</time>
      </trkpt>
      <trkpt lat="43.77501" lon="5.34448">
        <ele>325</ele>
        <time>2019-03-25T08:09:55Z</time>
      </trkpt>
      <trkpt lat="43.77501" lon="5.34435">
        <ele>328</ele>
        <time>2019-03-25T08:10:06Z</time>
      </trkpt>
      <trkpt lat="43.77502" lon="5.34422">
        <ele>330</ele>
        <time>2019-03-25T08:10:15Z</time>
      </trkpt>
      <trkpt lat="43.775" lon="5.3441">
        <ele>332</ele>
        <time>2019-03-25T08:10:25Z</time>
      </trkpt>
      <trkpt lat="43.77496" lon="5.34398">
        <ele>334</ele>
        <time>2019-03-25T08:10:37Z</time>
      </trkpt>
      <trkpt lat="43.77497" lon="5.34385">
        <ele>333</ele>
        <time>2019-03-25T08:10:47Z</time>
      </trkpt>
      <trkpt lat="43.77497" lon="5.34373">
        <ele>335</ele>
        <time>2019-03-25T08:10:55Z</time>
      </trkpt>
      <trkpt lat="43.77497" lon="5.3436">
        <ele>336</ele>
        <time>2019-03-25T08:11:05Z</time>
      </trkpt>
      <trkpt lat="43.77493" lon="5.34348">
        <ele>338</ele>
        <time>2019-03-25T08:11:13Z</time>
      </trkpt>
      <trkpt lat="43.77494" lon="5.34335">
        <ele>340</ele>
        <time>2019-03-25T08:11:24Z</time>
      </trkpt>
      <trkpt lat="43.7749" lon="5.34323">
        <ele>347</ele>
        <time>2019-03-25T08:11:33Z</time>
      </trkpt>
      <trkpt lat="43.77489" lon="5.3431">
        <ele>348</ele>
        <time>2019-03-25T08:11:43Z</time>
      </trkpt>
      <trkpt lat="43.77488" lon="5.34298">
        <ele>349</ele>
        <time>2019-03-25T08:11:51Z</time>
      </trkpt>
      <trkpt lat="43.77488" lon="5.34285">
        <ele>350</ele>
        <time>2019-03-25T08:12:00Z</time>
      </trkpt>
      <trkpt lat="43.77488" lon="5.34272">
        <ele>351</ele>
        <time>2019-03-25T08:12:11Z</time>
      </trkpt>
      <trkpt lat="43.77491" lon="5.3426">
        <ele>352</ele>
        <time>2019-03-25T08:12:20Z</time>
      </trkpt>
      <trkpt lat="43.77491" lon="5.34247">
        <ele>352</ele>
        <time>2019-03-25T08:12:33Z</time>
      </trkpt>
      <trkpt lat="43.77497" lon="5.34237">
        <ele>351</ele>
        <time>2019-03-25T08:12:47Z</time>
      </trkpt>
      <trkpt lat="43.77506" lon="5.34237">
        <ele>351</ele>
        <time>2019-03-25T08:12:56Z</time>
      </trkpt>
      <trkpt lat="43.7751" lon="5.34224">
        <ele>353</ele>
        <time>2019-03-25T08:13:14Z</time>
      </trkpt>
      <trkpt lat="43.77512" lon="5.34212">
        <ele>353</ele>
        <time>2019-03-25T08:13:24Z</time>
      </trkpt>
      <trkpt lat="43.77515" lon="5.342">
        <ele>354</ele>
        <time>2019-03-25T08:13:34Z</time>
      </trkpt>
      <trkpt lat="43.77521" lon="5.34191">
        <ele>356</ele>
        <time>2019-03-25T08:13:44Z</time>
      </trkpt>
      <trkpt lat="43.77528" lon="5.34182">
        <ele>355</ele>
        <time>2019-03-25T08:13:59Z</time>
      </trkpt>
      <trkpt lat="43.77532" lon="5.3417">
        <ele>356</ele>
        <time>2019-03-25T08:14:09Z</time>
      </trkpt>
      <trkpt lat="43.77543" lon="5.3415">
        <ele>357</ele>
        <time>2019-03-25T08:14:34Z</time>
      </trkpt>
      <trkpt lat="43.77546" lon="5.34136">
        <ele>358</ele>
        <time>2019-03-25T08:14:43Z</time>
      </trkpt>
      <trkpt lat="43.77548" lon="5.34124">
        <ele>360</ele>
        <time>2019-03-25T08:14:50Z</time>
      </trkpt>
      <trkpt lat="43.77553" lon="5.34112">
        <ele>359</ele>
        <time>2019-03-25T08:15:00Z</time>
      </trkpt>
      <trkpt lat="43.77557" lon="5.34099">
        <ele>361</ele>
        <time>2019-03-25T08:15:11Z</time>
      </trkpt>
      <trkpt lat="43.77563" lon="5.34091">
        <ele>362</ele>
        <time>2019-03-25T08:15:21Z</time>
      </trkpt>
      <trkpt lat="43.77571" lon="5.34084">
        <ele>364</ele>
        <time>2019-03-25T08:15:30Z</time>
      </trkpt>
      <trkpt lat="43.77579" lon="5.34078">
        <ele>364</ele>
        <time>2019-03-25T08:15:39Z</time>
      </trkpt>
      <trkpt lat="43.77588" lon="5.34074">
        <ele>365</ele>
        <time>2019-03-25T08:15:48Z</time>
      </trkpt>
      <trkpt lat="43.77597" lon="5.34069">
        <ele>368</ele>
        <time>2019-03-25T08:15:58Z</time>
      </trkpt>
      <trkpt lat="43.77605" lon="5.34063">
        <ele>370</ele>
        <time>2019-03-25T08:16:09Z</time>
      </trkpt>
      <trkpt lat="43.77614" lon="5.34057">
        <ele>371</ele>
        <time>2019-03-25T08:16:20Z</time>
      </trkpt>
      <trkpt lat="43.77621" lon="5.34049">
        <ele>372</ele>
        <time>2019-03-25T08:16:28Z</time>
      </trkpt>
      <trkpt lat="43.7763" lon="5.34047">
        <ele>373</ele>
        <time>2019-03-25T08:16:37Z</time>
      </trkpt>
      <trkpt lat="43.77638" lon="5.34042">
        <ele>371</ele>
        <time>2019-03-25T08:16:48Z</time>
      </trkpt>
      <trkpt lat="43.77646" lon="5.34035">
        <ele>373</ele>
        <time>2019-03-25T08:17:00Z</time>
      </trkpt>
      <trkpt lat="43.77655" lon="5.34036">
        <ele>375</ele>
        <time>2019-03-25T08:17:13Z</time>
      </trkpt>
      <trkpt lat="43.77665" lon="5.34034">
        <ele>376</ele>
        <time>2019-03-25T08:17:30Z</time>
      </trkpt>
      <trkpt lat="43.77674" lon="5.3403">
        <ele>379</ele>
        <time>2019-03-25T08:17:43Z</time>
      </trkpt>
      <trkpt lat="43.77683" lon="5.34032">
        <ele>379</ele>
        <time>2019-03-25T08:17:55Z</time>
      </trkpt>
      <trkpt lat="43.77694" lon="5.3403">
        <ele>381</ele>
        <time>2019-03-25T08:18:06Z</time>
      </trkpt>
      <trkpt lat="43.77702" lon="5.34027">
        <ele>383</ele>
        <time>2019-03-25T08:18:15Z</time>
      </trkpt>
      <trkpt lat="43.77712" lon="5.34024">
        <ele>387</ele>
        <time>2019-03-25T08:18:25Z</time>
      </trkpt>
      <trkpt lat="43.77721" lon="5.34026">
        <ele>389</ele>
        <time>2019-03-25T08:18:36Z</time>
      </trkpt>
      <trkpt lat="43.7773" lon="5.34022">
        <ele>390</ele>
        <time>2019-03-25T08:18:46Z</time>
      </trkpt>
      <trkpt lat="43.77739" lon="5.34017">
        <ele>391</ele>
        <time>2019-03-25T08:18:57Z</time>
      </trkpt>
      <trkpt lat="43.77747" lon="5.34011">
        <ele>392</ele>
        <time>2019-03-25T08:19:09Z</time>
      </trkpt>
      <trkpt lat="43.77749" lon="5.33999">
        <ele>393</ele>
        <time>2019-03-25T08:19:17Z</time>
      </trkpt>
      <trkpt lat="43.77757" lon="5.33991">
        <ele>393</ele>
        <time>2019-03-25T08:19:28Z</time>
      </trkpt>
      <trkpt lat="43.77764" lon="5.33982">
        <ele>396</ele>
        <time>2019-03-25T08:19:39Z</time>
      </trkpt>
      <trkpt lat="43.77773" lon="5.33978">
        <ele>396</ele>
        <time>2019-03-25T08:19:52Z</time>
      </trkpt>
      <trkpt lat="43.77781" lon="5.33971">
        <ele>397</ele>
        <time>2019-03-25T08:20:03Z</time>
      </trkpt>
      <trkpt lat="43.77786" lon="5.33961">
        <ele>397</ele>
        <time>2019-03-25T08:20:13Z</time>
      </trkpt>
      <trkpt lat="43.77792" lon="5.33951">
        <ele>397</ele>
        <time>2019-03-25T08:20:23Z</time>
      </trkpt>
      <trkpt lat="43.77798" lon="5.33941">
        <ele>399</ele>
        <time>2019-03-25T08:20:34Z</time>
      </trkpt>
      <trkpt lat="43.778" lon="5.33928">
        <ele>400</ele>
        <time>2019-03-25T08:20:44Z</time>
      </trkpt>
      <trkpt lat="43.77806" lon="5.33918">
        <ele>401</ele>
        <time>2019-03-25T08:21:00Z</time>
      </trkpt>
      <trkpt lat="43.77814" lon="5.33913">
        <ele>403</ele>
        <time>2019-03-25T08:21:11Z</time>
      </trkpt>
      <trkpt lat="43.77818" lon="5.33902">
        <ele>403</ele>
        <time>2019-03-25T08:21:21Z</time>
      </trkpt>
      <trkpt lat="43.77819" lon="5.33888">
        <ele>405</ele>
        <time>2019-03-25T08:21:30Z</time>
      </trkpt>
      <trkpt lat="43.77826" lon="5.3388">
        <ele>407</ele>
        <time>2019-03-25T08:21:41Z</time>
      </trkpt>
      <trkpt lat="43.77832" lon="5.3387">
        <ele>408</ele>
        <time>2019-03-25T08:21:53Z</time>
      </trkpt>
      <trkpt lat="43.77838" lon="5.33858">
        <ele>411</ele>
        <time>2019-03-25T08:22:05Z</time>
      </trkpt>
      <trkpt lat="43.77842" lon="5.33846">
        <ele>414</ele>
        <time>2019-03-25T08:22:14Z</time>
      </trkpt>
      <trkpt lat="43.77842" lon="5.33833">
        <ele>416</ele>
        <time>2019-03-25T08:22:28Z</time>
      </trkpt>
      <trkpt lat="43.7785" lon="5.33826">
        <ele>420</ele>
        <time>2019-03-25T08:22:40Z</time>
      </trkpt>
      <trkpt lat="43.77857" lon="5.33818">
        <ele>422</ele>
        <time>2019-03-25T08:22:52Z</time>
      </trkpt>
      <trkpt lat="43.77867" lon="5.33816">
        <ele>423</ele>
        <time>2019-03-25T08:23:03Z</time>
      </trkpt>
      <trkpt lat="43.77874" lon="5.33809">
        <ele>423</ele>
        <time>2019-03-25T08:23:19Z</time>
      </trkpt>
      <trkpt lat="43.7788" lon="5.33799">
        <ele>424</ele>
        <time>2019-03-25T08:23:33Z</time>
      </trkpt>
      <trkpt lat="43.7789" lon="5.33799">
        <ele>425</ele>
        <time>2019-03-25T08:23:47Z</time>
      </trkpt>
      <trkpt lat="43.77896" lon="5.3379">
        <ele>426</ele>
        <time>2019-03-25T08:24:00Z</time>
      </trkpt>
      <trkpt lat="43.77898" lon="5.33778">
        <ele>426</ele>
        <time>2019-03-25T08:24:07Z</time>
      </trkpt>
      <trkpt lat="43.77904" lon="5.33769">
        <ele>428</ele>
        <time>2019-03-25T08:24:19Z</time>
      </trkpt>
      <trkpt lat="43.77912" lon="5.33761">
        <ele>431</ele>
        <time>2019-03-25T08:24:33Z</time>
      </trkpt>
      <trkpt lat="43.77917" lon="5.33749">
        <ele>431</ele>
        <time>2019-03-25T08:24:47Z</time>
      </trkpt>
      <trkpt lat="43.77923" lon="5.33739">
        <ele>432</ele>
        <time>2019-03-25T08:25:01Z</time>
      </trkpt>
      <trkpt lat="43.77924" lon="5.33726">
        <ele>436</ele>
        <time>2019-03-25T08:25:09Z</time>
      </trkpt>
      <trkpt lat="43.77928" lon="5.33714">
        <ele>435</ele>
        <time>2019-03-25T08:25:23Z</time>
      </trkpt>
      <trkpt lat="43.77928" lon="5.33702">
        <ele>438</ele>
        <time>2019-03-25T08:25:38Z</time>
      </trkpt>
      <trkpt lat="43.77931" lon="5.3369">
        <ele>440</ele>
        <time>2019-03-25T08:25:47Z</time>
      </trkpt>
      <trkpt lat="43.77934" lon="5.33677">
        <ele>443</ele>
        <time>2019-03-25T08:26:00Z</time>
      </trkpt>
      <trkpt lat="43.77939" lon="5.33666">
        <ele>444</ele>
        <time>2019-03-25T08:26:12Z</time>
      </trkpt>
      <trkpt lat="43.77943" lon="5.33655">
        <ele>448</ele>
        <time>2019-03-25T08:26:24Z</time>
      </trkpt>
      <trkpt lat="43.77953" lon="5.33655">
        <ele>451</ele>
        <time>2019-03-25T08:26:36Z</time>
      </trkpt>
      <trkpt lat="43.77957" lon="5.33644">
        <ele>451</ele>
        <time>2019-03-25T08:26:47Z</time>
      </trkpt>
      <trkpt lat="43.77957" lon="5.33631">
        <ele>450</ele>
        <time>2019-03-25T08:26:57Z</time>
      </trkpt>
      <trkpt lat="43.77958" lon="5.33619">
        <ele>450</ele>
        <time>2019-03-25T08:27:06Z</time>
      </trkpt>
      <trkpt lat="43.77963" lon="5.33608">
        <ele>453</ele>
        <time>2019-03-25T08:27:19Z</time>
      </trkpt>
      <trkpt lat="43.77968" lon="5.33597">
        <ele>455</ele>
        <time>2019-03-25T08:27:33Z</time>
      </trkpt>
      <trkpt lat="43.77977" lon="5.33594">
        <ele>457</ele>
        <time>2019-03-25T08:27:48Z</time>
      </trkpt>
      <trkpt lat="43.77984" lon="5.33586">
        <ele>459</ele>
        <time>2019-03-25T08:28:03Z</time>
      </trkpt>
      <trkpt lat="43.77991" lon="5.33577">
        <ele>460</ele>
        <time>2019-03-25T08:28:20Z</time>
      </trkpt>
      <trkpt lat="43.77996" lon="5.33567">
        <ele>461</ele>
        <time>2019-03-25T08:28:37Z</time>
      </trkpt>
      <trkpt lat="43.78002" lon="5.33557">
        <ele>462</ele>
        <time>2019-03-25T08:28:52Z</time>
      </trkpt>
      <trkpt lat="43.7801" lon="5.33551">
        <ele>463</ele>
        <time>2019-03-25T08:29:08Z</time>
      </trkpt>
      <trkpt lat="43.7802" lon="5.33547">
        <ele>466</ele>
        <time>2019-03-25T08:29:26Z</time>
      </trkpt>
      <trkpt lat="43.78025" lon="5.33538">
        <ele>470</ele>
        <time>2019-03-25T08:29:39Z</time>
      </trkpt>
      <trkpt lat="43.78033" lon="5.33531">
        <ele>475</ele>
        <time>2019-03-25T08:29:57Z</time>
      </trkpt>
      <trkpt lat="43.78043" lon="5.3353">
        <ele>478</ele>
        <time>2019-03-25T08:30:12Z</time>
      </trkpt>
      <trkpt lat="43.78048" lon="5.3352">
        <ele>481</ele>
        <time>2019-03-25T08:30:32Z</time>
      </trkpt>
      <trkpt lat="43.78057" lon="5.33523">
        <ele>483</ele>
        <time>2019-03-25T08:30:43Z</time>
      </trkpt>
      <trkpt lat="43.78066" lon="5.33523">
        <ele>486</ele>
        <time>2019-03-25T08:30:58Z</time>
      </trkpt>
      <trkpt lat="43.78074" lon="5.33517">
        <ele>487</ele>
        <time>2019-03-25T08:31:15Z</time>
      </trkpt>
      <trkpt lat="43.78073" lon="5.33504">
        <ele>488</ele>
        <time>2019-03-25T08:31:25Z</time>
      </trkpt>
      <trkpt lat="43.78072" lon="5.33491">
        <ele>488</ele>
        <time>2019-03-25T08:31:35Z</time>
      </trkpt>
      <trkpt lat="43.78069" lon="5.33479">
        <ele>491</ele>
        <time>2019-03-25T08:31:46Z</time>
      </trkpt>
      <trkpt lat="43.78071" lon="5.33466">
        <ele>494</ele>
        <time>2019-03-25T08:32:11Z</time>
      </trkpt>
      <trkpt lat="43.78067" lon="5.33455">
        <ele>498</ele>
        <time>2019-03-25T08:32:21Z</time>
      </trkpt>
      <trkpt lat="43.78076" lon="5.33452">
        <ele>500</ele>
        <time>2019-03-25T08:32:37Z</time>
      </trkpt>
      <trkpt lat="43.78076" lon="5.33439">
        <ele>505</ele>
        <time>2019-03-25T08:32:56Z</time>
      </trkpt>
      <trkpt lat="43.78083" lon="5.33429">
        <ele>506</ele>
        <time>2019-03-25T08:33:15Z</time>
      </trkpt>
      <trkpt lat="43.78085" lon="5.33417">
        <ele>507</ele>
        <time>2019-03-25T08:33:28Z</time>
      </trkpt>
      <trkpt lat="43.7809" lon="5.33405">
        <ele>510</ele>
        <time>2019-03-25T08:33:45Z</time>
      </trkpt>
      <trkpt lat="43.78086" lon="5.33393">
        <ele>513</ele>
        <time>2019-03-25T08:33:58Z</time>
      </trkpt>
      <trkpt lat="43.78085" lon="5.3338">
        <ele>516</ele>
        <time>2019-03-25T08:34:19Z</time>
      </trkpt>
      <trkpt lat="43.78091" lon="5.33371">
        <ele>520</ele>
        <time>2019-03-25T08:34:36Z</time>
      </trkpt>
      <trkpt lat="43.78098" lon="5.33363">
        <ele>522</ele>
        <time>2019-03-25T08:34:50Z</time>
      </trkpt>
      <trkpt lat="43.78105" lon="5.33353">
        <ele>525</ele>
        <time>2019-03-25T08:35:06Z</time>
      </trkpt>
      <trkpt lat="43.78113" lon="5.33347">
        <ele>528</ele>
        <time>2019-03-25T08:35:18Z</time>
      </trkpt>
      <trkpt lat="43.78122" lon="5.33343">
        <ele>530</ele>
        <time>2019-03-25T08:35:28Z</time>
      </trkpt>
      <trkpt lat="43.78131" lon="5.33339">
        <ele>533</ele>
        <time>2019-03-25T08:35:40Z</time>
      </trkpt>
      <trkpt lat="43.78139" lon="5.33331">
        <ele>536</ele>
        <time>2019-03-25T08:35:52Z</time>
      </trkpt>
      <trkpt lat="43.78147" lon="5.33324">
        <ele>538</ele>
        <time>2019-03-25T08:36:02Z</time>
      </trkpt>
      <trkpt lat="43.78157" lon="5.33322">
        <ele>539</ele>
        <time>2019-03-25T08:36:12Z</time>
      </trkpt>
      <trkpt lat="43.78166" lon="5.33324">
        <ele>543</ele>
        <time>2019-03-25T08:36:22Z</time>
      </trkpt>
      <trkpt lat="43.78176" lon="5.3332">
        <ele>542</ele>
        <time>2019-03-25T08:36:32Z</time>
      </trkpt>
      <trkpt lat="43.78185" lon="5.33322">
        <ele>542</ele>
        <time>2019-03-25T08:36:41Z</time>
      </trkpt>
      <trkpt lat="43.78193" lon="5.3333">
        <ele>542</ele>
        <time>2019-03-25T08:36:50Z</time>
      </trkpt>
      <trkpt lat="43.78202" lon="5.33328">
        <ele>542</ele>
        <time>2019-03-25T08:37:01Z</time>
      </trkpt>
      <trkpt lat="43.78212" lon="5.33324">
        <ele>542</ele>
        <time>2019-03-25T08:37:09Z</time>
      </trkpt>
      <trkpt lat="43.78221" lon="5.33322">
        <ele>542</ele>
        <time>2019-03-25T08:37:17Z</time>
      </trkpt>
      <trkpt lat="43.78231" lon="5.33324">
        <ele>541</ele>
        <time>2019-03-25T08:37:25Z</time>
      </trkpt>
      <trkpt lat="43.7824" lon="5.33328">
        <ele>540</ele>
        <time>2019-03-25T08:37:32Z</time>
      </trkpt>
      <trkpt lat="43.78249" lon="5.33329">
        <ele>540</ele>
        <time>2019-03-25T08:37:40Z</time>
      </trkpt>
      <trkpt lat="43.7826" lon="5.3333">
        <ele>540</ele>
        <time>2019-03-25T08:37:53Z</time>
      </trkpt>
      <trkpt lat="43.78269" lon="5.33323">
        <ele>539</ele>
        <time>2019-03-25T08:38:04Z</time>
      </trkpt>
      <trkpt lat="43.78279" lon="5.33324">
        <ele>539</ele>
        <time>2019-03-25T08:38:11Z</time>
      </trkpt>
      <trkpt lat="43.78286" lon="5.33332">
        <ele>542</ele>
        <time>2019-03-25T08:38:20Z</time>
      </trkpt>
      <trkpt lat="43.78295" lon="5.3333">
        <ele>541</ele>
        <time>2019-03-25T08:38:31Z</time>
      </trkpt>
      <trkpt lat="43.78305" lon="5.3333">
        <ele>540</ele>
        <time>2019-03-25T08:38:41Z</time>
      </trkpt>
      <trkpt lat="43.78314" lon="5.33331">
        <ele>540</ele>
        <time>2019-03-25T08:38:55Z</time>
      </trkpt>
      <trkpt lat="43.78324" lon="5.33333">
        <ele>542</ele>
        <time>2019-03-25T08:39:10Z</time>
      </trkpt>
      <trkpt lat="43.78333" lon="5.33335">
        <ele>542</ele>
        <time>2019-03-25T08:39:19Z</time>
      </trkpt>
      <trkpt lat="43.78342" lon="5.33335">
        <ele>543</ele>
        <time>2019-03-25T08:39:34Z</time>
      </trkpt>
      <trkpt lat="43.78351" lon="5.33339">
        <ele>545</ele>
        <time>2019-03-25T08:39:45Z</time>
      </trkpt>
      <trkpt lat="43.7836" lon="5.33342">
        <ele>547</ele>
        <time>2019-03-25T08:39:59Z</time>
      </trkpt>
      <trkpt lat="43.78369" lon="5.33346">
        <ele>548</ele>
        <time>2019-03-25T08:40:16Z</time>
      </trkpt>
      <trkpt lat="43.78378" lon="5.33345">
        <ele>550</ele>
        <time>2019-03-25T08:40:34Z</time>
      </trkpt>
      <trkpt lat="43.78387" lon="5.33349">
        <ele>552</ele>
        <time>2019-03-25T08:40:53Z</time>
      </trkpt>
      <trkpt lat="43.78396" lon="5.33347">
        <ele>557</ele>
        <time>2019-03-25T08:41:13Z</time>
      </trkpt>
      <trkpt lat="43.78405" lon="5.33343">
        <ele>561</ele>
        <time>2019-03-25T08:41:36Z</time>
      </trkpt>
      <trkpt lat="43.7841" lon="5.33332">
        <ele>563</ele>
        <time>2019-03-25T08:41:52Z</time>
      </trkpt>
      <trkpt lat="43.78419" lon="5.33328">
        <ele>568</ele>
        <time>2019-03-25T08:42:34Z</time>
      </trkpt>
      <trkpt lat="43.78428" lon="5.33324">
        <ele>571</ele>
        <time>2019-03-25T08:42:54Z</time>
      </trkpt>
      <trkpt lat="43.78436" lon="5.33318">
        <ele>572</ele>
        <time>2019-03-25T08:43:11Z</time>
      </trkpt>
      <trkpt lat="43.78444" lon="5.33311">
        <ele>573</ele>
        <time>2019-03-25T08:43:28Z</time>
      </trkpt>
      <trkpt lat="43.78453" lon="5.33308">
        <ele>574</ele>
        <time>2019-03-25T08:43:47Z</time>
      </trkpt>
      <trkpt lat="43.78462" lon="5.33308">
        <ele>575</ele>
        <time>2019-03-25T08:44:05Z</time>
      </trkpt>
      <trkpt lat="43.78471" lon="5.33306">
        <ele>580</ele>
        <time>2019-03-25T08:44:25Z</time>
      </trkpt>
      <trkpt lat="43.78481" lon="5.33307">
        <ele>583</ele>
        <time>2019-03-25T08:44:38Z</time>
      </trkpt>
      <trkpt lat="43.7849" lon="5.33307">
        <ele>586</ele>
        <time>2019-03-25T08:44:51Z</time>
      </trkpt>
      <trkpt lat="43.78492" lon="5.33294">
        <ele>588</ele>
        <time>2019-03-25T08:45:06Z</time>
      </trkpt>
      <trkpt lat="43.78497" lon="5.33283">
        <ele>590</ele>
        <time>2019-03-25T08:45:16Z</time>
      </trkpt>
      <trkpt lat="43.78501" lon="5.33272">
        <ele>591</ele>
        <time>2019-03-25T08:45:28Z</time>
      </trkpt>
      <trkpt lat="43.78504" lon="5.33259">
        <ele>591</ele>
        <time>2019-03-25T08:45:38Z</time>
      </trkpt>
      <trkpt lat="43.78508" lon="5.33248">
        <ele>593</ele>
        <time>2019-03-25T08:45:50Z</time>
      </trkpt>
      <trkpt lat="43.78505" lon="5.33236">
        <ele>593</ele>
        <time>2019-03-25T08:46:00Z</time>
      </trkpt>
      <trkpt lat="43.78508" lon="5.33223">
        <ele>594</ele>
        <time>2019-03-25T08:46:18Z</time>
      </trkpt>
      <trkpt lat="43.78513" lon="5.33212">
        <ele>598</ele>
        <time>2019-03-25T08:46:30Z</time>
      </trkpt>
      <trkpt lat="43.78515" lon="5.33197">
        <ele>597</ele>
        <time>2019-03-25T08:46:46Z</time>
      </trkpt>
      <trkpt lat="43.78517" lon="5.33184">
        <ele>598</ele>
        <time>2019-03-25T08:46:53Z</time>
      </trkpt>
      <trkpt lat="43.78516" lon="5.33171">
        <ele>599</ele>
        <time>2019-03-25T08:47:02Z</time>
      </trkpt>
      <trkpt lat="43.78519" lon="5.33158">
        <ele>603</ele>
        <time>2019-03-25T08:47:12Z</time>
      </trkpt>
      <trkpt lat="43.78519" lon="5.33144">
        <ele>602</ele>
        <time>2019-03-25T08:47:20Z</time>
      </trkpt>
      <trkpt lat="43.78518" lon="5.33132">
        <ele>603</ele>
        <time>2019-03-25T08:47:29Z</time>
      </trkpt>
      <trkpt lat="43.78515" lon="5.33119">
        <ele>603</ele>
        <time>2019-03-25T08:47:37Z</time>
      </trkpt>
      <trkpt lat="43.78512" lon="5.33106">
        <ele>603</ele>
        <time>2019-03-25T08:47:44Z</time>
      </trkpt>
      <trkpt lat="43.78509" lon="5.33093">
        <ele>602</ele>
        <time>2019-03-25T08:47:52Z</time>
      </trkpt>
      <trkpt lat="43.78504" lon="5.33082">
        <ele>601</ele>
        <time>2019-03-25T08:48:00Z</time>
      </trkpt>
      <trkpt lat="43.785" lon="5.33071">
        <ele>600</ele>
        <time>2019-03-25T08:48:08Z</time>
      </trkpt>
      <trkpt lat="43.78498" lon="5.33057">
        <ele>599</ele>
        <time>2019-03-25T08:48:16Z</time>
      </trkpt>
      <trkpt lat="43.78498" lon="5.33043">
        <ele>598</ele>
        <time>2019-03-25T08:48:24Z</time>
      </trkpt>
      <trkpt lat="43.78496" lon="5.33029">
        <ele>599</ele>
        <time>2019-03-25T08:48:32Z</time>
      </trkpt>
      <trkpt lat="43.7849" lon="5.33019">
        <ele>599</ele>
        <time>2019-03-25T08:48:40Z</time>
      </trkpt>
      <trkpt lat="43.78483" lon="5.3301">
        <ele>600</ele>
        <time>2019-03-25T08:48:47Z</time>
      </trkpt>
      <trkpt lat="43.78479" lon="5.32997">
        <ele>601</ele>
        <time>2019-03-25T08:48:57Z</time>
      </trkpt>
      <trkpt lat="43.78476" lon="5.32985">
        <ele>601</ele>
        <time>2019-03-25T08:49:05Z</time>
      </trkpt>
      <trkpt lat="43.78477" lon="5.32972">
        <ele>601</ele>
        <time>2019-03-25T08:49:12Z</time>
      </trkpt>
      <trkpt lat="43.78481" lon="5.32961">
        <ele>601</ele>
        <time>2019-03-25T08:49:20Z</time>
      </trkpt>
      <trkpt lat="43.78491" lon="5.32959">
        <ele>598</ele>
        <time>2019-03-25T08:49:27Z</time>
      </trkpt>
      <trkpt lat="43.78499" lon="5.32966">
        <ele>596</ele>
        <time>2019-03-25T08:49:33Z</time>
      </trkpt>
      <trkpt lat="43.78507" lon="5.32972">
        <ele>596</ele>
        <time>2019-03-25T08:49:40Z</time>
      </trkpt>
      <trkpt lat="43.78516" lon="5.32974">
        <ele>596</ele>
        <time>2019-03-25T08:49:48Z</time>
      </trkpt>
      <trkpt lat="43.78522" lon="5.32984">
        <ele>596</ele>
        <time>2019-03-25T08:49:56Z</time>
      </trkpt>
      <trkpt lat="43.78528" lon="5.32994">
        <ele>596</ele>
        <time>2019-03-25T08:50:05Z</time>
      </trkpt>
      <trkpt lat="43.78537" lon="5.32991">
        <ele>589</ele>
        <time>2019-03-25T08:50:26Z</time>
      </trkpt>
      <trkpt lat="43.78546" lon="5.32992">
        <ele>584</ele>
        <time>2019-03-25T08:50:48Z</time>
      </trkpt>
      <trkpt lat="43.78555" lon="5.32992">
        <ele>580</ele>
        <time>2019-03-25T08:51:07Z</time>
      </trkpt>
      <trkpt lat="43.78564" lon="5.3299">
        <ele>577</ele>
        <time>2019-03-25T08:51:24Z</time>
      </trkpt>
      <trkpt lat="43.78573" lon="5.32984">
        <ele>577</ele>
        <time>2019-03-25T08:51:41Z</time>
      </trkpt>
      <trkpt lat="43.78583" lon="5.32984">
        <ele>573</ele>
        <time>2019-03-25T08:51:52Z</time>
      </trkpt>
      <trkpt lat="43.78592" lon="5.32985">
        <ele>569</ele>
        <time>2019-03-25T08:52:07Z</time>
      </trkpt>
      <trkpt lat="43.78601" lon="5.32985">
        <ele>565</ele>
        <time>2019-03-25T08:52:21Z</time>
      </trkpt>
      <trkpt lat="43.7861" lon="5.3299">
        <ele>564</ele>
        <time>2019-03-25T08:52:29Z</time>
      </trkpt>
      <trkpt lat="43.78619" lon="5.32996">
        <ele>563</ele>
        <time>2019-03-25T08:52:37Z</time>
      </trkpt>
      <trkpt lat="43.78628" lon="5.32998">
        <ele>560</ele>
        <time>2019-03-25T08:52:53Z</time>
      </trkpt>
      <trkpt lat="43.78638" lon="5.32995">
        <ele>558</ele>
        <time>2019-03-25T08:53:03Z</time>
      </trkpt>
      <trkpt lat="43.78647" lon="5.32999">
        <ele>555</ele>
        <time>2019-03-25T08:53:12Z</time>
      </trkpt>
      <trkpt lat="43.78656" lon="5.33002">
        <ele>550</ele>
        <time>2019-03-25T08:53:28Z</time>
      </trkpt>
      <trkpt lat="43.78665" lon="5.33005">
        <ele>547</ele>
        <time>2019-03-25T08:53:37Z</time>
      </trkpt>
      <trkpt lat="43.78674" lon="5.33006">
        <ele>545</ele>
        <time>2019-03-25T08:53:53Z</time>
      </trkpt>
      <trkpt lat="43.78684" lon="5.33003">
        <ele>544</ele>
        <time>2019-03-25T08:54:01Z</time>
      </trkpt>
      <trkpt lat="43.78693" lon="5.33003">
        <ele>543</ele>
        <time>2019-03-25T08:54:10Z</time>
      </trkpt>
      <trkpt lat="43.78702" lon="5.32999">
        <ele>535</ele>
        <time>2019-03-25T08:54:29Z</time>
      </trkpt>
      <trkpt lat="43.78712" lon="5.33">
        <ele>533</ele>
        <time>2019-03-25T08:54:38Z</time>
      </trkpt>
      <trkpt lat="43.78721" lon="5.33001">
        <ele>530</ele>
        <time>2019-03-25T08:54:50Z</time>
      </trkpt>
      <trkpt lat="43.78731" lon="5.33004">
        <ele>527</ele>
        <time>2019-03-25T08:55:00Z</time>
      </trkpt>
      <trkpt lat="43.7874" lon="5.33001">
        <ele>526</ele>
        <time>2019-03-25T08:55:10Z</time>
      </trkpt>
      <trkpt lat="43.78749" lon="5.32998">
        <ele>523</ele>
        <time>2019-03-25T08:55:21Z</time>
      </trkpt>
      <trkpt lat="43.78758" lon="5.32997">
        <ele>522</ele>
        <time>2019-03-25T08:55:32Z</time>
      </trkpt>
      <trkpt lat="43.78768" lon="5.33">
        <ele>521</ele>
        <time>2019-03-25T08:55:40Z</time>
      </trkpt>
      <trkpt lat="43.78776" lon="5.32996">
        <ele>520</ele>
        <time>2019-03-25T08:55:49Z</time>
      </trkpt>
      <trkpt lat="43.78784" lon="5.33002">
        <ele>518</ele>
        <time>2019-03-25T08:55:58Z</time>
      </trkpt>
      <trkpt lat="43.78793" lon="5.32999">
        <ele>508</ele>
        <time>2019-03-25T08:56:19Z</time>
      </trkpt>
      <trkpt lat="43.78801" lon="5.32993">
        <ele>505</ele>
        <time>2019-03-25T08:56:28Z</time>
      </trkpt>
      <trkpt lat="43.78811" lon="5.32995">
        <ele>501</ele>
        <time>2019-03-25T08:56:37Z</time>
      </trkpt>
      <trkpt lat="43.78819" lon="5.32988">
        <ele>497</ele>
        <time>2019-03-25T08:56:47Z</time>
      </trkpt>
      <trkpt lat="43.78827" lon="5.3298">
        <ele>496</ele>
        <time>2019-03-25T08:56:56Z</time>
      </trkpt>
      <trkpt lat="43.78837" lon="5.32978">
        <ele>494</ele>
        <time>2019-03-25T08:57:03Z</time>
      </trkpt>
      <trkpt lat="43.78846" lon="5.32974">
        <ele>493</ele>
        <time>2019-03-25T08:57:10Z</time>
      </trkpt>
      <trkpt lat="43.78855" lon="5.32967">
        <ele>492</ele>
        <time>2019-03-25T08:57:19Z</time>
      </trkpt>
      <trkpt lat="43.78864" lon="5.32963">
        <ele>491</ele>
        <time>2019-03-25T08:57:28Z</time>
      </trkpt>
      <trkpt lat="43.78872" lon="5.32957">
        <ele>489</ele>
        <time>2019-03-25T08:57:38Z</time>
      </trkpt>
      <trkpt lat="43.78879" lon="5.32948">
        <ele>485</ele>
        <time>2019-03-25T08:57:50Z</time>
      </trkpt>
      <trkpt lat="43.78886" lon="5.32938">
        <ele>484</ele>
        <time>2019-03-25T08:58:00Z</time>
      </trkpt>
      <trkpt lat="43.78894" lon="5.32931">
        <ele>483</ele>
        <time>2019-03-25T08:58:10Z</time>
      </trkpt>
      <trkpt lat="43.78901" lon="5.32923">
        <ele>481</ele>
        <time>2019-03-25T08:58:21Z</time>
      </trkpt>
      <trkpt lat="43.78907" lon="5.32913">
        <ele>479</ele>
        <time>2019-03-25T08:58:33Z</time>
      </trkpt>
      <trkpt lat="43.78913" lon="5.32904">
        <ele>468</ele>
        <time>2019-03-25T08:58:49Z</time>
      </trkpt>
      <trkpt lat="43.7892" lon="5.32894">
        <ele>463</ele>
        <time>2019-03-25T08:59:04Z</time>
      </trkpt>
      <trkpt lat="43.78929" lon="5.32895">
        <ele>464</ele>
        <time>2019-03-25T08:59:14Z</time>
      </trkpt>
      <trkpt lat="43.78938" lon="5.32891">
        <ele>462</ele>
        <time>2019-03-25T08:59:22Z</time>
      </trkpt>
      <trkpt lat="43.78947" lon="5.32885">
        <ele>461</ele>
        <time>2019-03-25T08:59:32Z</time>
      </trkpt>
      <trkpt lat="43.78956" lon="5.32882">
        <ele>455</ele>
        <time>2019-03-25T08:59:46Z</time>
      </trkpt>
      <trkpt lat="43.78965" lon="5.32878">
        <ele>452</ele>
        <time>2019-03-25T09:00:01Z</time>
      </trkpt>
      <trkpt lat="43.78974" lon="5.32872">
        <ele>449</ele>
        <time>2019-03-25T09:00:09Z</time>
      </trkpt>
      <trkpt lat="43.78981" lon="5.32864">
        <ele>446</ele>
        <time>2019-03-25T09:00:23Z</time>
      </trkpt>
      <trkpt lat="43.7899" lon="5.32858">
        <ele>444</ele>
        <time>2019-03-25T09:00:34Z</time>
      </trkpt>
      <trkpt lat="43.78999" lon="5.32853">
        <ele>442</ele>
        <time>2019-03-25T09:00:44Z</time>
      </trkpt>
      <trkpt lat="43.79006" lon="5.32843">
        <ele>441</ele>
        <time>2019-03-25T09:00:55Z</time>
      </trkpt>
      <trkpt lat="43.79015" lon="5.32843">
        <ele>439</ele>
        <time>2019-03-25T09:01:08Z</time>
      </trkpt>
      <trkpt lat="43.79022" lon="5.32832">
        <ele>436</ele>
        <time>2019-03-25T09:01:23Z</time>
      </trkpt>
      <trkpt lat="43.7903" lon="5.32826">
        <ele>432</ele>
        <time>2019-03-25T09:01:40Z</time>
      </trkpt>
      <trkpt lat="43.79038" lon="5.32819">
        <ele>427</ele>
        <time>2019-03-25T09:01:55Z</time>
      </trkpt>
      <trkpt lat="43.79045" lon="5.3281">
        <ele>422</ele>
        <time>2019-03-25T09:02:15Z</time>
      </trkpt>
      <trkpt lat="43.7905" lon="5.32799">
        <ele>422</ele>
        <time>2019-03-25T09:02:29Z</time>
      </trkpt>
      <trkpt lat="43.79056" lon="5.3279">
        <ele>420</ele>
        <time>2019-03-25T09:02:41Z</time>
      </trkpt>
      <trkpt lat="43.79066" lon="5.32788">
        <ele>418</ele>
        <time>2019-03-25T09:02:53Z</time>
      </trkpt>
      <trkpt lat="43.79073" lon="5.32779">
        <ele>414</ele>
        <time>2019-03-25T09:03:09Z</time>
      </trkpt>
      <trkpt lat="43.79078" lon="5.32767">
        <ele>411</ele>
        <time>2019-03-25T09:03:18Z</time>
      </trkpt>
      <trkpt lat="43.79087" lon="5.32764">
        <ele>409</ele>
        <time>2019-03-25T09:03:28Z</time>
      </trkpt>
      <trkpt lat="43.79096" lon="5.3276">
        <ele>407</ele>
        <time>2019-03-25T09:03:38Z</time>
      </trkpt>
      <trkpt lat="43.79105" lon="5.3276">
        <ele>406</ele>
        <time>2019-03-25T09:03:44Z</time>
      </trkpt>
      <trkpt lat="43.79114" lon="5.32764">
        <ele>405</ele>
        <time>2019-03-25T09:03:49Z</time>
      </trkpt>
      <trkpt lat="43.79123" lon="5.32769">
        <ele>402</ele>
        <time>2019-03-25T09:03:57Z</time>
      </trkpt>
      <trkpt lat="43.79131" lon="5.32774">
        <ele>399</ele>
        <time>2019-03-25T09:04:07Z</time>
      </trkpt>
      <trkpt lat="43.7914" lon="5.32779">
        <ele>398</ele>
        <time>2019-03-25T09:04:16Z</time>
      </trkpt>
      <trkpt lat="43.79148" lon="5.32787">
        <ele>394</ele>
        <time>2019-03-25T09:04:28Z</time>
      </trkpt>
      <trkpt lat="43.79158" lon="5.32792">
        <ele>392</ele>
        <time>2019-03-25T09:04:37Z</time>
      </trkpt>
      <trkpt lat="43.79167" lon="5.32797">
        <ele>392</ele>
        <time>2019-03-25T09:04:46Z</time>
      </trkpt>
      <trkpt lat="43.79175" lon="5.32801">
        <ele>388</ele>
        <time>2019-03-25T09:04:56Z</time>
      </trkpt>
      <trkpt lat="43.79184" lon="5.32806">
        <ele>383</ele>
        <time>2019-03-25T09:05:12Z</time>
      </trkpt>
      <trkpt lat="43.79193" lon="5.32806">
        <ele>381</ele>
        <time>2019-03-25T09:05:24Z</time>
      </trkpt>
      <trkpt lat="43.79203" lon="5.32807">
        <ele>382</ele>
        <time>2019-03-25T09:05:32Z</time>
      </trkpt>
      <trkpt lat="43.79212" lon="5.32807">
        <ele>379</ele>
        <time>2019-03-25T09:05:41Z</time>
      </trkpt>
      <trkpt lat="43.79222" lon="5.32802">
        <ele>373</ele>
        <time>2019-03-25T09:06:07Z</time>
      </trkpt>
      <trkpt lat="43.79232" lon="5.32804">
        <ele>371</ele>
        <time>2019-03-25T09:06:16Z</time>
      </trkpt>
      <trkpt lat="43.79242" lon="5.32805">
        <ele>370</ele>
        <time>2019-03-25T09:06:23Z</time>
      </trkpt>
      <trkpt lat="43.79251" lon="5.32807">
        <ele>370</ele>
        <time>2019-03-25T09:06:30Z</time>
      </trkpt>
      <trkpt lat="43.7926" lon="5.32809">
        <ele>368</ele>
        <time>2019-03-25T09:06:39Z</time>
      </trkpt>
      <trkpt lat="43.7927" lon="5.32805">
        <ele>368</ele>
        <time>2019-03-25T09:06:50Z</time>
      </trkpt>
      <trkpt lat="43.79275" lon="5.32793">
        <ele>369</ele>
        <time>2019-03-25T09:06:57Z</time>
      </trkpt>
      <trkpt lat="43.79277" lon="5.32781">
        <ele>369</ele>
        <time>2019-03-25T09:07:04Z</time>
      </trkpt>
      <trkpt lat="43.79279" lon="5.32767">
        <ele>369</ele>
        <time>2019-03-25T09:07:12Z</time>
      </trkpt>
      <trkpt lat="43.79282" lon="5.32754">
        <ele>369</ele>
        <time>2019-03-25T09:07:21Z</time>
      </trkpt>
      <trkpt lat="43.79284" lon="5.32742">
        <ele>367</ele>
        <time>2019-03-25T09:07:28Z</time>
      </trkpt>
      <trkpt lat="43.79287" lon="5.32729">
        <ele>368</ele>
        <time>2019-03-25T09:07:37Z</time>
      </trkpt>
      <trkpt lat="43.79291" lon="5.32718">
        <ele>367</ele>
        <time>2019-03-25T09:07:43Z</time>
      </trkpt>
      <trkpt lat="43.79294" lon="5.32706">
        <ele>367</ele>
        <time>2019-03-25T09:07:49Z</time>
      </trkpt>
      <trkpt lat="43.79297" lon="5.32692">
        <ele>367</ele>
        <time>2019-03-25T09:07:56Z</time>
      </trkpt>
      <trkpt lat="43.79301" lon="5.32681">
        <ele>368</ele>
        <time>2019-03-25T09:08:03Z</time>
      </trkpt>
      <trkpt lat="43.79303" lon="5.32668">
        <ele>368</ele>
        <time>2019-03-25T09:08:12Z</time>
      </trkpt>
      <trkpt lat="43.79309" lon="5.32658">
        <ele>367</ele>
        <time>2019-03-25T09:08:20Z</time>
      </trkpt>
      <trkpt lat="43.79319" lon="5.3266">
        <ele>365</ele>
        <time>2019-03-25T09:08:28Z</time>
      </trkpt>
      <trkpt lat="43.79329" lon="5.32658">
        <ele>364</ele>
        <time>2019-03-25T09:08:36Z</time>
      </trkpt>
      <trkpt lat="43.79338" lon="5.32662">
        <ele>363</ele>
        <time>2019-03-25T09:08:45Z</time>
      </trkpt>
      <trkpt lat="43.79348" lon="5.32665">
        <ele>363</ele>
        <time>2019-03-25T09:08:51Z</time>
      </trkpt>
      <trkpt lat="43.79357" lon="5.3267">
        <ele>362</ele>
        <time>2019-03-25T09:08:59Z</time>
      </trkpt>
      <trkpt lat="43.79367" lon="5.32673">
        <ele>361</ele>
        <time>2019-03-25T09:09:07Z</time>
      </trkpt>
      <trkpt lat="43.79376" lon="5.3267">
        <ele>361</ele>
        <time>2019-03-25T09:09:17Z</time>
      </trkpt>
      <trkpt lat="43.79385" lon="5.32665">
        <ele>361</ele>
        <time>2019-03-25T09:09:24Z</time>
      </trkpt>
      <trkpt lat="43.79394" lon="5.32663">
        <ele>360</ele>
        <time>2019-03-25T09:09:32Z</time>
      </trkpt>
      <trkpt lat="43.79402" lon="5.32657">
        <ele>361</ele>
        <time>2019-03-25T09:09:42Z</time>
      </trkpt>
      <trkpt lat="43.79406" lon="5.32644">
        <ele>360</ele>
        <time>2019-03-25T09:09:51Z</time>
      </trkpt>
      <trkpt lat="43.79409" lon="5.32632">
        <ele>361</ele>
        <time>2019-03-25T09:09:59Z</time>
      </trkpt>
      <trkpt lat="43.79415" lon="5.32621">
        <ele>362</ele>
        <time>2019-03-25T09:10:07Z</time>
      </trkpt>
      <trkpt lat="43.79423" lon="5.32615">
        <ele>362</ele>
        <time>2019-03-25T09:10:15Z</time>
      </trkpt>
      <trkpt lat="43.79431" lon="5.32608">
        <ele>362</ele>
        <time>2019-03-25T09:10:26Z</time>
      </trkpt>
      <trkpt lat="43.79441" lon="5.32611">
        <ele>363</ele>
        <time>2019-03-25T09:10:35Z</time>
      </trkpt>
      <trkpt lat="43.79451" lon="5.32613">
        <ele>363</ele>
        <time>2019-03-25T09:10:44Z</time>
      </trkpt>
      <trkpt lat="43.79457" lon="5.32605">
        <ele>364</ele>
        <time>2019-03-25T09:10:54Z</time>
      </trkpt>
      <trkpt lat="43.79454" lon="5.32592">
        <ele>364</ele>
        <time>2019-03-25T09:11:03Z</time>
      </trkpt>
      <trkpt lat="43.79455" lon="5.32579">
        <ele>365</ele>
        <time>2019-03-25T09:11:10Z</time>
      </trkpt>
      <trkpt lat="43.79458" lon="5.32566">
        <ele>365</ele>
        <time>2019-03-25T09:11:18Z</time>
      </trkpt>
      <trkpt lat="43.79454" lon="5.32555">
        <ele>365</ele>
        <time>2019-03-25T09:11:25Z</time>
      </trkpt>
      <trkpt lat="43.7945" lon="5.32544">
        <ele>365</ele>
        <time>2019-03-25T09:11:30Z</time>
      </trkpt>
      <trkpt lat="43.79457" lon="5.32534">
        <ele>365</ele>
        <time>2019-03-25T09:11:38Z</time>
      </trkpt>
      <trkpt lat="43.79462" lon="5.32524">
        <ele>364</ele>
        <time>2019-03-25T09:11:48Z</time>
      </trkpt>
      <trkpt lat="43.79468" lon="5.32513">
        <ele>364</ele>
        <time>2019-03-25T09:11:56Z</time>
      </trkpt>
      <trkpt lat="43.7947" lon="5.32499">
        <ele>364</ele>
        <time>2019-03-25T09:12:08Z</time>
      </trkpt>
      <trkpt lat="43.79475" lon="5.32488">
        <ele>364</ele>
        <time>2019-03-25T09:12:19Z</time>
      </trkpt>
      <trkpt lat="43.79481" lon="5.32479">
        <ele>365</ele>
        <time>2019-03-25T09:12:28Z</time>
      </trkpt>
      <trkpt lat="43.79481" lon="5.32458">
        <ele>366</ele>
        <time>2019-03-25T09:12:40Z</time>
      </trkpt>
      <trkpt lat="43.79489" lon="5.32451">
        <ele>366</ele>
        <time>2019-03-25T09:12:48Z</time>
      </trkpt>
      <trkpt lat="43.79498" lon="5.32447">
        <ele>365</ele>
        <time>2019-03-25T09:12:55Z</time>
      </trkpt>
      <trkpt lat="43.79504" lon="5.32437">
        <ele>366</ele>
        <time>2019-03-25T09:13:03Z</time>
      </trkpt>
      <trkpt lat="43.79502" lon="5.32424">
        <ele>367</ele>
        <time>2019-03-25T09:13:16Z</time>
      </trkpt>
      <trkpt lat="43.79503" lon="5.32411">
        <ele>367</ele>
        <time>2019-03-25T09:13:25Z</time>
      </trkpt>
      <trkpt lat="43.79501" lon="5.32399">
        <ele>369</ele>
        <time>2019-03-25T09:13:39Z</time>
      </trkpt>
      <trkpt lat="43.79499" lon="5.32386">
        <ele>370</ele>
        <time>2019-03-25T09:13:48Z</time>
      </trkpt>
      <trkpt lat="43.79495" lon="5.32375">
        <ele>372</ele>
        <time>2019-03-25T09:13:55Z</time>
      </trkpt>
      <trkpt lat="43.79496" lon="5.32362">
        <ele>373</ele>
        <time>2019-03-25T09:14:09Z</time>
      </trkpt>
      <trkpt lat="43.79492" lon="5.32351">
        <ele>374</ele>
        <time>2019-03-25T09:14:23Z</time>
      </trkpt>
      <trkpt lat="43.79484" lon="5.32342">
        <ele>377</ele>
        <time>2019-03-25T09:14:36Z</time>
      </trkpt>
      <trkpt lat="43.79477" lon="5.32334">
        <ele>379</ele>
        <time>2019-03-25T09:14:53Z</time>
      </trkpt>
      <trkpt lat="43.79469" lon="5.32326">
        <ele>380</ele>
        <time>2019-03-25T09:15:05Z</time>
      </trkpt>
      <trkpt lat="43.79463" lon="5.32316">
        <ele>382</ele>
        <time>2019-03-25T09:15:15Z</time>
      </trkpt>
      <trkpt lat="43.79459" lon="5.32304">
        <ele>383</ele>
        <time>2019-03-25T09:15:27Z</time>
      </trkpt>
      <trkpt lat="43.79456" lon="5.32292">
        <ele>385</ele>
        <time>2019-03-25T09:15:41Z</time>
      </trkpt>
      <trkpt lat="43.79449" lon="5.32283">
        <ele>387</ele>
        <time>2019-03-25T09:15:51Z</time>
      </trkpt>
      <trkpt lat="43.79442" lon="5.32276">
        <ele>386</ele>
        <time>2019-03-25T09:16:04Z</time>
      </trkpt>
      <trkpt lat="43.79441" lon="5.32263">
        <ele>389</ele>
        <time>2019-03-25T09:16:17Z</time>
      </trkpt>
      <trkpt lat="43.7944" lon="5.3225">
        <ele>388</ele>
        <time>2019-03-25T09:16:33Z</time>
      </trkpt>
      <trkpt lat="43.79441" lon="5.32237">
        <ele>391</ele>
        <time>2019-03-25T09:16:43Z</time>
      </trkpt>
      <trkpt lat="43.79442" lon="5.32224">
        <ele>391</ele>
        <time>2019-03-25T09:17:02Z</time>
      </trkpt>
      <trkpt lat="43.79441" lon="5.32212">
        <ele>395</ele>
        <time>2019-03-25T09:17:26Z</time>
      </trkpt>
      <trkpt lat="43.7944" lon="5.32199">
        <ele>401</ele>
        <time>2019-03-25T09:17:44Z</time>
      </trkpt>
      <trkpt lat="43.79445" lon="5.32188">
        <ele>402</ele>
        <time>2019-03-25T09:17:59Z</time>
      </trkpt>
      <trkpt lat="43.79445" lon="5.32175">
        <ele>406</ele>
        <time>2019-03-25T09:18:17Z</time>
      </trkpt>
      <trkpt lat="43.79443" lon="5.32162">
        <ele>406</ele>
        <time>2019-03-25T09:18:35Z</time>
      </trkpt>
      <trkpt lat="43.79443" lon="5.3215">
        <ele>406</ele>
        <time>2019-03-25T09:18:42Z</time>
      </trkpt>
      <trkpt lat="43.79439" lon="5.32138">
        <ele>406</ele>
        <time>2019-03-25T09:19:03Z</time>
      </trkpt>
      <trkpt lat="43.79431" lon="5.3213">
        <ele>405</ele>
        <time>2019-03-25T09:19:21Z</time>
      </trkpt>
      <trkpt lat="43.79421" lon="5.32128">
        <ele>406</ele>
        <time>2019-03-25T09:19:31Z</time>
      </trkpt>
      <trkpt lat="43.79419" lon="5.32116">
        <ele>405</ele>
        <time>2019-03-25T09:19:41Z</time>
      </trkpt>
      <trkpt lat="43.79415" lon="5.32104">
        <ele>408</ele>
        <time>2019-03-25T09:19:54Z</time>
      </trkpt>
      <trkpt lat="43.79409" lon="5.32094">
        <ele>409</ele>
        <time>2019-03-25T09:20:05Z</time>
      </trkpt>
      <trkpt lat="43.79404" lon="5.32082">
        <ele>409</ele>
        <time>2019-03-25T09:20:18Z</time>
      </trkpt>
      <trkpt lat="43.79399" lon="5.3207">
        <ele>411</ele>
        <time>2019-03-25T09:20:31Z</time>
      </trkpt>
      <trkpt lat="43.79395" lon="5.32059">
        <ele>413</ele>
        <time>2019-03-25T09:20:44Z</time>
      </trkpt>
      <trkpt lat="43.79388" lon="5.3205">
        <ele>415</ele>
        <time>2019-03-25T09:20:54Z</time>
      </trkpt>
      <trkpt lat="43.79384" lon="5.32039">
        <ele>413</ele>
        <time>2019-03-25T09:21:06Z</time>
      </trkpt>
      <trkpt lat="43.79378" lon="5.32029">
        <ele>414</ele>
        <time>2019-03-25T09:21:15Z</time>
      </trkpt>
      <trkpt lat="43.79379" lon="5.32016">
        <ele>416</ele>
        <time>2019-03-25T09:21:26Z</time>
      </trkpt>
      <trkpt lat="43.79373" lon="5.32006">
        <ele>418</ele>
        <time>2019-03-25T09:21:40Z</time>
      </trkpt>
      <trkpt lat="43.79374" lon="5.31993">
        <ele>421</ele>
        <time>2019-03-25T09:21:52Z</time>
      </trkpt>
      <trkpt lat="43.79377" lon="5.3198">
        <ele>423</ele>
        <time>2019-03-25T09:22:00Z</time>
      </trkpt>
      <trkpt lat="43.79378" lon="5.31967">
        <ele>424</ele>
        <time>2019-03-25T09:22:10Z</time>
      </trkpt>
      <trkpt lat="43.7937" lon="5.31961">
        <ele>426</ele>
        <time>2019-03-25T09:22:16Z</time>
      </trkpt>
      <trkpt lat="43.79369" lon="5.31948">
        <ele>428</ele>
        <time>2019-03-25T09:22:28Z</time>
      </trkpt>
      <trkpt lat="43.79367" lon="5.31935">
        <ele>430</ele>
        <time>2019-03-25T09:22:48Z</time>
      </trkpt>
      <trkpt lat="43.79361" lon="5.31924">
        <ele>432</ele>
        <time>2019-03-25T09:22:57Z</time>
      </trkpt>
      <trkpt lat="43.79359" lon="5.31912">
        <ele>431</ele>
        <time>2019-03-25T09:23:08Z</time>
      </trkpt>
      <trkpt lat="43.79355" lon="5.319">
        <ele>433</ele>
        <time>2019-03-25T09:23:25Z</time>
      </trkpt>
      <trkpt lat="43.79351" lon="5.31888">
        <ele>434</ele>
        <time>2019-03-25T09:23:38Z</time>
      </trkpt>
      <trkpt lat="43.79345" lon="5.31878">
        <ele>433</ele>
        <time>2019-03-25T09:23:53Z</time>
      </trkpt>
      <trkpt lat="43.79337" lon="5.3187">
        <ele>434</ele>
        <time>2019-03-25T09:24:04Z</time>
      </trkpt>
      <trkpt lat="43.79328" lon="5.31866">
        <ele>437</ele>
        <time>2019-03-25T09:24:15Z</time>
      </trkpt>
      <trkpt lat="43.7932" lon="5.31859">
        <ele>440</ele>
        <time>2019-03-25T09:24:27Z</time>
      </trkpt>
      <trkpt lat="43.79311" lon="5.31853">
        <ele>441</ele>
        <time>2019-03-25T09:24:38Z</time>
      </trkpt>
      <trkpt lat="43.79305" lon="5.31842">
        <ele>441</ele>
        <time>2019-03-25T09:24:49Z</time>
      </trkpt>
      <trkpt lat="43.79298" lon="5.31834">
        <ele>442</ele>
        <time>2019-03-25T09:25:04Z</time>
      </trkpt>
      <trkpt lat="43.79292" lon="5.31823">
        <ele>442</ele>
        <time>2019-03-25T09:25:17Z</time>
      </trkpt>
      <trkpt lat="43.79286" lon="5.31813">
        <ele>443</ele>
        <time>2019-03-25T09:25:28Z</time>
      </trkpt>
      <trkpt lat="43.79278" lon="5.31806">
        <ele>445</ele>
        <time>2019-03-25T09:25:37Z</time>
      </trkpt>
      <trkpt lat="43.79274" lon="5.31795">
        <ele>445</ele>
        <time>2019-03-25T09:25:48Z</time>
      </trkpt>
      <trkpt lat="43.79274" lon="5.31782">
        <ele>447</ele>
        <time>2019-03-25T09:26:02Z</time>
      </trkpt>
      <trkpt lat="43.79277" lon="5.3177">
        <ele>448</ele>
        <time>2019-03-25T09:26:13Z</time>
      </trkpt>
      <trkpt lat="43.79272" lon="5.3176">
        <ele>451</ele>
        <time>2019-03-25T09:26:27Z</time>
      </trkpt>
      <trkpt lat="43.79272" lon="5.31746">
        <ele>452</ele>
        <time>2019-03-25T09:26:39Z</time>
      </trkpt>
      <trkpt lat="43.79273" lon="5.31733">
        <ele>456</ele>
        <time>2019-03-25T09:26:49Z</time>
      </trkpt>
      <trkpt lat="43.79272" lon="5.31719">
        <ele>457</ele>
        <time>2019-03-25T09:27:00Z</time>
      </trkpt>
      <trkpt lat="43.7927" lon="5.31706">
        <ele>457</ele>
        <time>2019-03-25T09:27:09Z</time>
      </trkpt>
      <trkpt lat="43.7927" lon="5.31693">
        <ele>459</ele>
        <time>2019-03-25T09:27:22Z</time>
      </trkpt>
      <trkpt lat="43.79268" lon="5.3168">
        <ele>461</ele>
        <time>2019-03-25T09:27:32Z</time>
      </trkpt>
      <trkpt lat="43.7927" lon="5.31666">
        <ele>461</ele>
        <time>2019-03-25T09:27:43Z</time>
      </trkpt>
      <trkpt lat="43.79273" lon="5.31654">
        <ele>461</ele>
        <time>2019-03-25T09:27:53Z</time>
      </trkpt>
      <trkpt lat="43.79275" lon="5.31641">
        <ele>462</ele>
        <time>2019-03-25T09:28:06Z</time>
      </trkpt>
      <trkpt lat="43.79276" lon="5.31628">
        <ele>463</ele>
        <time>2019-03-25T09:28:16Z</time>
      </trkpt>
      <trkpt lat="43.7928" lon="5.31617">
        <ele>463</ele>
        <time>2019-03-25T09:28:25Z</time>
      </trkpt>
      <trkpt lat="43.79285" lon="5.31605">
        <ele>464</ele>
        <time>2019-03-25T09:28:36Z</time>
      </trkpt>
      <trkpt lat="43.79285" lon="5.31592">
        <ele>465</ele>
        <time>2019-03-25T09:28:47Z</time>
      </trkpt>
      <trkpt lat="43.79287" lon="5.31579">
        <ele>467</ele>
        <time>2019-03-25T09:28:58Z</time>
      </trkpt>
      <trkpt lat="43.79295" lon="5.3157">
        <ele>467</ele>
        <time>2019-03-25T09:29:10Z</time>
      </trkpt>
      <trkpt lat="43.793" lon="5.31558">
        <ele>470</ele>
        <time>2019-03-25T09:29:22Z</time>
      </trkpt>
      <trkpt lat="43.79302" lon="5.31546">
        <ele>470</ele>
        <time>2019-03-25T09:29:30Z</time>
      </trkpt>
      <trkpt lat="43.79306" lon="5.31535">
        <ele>470</ele>
        <time>2019-03-25T09:29:41Z</time>
      </trkpt>
      <trkpt lat="43.79307" lon="5.31521">
        <ele>472</ele>
        <time>2019-03-25T09:29:53Z</time>
      </trkpt>
      <trkpt lat="43.79303" lon="5.31509">
        <ele>473</ele>
        <time>2019-03-25T09:30:03Z</time>
      </trkpt>
      <trkpt lat="43.79298" lon="5.31499">
        <ele>474</ele>
        <time>2019-03-25T09:30:12Z</time>
      </trkpt>
      <trkpt lat="43.79289" lon="5.31493">
        <ele>473</ele>
        <time>2019-03-25T09:30:21Z</time>
      </trkpt>
      <trkpt lat="43.79282" lon="5.31485">
        <ele>474</ele>
        <time>2019-03-25T09:30:31Z</time>
      </trkpt>
      <trkpt lat="43.79275" lon="5.31475">
        <ele>475</ele>
        <time>2019-03-25T09:30:42Z</time>
      </trkpt>
      <trkpt lat="43.79269" lon="5.31466">
        <ele>478</ele>
        <time>2019-03-25T09:30:52Z</time>
      </trkpt>
      <trkpt lat="43.79264" lon="5.31455">
        <ele>477</ele>
        <time>2019-03-25T09:31:03Z</time>
      </trkpt>
      <trkpt lat="43.79257" lon="5.31448">
        <ele>480</ele>
        <time>2019-03-25T09:31:12Z</time>
      </trkpt>
      <trkpt lat="43.79253" lon="5.31436">
        <ele>483</ele>
        <time>2019-03-25T09:31:24Z</time>
      </trkpt>
      <trkpt lat="43.7925" lon="5.31423">
        <ele>484</ele>
        <time>2019-03-25T09:31:36Z</time>
      </trkpt>
      <trkpt lat="43.79246" lon="5.31412">
        <ele>486</ele>
        <time>2019-03-25T09:31:49Z</time>
      </trkpt>
      <trkpt lat="43.79245" lon="5.31398">
        <ele>487</ele>
        <time>2019-03-25T09:32:00Z</time>
      </trkpt>
      <trkpt lat="43.79244" lon="5.31385">
        <ele>487</ele>
        <time>2019-03-25T09:32:12Z</time>
      </trkpt>
      <trkpt lat="43.79245" lon="5.31372">
        <ele>489</ele>
        <time>2019-03-25T09:32:25Z</time>
      </trkpt>
      <trkpt lat="43.79245" lon="5.31359">
        <ele>490</ele>
        <time>2019-03-25T09:32:36Z</time>
      </trkpt>
      <trkpt lat="43.79243" lon="5.31347">
        <ele>491</ele>
        <time>2019-03-25T09:32:46Z</time>
      </trkpt>
      <trkpt lat="43.7924" lon="5.31335">
        <ele>494</ele>
        <time>2019-03-25T09:32:59Z</time>
      </trkpt>
      <trkpt lat="43.79242" lon="5.31322">
        <ele>496</ele>
        <time>2019-03-25T09:33:11Z</time>
      </trkpt>
      <trkpt lat="43.79249" lon="5.31329">
        <ele>502</ele>
        <time>2019-03-25T09:34:38Z</time>
      </trkpt>
      <trkpt lat="43.79256" lon="5.31339">
        <ele>501</ele>
        <time>2019-03-25T09:34:49Z</time>
      </trkpt>
      <trkpt lat="43.79264" lon="5.31345">
        <ele>500</ele>
        <time>2019-03-25T09:34:55Z</time>
      </trkpt>
      <trkpt lat="43.79271" lon="5.31354">
        <ele>500</ele>
        <time>2019-03-25T09:35:05Z</time>
      </trkpt>
      <trkpt lat="43.79277" lon="5.31364">
        <ele>499</ele>
        <time>2019-03-25T09:35:14Z</time>
      </trkpt>
      <trkpt lat="43.79284" lon="5.31374">
        <ele>500</ele>
        <time>2019-03-25T09:35:23Z</time>
      </trkpt>
      <trkpt lat="43.7929" lon="5.31384">
        <ele>500</ele>
        <time>2019-03-25T09:35:33Z</time>
      </trkpt>
      <trkpt lat="43.79296" lon="5.31392">
        <ele>500</ele>
        <time>2019-03-25T09:35:44Z</time>
      </trkpt>
      <trkpt lat="43.79303" lon="5.31402">
        <ele>500</ele>
        <time>2019-03-25T09:35:54Z</time>
      </trkpt>
      <trkpt lat="43.79311" lon="5.3141">
        <ele>501</ele>
        <time>2019-03-25T09:36:01Z</time>
      </trkpt>
      <trkpt lat="43.79317" lon="5.31419">
        <ele>501</ele>
        <time>2019-03-25T09:36:10Z</time>
      </trkpt>
      <trkpt lat="43.79324" lon="5.31427">
        <ele>502</ele>
        <time>2019-03-25T09:36:18Z</time>
      </trkpt>
      <trkpt lat="43.79332" lon="5.31435">
        <ele>501</ele>
        <time>2019-03-25T09:36:26Z</time>
      </trkpt>
      <trkpt lat="43.7934" lon="5.3144">
        <ele>502</ele>
        <time>2019-03-25T09:36:35Z</time>
      </trkpt>
      <trkpt lat="43.79349" lon="5.31433">
        <ele>504</ele>
        <time>2019-03-25T09:36:46Z</time>
      </trkpt>
      <trkpt lat="43.79355" lon="5.31424">
        <ele>506</ele>
        <time>2019-03-25T09:36:56Z</time>
      </trkpt>
      <trkpt lat="43.79362" lon="5.31413">
        <ele>508</ele>
        <time>2019-03-25T09:37:07Z</time>
      </trkpt>
      <trkpt lat="43.79367" lon="5.31403">
        <ele>508</ele>
        <time>2019-03-25T09:37:18Z</time>
      </trkpt>
      <trkpt lat="43.79371" lon="5.31392">
        <ele>510</ele>
        <time>2019-03-25T09:37:30Z</time>
      </trkpt>
      <trkpt lat="43.79378" lon="5.31383">
        <ele>510</ele>
        <time>2019-03-25T09:37:40Z</time>
      </trkpt>
      <trkpt lat="43.79383" lon="5.31372">
        <ele>511</ele>
        <time>2019-03-25T09:37:50Z</time>
      </trkpt>
      <trkpt lat="43.79392" lon="5.31366">
        <ele>512</ele>
        <time>2019-03-25T09:38:00Z</time>
      </trkpt>
      <trkpt lat="43.79399" lon="5.31358">
        <ele>513</ele>
        <time>2019-03-25T09:38:09Z</time>
      </trkpt>
      <trkpt lat="43.79406" lon="5.31348">
        <ele>514</ele>
        <time>2019-03-25T09:38:19Z</time>
      </trkpt>
      <trkpt lat="43.79415" lon="5.31343">
        <ele>515</ele>
        <time>2019-03-25T09:38:29Z</time>
      </trkpt>
      <trkpt lat="43.79424" lon="5.31338">
        <ele>516</ele>
        <time>2019-03-25T09:38:37Z</time>
      </trkpt>
      <trkpt lat="43.79432" lon="5.3133">
        <ele>517</ele>
        <time>2019-03-25T09:38:48Z</time>
      </trkpt>
      <trkpt lat="43.7944" lon="5.31322">
        <ele>520</ele>
        <time>2019-03-25T09:39:00Z</time>
      </trkpt>
      <trkpt lat="43.79448" lon="5.31316">
        <ele>521</ele>
        <time>2019-03-25T09:39:11Z</time>
      </trkpt>
      <trkpt lat="43.79456" lon="5.31309">
        <ele>523</ele>
        <time>2019-03-25T09:39:24Z</time>
      </trkpt>
      <trkpt lat="43.79464" lon="5.31301">
        <ele>524</ele>
        <time>2019-03-25T09:39:35Z</time>
      </trkpt>
      <trkpt lat="43.79472" lon="5.31294">
        <ele>524</ele>
        <time>2019-03-25T09:39:44Z</time>
      </trkpt>
      <trkpt lat="43.79481" lon="5.31289">
        <ele>524</ele>
        <time>2019-03-25T09:39:54Z</time>
      </trkpt>
      <trkpt lat="43.79489" lon="5.31284">
        <ele>524</ele>
        <time>2019-03-25T09:40:04Z</time>
      </trkpt>
      <trkpt lat="43.79498" lon="5.3128">
        <ele>525</ele>
        <time>2019-03-25T09:40:12Z</time>
      </trkpt>
      <trkpt lat="43.79508" lon="5.31278">
        <ele>526</ele>
        <time>2019-03-25T09:40:21Z</time>
      </trkpt>
      <trkpt lat="43.79517" lon="5.31275">
        <ele>526</ele>
        <time>2019-03-25T09:40:28Z</time>
      </trkpt>
      <trkpt lat="43.79524" lon="5.31267">
        <ele>526</ele>
        <time>2019-03-25T09:40:35Z</time>
      </trkpt>
      <trkpt lat="43.79532" lon="5.31258">
        <ele>527</ele>
        <time>2019-03-25T09:40:48Z</time>
      </trkpt>
      <trkpt lat="43.79539" lon="5.31249">
        <ele>527</ele>
        <time>2019-03-25T09:40:56Z</time>
      </trkpt>
      <trkpt lat="43.79545" lon="5.3124">
        <ele>527</ele>
        <time>2019-03-25T09:41:04Z</time>
      </trkpt>
      <trkpt lat="43.79553" lon="5.31232">
        <ele>528</ele>
        <time>2019-03-25T09:41:12Z</time>
      </trkpt>
      <trkpt lat="43.79561" lon="5.31224">
        <ele>528</ele>
        <time>2019-03-25T09:41:22Z</time>
      </trkpt>
      <trkpt lat="43.79563" lon="5.31212">
        <ele>529</ele>
        <time>2019-03-25T09:41:31Z</time>
      </trkpt>
      <trkpt lat="43.79554" lon="5.3121">
        <ele>529</ele>
        <time>2019-03-25T09:41:40Z</time>
      </trkpt>
      <trkpt lat="43.79545" lon="5.31204">
        <ele>529</ele>
        <time>2019-03-25T09:41:52Z</time>
      </trkpt>
      <trkpt lat="43.79537" lon="5.31198">
        <ele>530</ele>
        <time>2019-03-25T09:42:01Z</time>
      </trkpt>
      <trkpt lat="43.79531" lon="5.31189">
        <ele>532</ele>
        <time>2019-03-25T09:42:27Z</time>
      </trkpt>
      <trkpt lat="43.79527" lon="5.31177">
        <ele>532</ele>
        <time>2019-03-25T09:42:40Z</time>
      </trkpt>
      <trkpt lat="43.79525" lon="5.31164">
        <ele>533</ele>
        <time>2019-03-25T09:42:50Z</time>
      </trkpt>
      <trkpt lat="43.79528" lon="5.31152">
        <ele>535</ele>
        <time>2019-03-25T09:42:59Z</time>
      </trkpt>
      <trkpt lat="43.79535" lon="5.31144">
        <ele>536</ele>
        <time>2019-03-25T09:43:09Z</time>
      </trkpt>
      <trkpt lat="43.79544" lon="5.31137">
        <ele>536</ele>
        <time>2019-03-25T09:43:18Z</time>
      </trkpt>
      <trkpt lat="43.79552" lon="5.31131">
        <ele>535</ele>
        <time>2019-03-25T09:43:27Z</time>
      </trkpt>
      <trkpt lat="43.7956" lon="5.31124">
        <ele>536</ele>
        <time>2019-03-25T09:43:36Z</time>
      </trkpt>
      <trkpt lat="43.79569" lon="5.31118">
        <ele>535</ele>
        <time>2019-03-25T09:43:44Z</time>
      </trkpt>
      <trkpt lat="43.79578" lon="5.31112">
        <ele>535</ele>
        <time>2019-03-25T09:43:50Z</time>
      </trkpt>
      <trkpt lat="43.79586" lon="5.31107">
        <ele>535</ele>
        <time>2019-03-25T09:43:57Z</time>
      </trkpt>
      <trkpt lat="43.79592" lon="5.31097">
        <ele>535</ele>
        <time>2019-03-25T09:44:04Z</time>
      </trkpt>
      <trkpt lat="43.79593" lon="5.31084">
        <ele>535</ele>
        <time>2019-03-25T09:44:12Z</time>
      </trkpt>
      <trkpt lat="43.79592" lon="5.3107">
        <ele>537</ele>
        <time>2019-03-25T09:44:21Z</time>
      </trkpt>
      <trkpt lat="43.79596" lon="5.31058">
        <ele>539</ele>
        <time>2019-03-25T09:44:31Z</time>
      </trkpt>
      <trkpt lat="43.79603" lon="5.3105">
        <ele>540</ele>
        <time>2019-03-25T09:44:41Z</time>
      </trkpt>
      <trkpt lat="43.79611" lon="5.31043">
        <ele>541</ele>
        <time>2019-03-25T09:44:50Z</time>
      </trkpt>
      <trkpt lat="43.79619" lon="5.31034">
        <ele>542</ele>
        <time>2019-03-25T09:44:59Z</time>
      </trkpt>
      <trkpt lat="43.79626" lon="5.31024">
        <ele>542</ele>
        <time>2019-03-25T09:45:08Z</time>
      </trkpt>
      <trkpt lat="43.79631" lon="5.31013">
        <ele>543</ele>
        <time>2019-03-25T09:45:17Z</time>
      </trkpt>
      <trkpt lat="43.79635" lon="5.31001">
        <ele>543</ele>
        <time>2019-03-25T09:45:25Z</time>
      </trkpt>
      <trkpt lat="43.79638" lon="5.30989">
        <ele>544</ele>
        <time>2019-03-25T09:45:33Z</time>
      </trkpt>
      <trkpt lat="43.79637" lon="5.30976">
        <ele>545</ele>
        <time>2019-03-25T09:45:42Z</time>
      </trkpt>
      <trkpt lat="43.79639" lon="5.30964">
        <ele>546</ele>
        <time>2019-03-25T09:45:52Z</time>
      </trkpt>
      <trkpt lat="43.79641" lon="5.30952">
        <ele>546</ele>
        <time>2019-03-25T09:46:01Z</time>
      </trkpt>
      <trkpt lat="43.79643" lon="5.30939">
        <ele>547</ele>
        <time>2019-03-25T09:46:10Z</time>
      </trkpt>
      <trkpt lat="43.79647" lon="5.30926">
        <ele>549</ele>
        <time>2019-03-25T09:46:19Z</time>
      </trkpt>
      <trkpt lat="43.79654" lon="5.30917">
        <ele>549</ele>
        <time>2019-03-25T09:46:28Z</time>
      </trkpt>
      <trkpt lat="43.79661" lon="5.30908">
        <ele>549</ele>
        <time>2019-03-25T09:46:38Z</time>
      </trkpt>
      <trkpt lat="43.79668" lon="5.30897">
        <ele>550</ele>
        <time>2019-03-25T09:46:48Z</time>
      </trkpt>
      <trkpt lat="43.79675" lon="5.3089">
        <ele>550</ele>
        <time>2019-03-25T09:46:56Z</time>
      </trkpt>
      <trkpt lat="43.79684" lon="5.30885">
        <ele>550</ele>
        <time>2019-03-25T09:47:03Z</time>
      </trkpt>
      <trkpt lat="43.79691" lon="5.30877">
        <ele>549</ele>
        <time>2019-03-25T09:47:10Z</time>
      </trkpt>
      <trkpt lat="43.79694" lon="5.30864">
        <ele>549</ele>
        <time>2019-03-25T09:47:17Z</time>
      </trkpt>
      <trkpt lat="43.79695" lon="5.3085">
        <ele>550</ele>
        <time>2019-03-25T09:47:24Z</time>
      </trkpt>
      <trkpt lat="43.79698" lon="5.30837">
        <ele>550</ele>
        <time>2019-03-25T09:47:32Z</time>
      </trkpt>
      <trkpt lat="43.79698" lon="5.30824">
        <ele>550</ele>
        <time>2019-03-25T09:47:40Z</time>
      </trkpt>
      <trkpt lat="43.79698" lon="5.30811">
        <ele>551</ele>
        <time>2019-03-25T09:47:48Z</time>
      </trkpt>
      <trkpt lat="43.79694" lon="5.30799">
        <ele>552</ele>
        <time>2019-03-25T09:47:55Z</time>
      </trkpt>
      <trkpt lat="43.7969" lon="5.30787">
        <ele>553</ele>
        <time>2019-03-25T09:48:03Z</time>
      </trkpt>
      <trkpt lat="43.79686" lon="5.30776">
        <ele>555</ele>
        <time>2019-03-25T09:48:11Z</time>
      </trkpt>
      <trkpt lat="43.79682" lon="5.30764">
        <ele>555</ele>
        <time>2019-03-25T09:48:18Z</time>
      </trkpt>
      <trkpt lat="43.79681" lon="5.30751">
        <ele>555</ele>
        <time>2019-03-25T09:48:27Z</time>
      </trkpt>
      <trkpt lat="43.79681" lon="5.30737">
        <ele>555</ele>
        <time>2019-03-25T09:48:35Z</time>
      </trkpt>
      <trkpt lat="43.79682" lon="5.30724">
        <ele>554</ele>
        <time>2019-03-25T09:48:42Z</time>
      </trkpt>
      <trkpt lat="43.79682" lon="5.3071">
        <ele>554</ele>
        <time>2019-03-25T09:48:50Z</time>
      </trkpt>
      <trkpt lat="43.79681" lon="5.30697">
        <ele>554</ele>
        <time>2019-03-25T09:48:58Z</time>
      </trkpt>
      <trkpt lat="43.79683" lon="5.30684">
        <ele>554</ele>
        <time>2019-03-25T09:49:05Z</time>
      </trkpt>
      <trkpt lat="43.79686" lon="5.30672">
        <ele>554</ele>
        <time>2019-03-25T09:49:12Z</time>
      </trkpt>
      <trkpt lat="43.79686" lon="5.30659">
        <ele>554</ele>
        <time>2019-03-25T09:49:21Z</time>
      </trkpt>
      <trkpt lat="43.79685" lon="5.30645">
        <ele>554</ele>
        <time>2019-03-25T09:49:30Z</time>
      </trkpt>
      <trkpt lat="43.79691" lon="5.30634">
        <ele>554</ele>
        <time>2019-03-25T09:49:40Z</time>
      </trkpt>
      <trkpt lat="43.79699" lon="5.30628">
        <ele>554</ele>
        <time>2019-03-25T09:49:47Z</time>
      </trkpt>
      <trkpt lat="43.79708" lon="5.30622">
        <ele>558</ele>
        <time>2019-03-25T09:49:55Z</time>
      </trkpt>
      <trkpt lat="43.79716" lon="5.30615">
        <ele>558</ele>
        <time>2019-03-25T09:50:01Z</time>
      </trkpt>
      <trkpt lat="43.79725" lon="5.30609">
        <ele>556</ele>
        <time>2019-03-25T09:50:08Z</time>
      </trkpt>
      <trkpt lat="43.79733" lon="5.30602">
        <ele>557</ele>
        <time>2019-03-25T09:50:16Z</time>
      </trkpt>
      <trkpt lat="43.79742" lon="5.30594">
        <ele>558</ele>
        <time>2019-03-25T09:50:23Z</time>
      </trkpt>
      <trkpt lat="43.7975" lon="5.30588">
        <ele>559</ele>
        <time>2019-03-25T09:50:29Z</time>
      </trkpt>
      <trkpt lat="43.79759" lon="5.30583">
        <ele>557</ele>
        <time>2019-03-25T09:50:38Z</time>
      </trkpt>
      <trkpt lat="43.79768" lon="5.30576">
        <ele>558</ele>
        <time>2019-03-25T09:50:46Z</time>
      </trkpt>
      <trkpt lat="43.79776" lon="5.30569">
        <ele>557</ele>
        <time>2019-03-25T09:50:56Z</time>
      </trkpt>
      <trkpt lat="43.79785" lon="5.30564">
        <ele>557</ele>
        <time>2019-03-25T09:51:03Z</time>
      </trkpt>
      <trkpt lat="43.79794" lon="5.3056">
        <ele>558</ele>
        <time>2019-03-25T09:51:11Z</time>
      </trkpt>
      <trkpt lat="43.79804" lon="5.30558">
        <ele>558</ele>
        <time>2019-03-25T09:51:19Z</time>
      </trkpt>
      <trkpt lat="43.79813" lon="5.3056">
        <ele>562</ele>
        <time>2019-03-25T09:51:28Z</time>
      </trkpt>
      <trkpt lat="43.79822" lon="5.30559">
        <ele>561</ele>
        <time>2019-03-25T09:51:33Z</time>
      </trkpt>
      <trkpt lat="43.7983" lon="5.3055">
        <ele>561</ele>
        <time>2019-03-25T09:51:40Z</time>
      </trkpt>
      <trkpt lat="43.7984" lon="5.30545">
        <ele>562</ele>
        <time>2019-03-25T09:51:48Z</time>
      </trkpt>
      <trkpt lat="43.7985" lon="5.30546">
        <ele>563</ele>
        <time>2019-03-25T09:51:56Z</time>
      </trkpt>
      <trkpt lat="43.79859" lon="5.30545">
        <ele>565</ele>
        <time>2019-03-25T09:52:04Z</time>
      </trkpt>
      <trkpt lat="43.79868" lon="5.30538">
        <ele>564</ele>
        <time>2019-03-25T09:52:13Z</time>
      </trkpt>
      <trkpt lat="43.79876" lon="5.30532">
        <ele>563</ele>
        <time>2019-03-25T09:52:20Z</time>
      </trkpt>
      <trkpt lat="43.79886" lon="5.30534">
        <ele>565</ele>
        <time>2019-03-25T09:52:30Z</time>
      </trkpt>
      <trkpt lat="43.79895" lon="5.30534">
        <ele>564</ele>
        <time>2019-03-25T09:52:39Z</time>
      </trkpt>
      <trkpt lat="43.79904" lon="5.3053">
        <ele>566</ele>
        <time>2019-03-25T09:52:48Z</time>
      </trkpt>
      <trkpt lat="43.79913" lon="5.30526">
        <ele>565</ele>
        <time>2019-03-25T09:52:57Z</time>
      </trkpt>
      <trkpt lat="43.79922" lon="5.30522">
        <ele>562</ele>
        <time>2019-03-25T09:53:06Z</time>
      </trkpt>
      <trkpt lat="43.79932" lon="5.30517">
        <ele>563</ele>
        <time>2019-03-25T09:53:14Z</time>
      </trkpt>
      <trkpt lat="43.79937" lon="5.30506">
        <ele>564</ele>
        <time>2019-03-25T09:53:23Z</time>
      </trkpt>
      <trkpt lat="43.79935" lon="5.30493">
        <ele>564</ele>
        <time>2019-03-25T09:53:31Z</time>
      </trkpt>
      <trkpt lat="43.79935" lon="5.30479">
        <ele>565</ele>
        <time>2019-03-25T09:53:40Z</time>
      </trkpt>
      <trkpt lat="43.79934" lon="5.30466">
        <ele>564</ele>
        <time>2019-03-25T09:53:49Z</time>
      </trkpt>
      <trkpt lat="43.7994" lon="5.30457">
        <ele>565</ele>
        <time>2019-03-25T09:54:01Z</time>
      </trkpt>
      <trkpt lat="43.79947" lon="5.30447">
        <ele>564</ele>
        <time>2019-03-25T09:54:10Z</time>
      </trkpt>
      <trkpt lat="43.7995" lon="5.30434">
        <ele>563</ele>
        <time>2019-03-25T09:54:17Z</time>
      </trkpt>
      <trkpt lat="43.79954" lon="5.30423">
        <ele>562</ele>
        <time>2019-03-25T09:54:25Z</time>
      </trkpt>
      <trkpt lat="43.79962" lon="5.30416">
        <ele>563</ele>
        <time>2019-03-25T09:54:33Z</time>
      </trkpt>
      <trkpt lat="43.7997" lon="5.30408">
        <ele>563</ele>
        <time>2019-03-25T09:54:40Z</time>
      </trkpt>
      <trkpt lat="43.79977" lon="5.30398">
        <ele>563</ele>
        <time>2019-03-25T09:54:47Z</time>
      </trkpt>
      <trkpt lat="43.79985" lon="5.30389">
        <ele>565</ele>
        <time>2019-03-25T09:54:54Z</time>
      </trkpt>
      <trkpt lat="43.79993" lon="5.3038">
        <ele>567</ele>
        <time>2019-03-25T09:55:01Z</time>
      </trkpt>
      <trkpt lat="43.79998" lon="5.30369">
        <ele>568</ele>
        <time>2019-03-25T09:55:08Z</time>
      </trkpt>
      <trkpt lat="43.80003" lon="5.30357">
        <ele>568</ele>
        <time>2019-03-25T09:55:16Z</time>
      </trkpt>
      <trkpt lat="43.8001" lon="5.30347">
        <ele>568</ele>
        <time>2019-03-25T09:55:24Z</time>
      </trkpt>
      <trkpt lat="43.80015" lon="5.30334">
        <ele>568</ele>
        <time>2019-03-25T09:55:32Z</time>
      </trkpt>
      <trkpt lat="43.80024" lon="5.30333">
        <ele>568</ele>
        <time>2019-03-25T09:55:40Z</time>
      </trkpt>
      <trkpt lat="43.80032" lon="5.30326">
        <ele>568</ele>
        <time>2019-03-25T09:55:59Z</time>
      </trkpt>
      <trkpt lat="43.80034" lon="5.30314">
        <ele>570</ele>
        <time>2019-03-25T10:00:13Z</time>
      </trkpt>
      <trkpt lat="43.80036" lon="5.30301">
        <ele>571</ele>
        <time>2019-03-25T10:00:24Z</time>
      </trkpt>
      <trkpt lat="43.80033" lon="5.30289">
        <ele>571</ele>
        <time>2019-03-25T10:00:40Z</time>
      </trkpt>
      <trkpt lat="43.80026" lon="5.3028">
        <ele>571</ele>
        <time>2019-03-25T10:00:46Z</time>
      </trkpt>
      <trkpt lat="43.80018" lon="5.30272">
        <ele>571</ele>
        <time>2019-03-25T10:00:53Z</time>
      </trkpt>
      <trkpt lat="43.80011" lon="5.30263">
        <ele>570</ele>
        <time>2019-03-25T10:01:00Z</time>
      </trkpt>
      <trkpt lat="43.80003" lon="5.30255">
        <ele>569</ele>
        <time>2019-03-25T10:01:08Z</time>
      </trkpt>
      <trkpt lat="43.8" lon="5.30242">
        <ele>569</ele>
        <time>2019-03-25T10:01:16Z</time>
      </trkpt>
      <trkpt lat="43.80001" lon="5.30228">
        <ele>569</ele>
        <time>2019-03-25T10:01:23Z</time>
      </trkpt>
      <trkpt lat="43.80008" lon="5.30204">
        <ele>567</ele>
        <time>2019-03-25T10:01:37Z</time>
      </trkpt>
      <trkpt lat="43.80015" lon="5.30179">
        <ele>565</ele>
        <time>2019-03-25T10:01:53Z</time>
      </trkpt>
      <trkpt lat="43.80023" lon="5.30174">
        <ele>564</ele>
        <time>2019-03-25T10:01:59Z</time>
      </trkpt>
      <trkpt lat="43.80032" lon="5.30173">
        <ele>564</ele>
        <time>2019-03-25T10:02:05Z</time>
      </trkpt>
      <trkpt lat="43.80042" lon="5.30169">
        <ele>563</ele>
        <time>2019-03-25T10:02:12Z</time>
      </trkpt>
      <trkpt lat="43.8005" lon="5.30163">
        <ele>562</ele>
        <time>2019-03-25T10:02:19Z</time>
      </trkpt>
      <trkpt lat="43.8006" lon="5.30163">
        <ele>561</ele>
        <time>2019-03-25T10:02:27Z</time>
      </trkpt>
      <trkpt lat="43.8007" lon="5.30163">
        <ele>560</ele>
        <time>2019-03-25T10:02:36Z</time>
      </trkpt>
      <trkpt lat="43.8008" lon="5.30161">
        <ele>559</ele>
        <time>2019-03-25T10:02:46Z</time>
      </trkpt>
      <trkpt lat="43.80088" lon="5.30154">
        <ele>558</ele>
        <time>2019-03-25T10:02:55Z</time>
      </trkpt>
      <trkpt lat="43.80096" lon="5.30146">
        <ele>555</ele>
        <time>2019-03-25T10:03:03Z</time>
      </trkpt>
      <trkpt lat="43.80105" lon="5.30142">
        <ele>555</ele>
        <time>2019-03-25T10:03:11Z</time>
      </trkpt>
      <trkpt lat="43.80114" lon="5.30138">
        <ele>553</ele>
        <time>2019-03-25T10:03:19Z</time>
      </trkpt>
      <trkpt lat="43.80122" lon="5.30131">
        <ele>553</ele>
        <time>2019-03-25T10:03:26Z</time>
      </trkpt>
      <trkpt lat="43.80132" lon="5.30127">
        <ele>552</ele>
        <time>2019-03-25T10:03:34Z</time>
      </trkpt>
      <trkpt lat="43.8014" lon="5.3012">
        <ele>548</ele>
        <time>2019-03-25T10:03:45Z</time>
      </trkpt>
      <trkpt lat="43.80148" lon="5.30113">
        <ele>547</ele>
        <time>2019-03-25T10:03:53Z</time>
      </trkpt>
      <trkpt lat="43.80157" lon="5.30114">
        <ele>546</ele>
        <time>2019-03-25T10:04:01Z</time>
      </trkpt>
      <trkpt lat="43.80167" lon="5.30113">
        <ele>545</ele>
        <time>2019-03-25T10:04:08Z</time>
      </trkpt>
      <trkpt lat="43.80177" lon="5.30111">
        <ele>546</ele>
        <time>2019-03-25T10:04:15Z</time>
      </trkpt>
      <trkpt lat="43.80186" lon="5.3011">
        <ele>545</ele>
        <time>2019-03-25T10:04:22Z</time>
      </trkpt>
      <trkpt lat="43.80196" lon="5.30108">
        <ele>543</ele>
        <time>2019-03-25T10:04:31Z</time>
      </trkpt>
      <trkpt lat="43.80205" lon="5.30108">
        <ele>543</ele>
        <time>2019-03-25T10:04:38Z</time>
      </trkpt>
      <trkpt lat="43.80215" lon="5.30111">
        <ele>543</ele>
        <time>2019-03-25T10:04:45Z</time>
      </trkpt>
      <trkpt lat="43.80223" lon="5.30116">
        <ele>543</ele>
        <time>2019-03-25T10:04:52Z</time>
      </trkpt>
      <trkpt lat="43.80233" lon="5.30123">
        <ele>543</ele>
        <time>2019-03-25T10:05:00Z</time>
      </trkpt>
      <trkpt lat="43.80242" lon="5.30126">
        <ele>543</ele>
        <time>2019-03-25T10:05:08Z</time>
      </trkpt>
      <trkpt lat="43.80251" lon="5.30128">
        <ele>541</ele>
        <time>2019-03-25T10:05:18Z</time>
      </trkpt>
      <trkpt lat="43.8026" lon="5.30124">
        <ele>538</ele>
        <time>2019-03-25T10:05:29Z</time>
      </trkpt>
      <trkpt lat="43.80264" lon="5.30112">
        <ele>533</ele>
        <time>2019-03-25T10:05:40Z</time>
      </trkpt>
      <trkpt lat="43.80268" lon="5.301">
        <ele>531</ele>
        <time>2019-03-25T10:05:50Z</time>
      </trkpt>
      <trkpt lat="43.80258" lon="5.30098">
        <ele>529</ele>
        <time>2019-03-25T10:06:00Z</time>
      </trkpt>
      <trkpt lat="43.80248" lon="5.30102">
        <ele>529</ele>
        <time>2019-03-25T10:06:07Z</time>
      </trkpt>
      <trkpt lat="43.80238" lon="5.30102">
        <ele>528</ele>
        <time>2019-03-25T10:06:14Z</time>
      </trkpt>
      <trkpt lat="43.8023" lon="5.30095">
        <ele>527</ele>
        <time>2019-03-25T10:06:21Z</time>
      </trkpt>
      <trkpt lat="43.80222" lon="5.30087">
        <ele>526</ele>
        <time>2019-03-25T10:06:28Z</time>
      </trkpt>
      <trkpt lat="43.80215" lon="5.30077">
        <ele>525</ele>
        <time>2019-03-25T10:06:35Z</time>
      </trkpt>
      <trkpt lat="43.80208" lon="5.30068">
        <ele>525</ele>
        <time>2019-03-25T10:06:43Z</time>
      </trkpt>
      <trkpt lat="43.80199" lon="5.30061">
        <ele>524</ele>
        <time>2019-03-25T10:06:51Z</time>
      </trkpt>
      <trkpt lat="43.8019" lon="5.30054">
        <ele>523</ele>
        <time>2019-03-25T10:06:59Z</time>
      </trkpt>
      <trkpt lat="43.80181" lon="5.30052">
        <ele>522</ele>
        <time>2019-03-25T10:07:06Z</time>
      </trkpt>
      <trkpt lat="43.80171" lon="5.30052">
        <ele>522</ele>
        <time>2019-03-25T10:07:13Z</time>
      </trkpt>
      <trkpt lat="43.80161" lon="5.30049">
        <ele>521</ele>
        <time>2019-03-25T10:07:21Z</time>
      </trkpt>
      <trkpt lat="43.80151" lon="5.30048">
        <ele>520</ele>
        <time>2019-03-25T10:07:28Z</time>
      </trkpt>
      <trkpt lat="43.80141" lon="5.30046">
        <ele>520</ele>
        <time>2019-03-25T10:07:36Z</time>
      </trkpt>
      <trkpt lat="43.80131" lon="5.30043">
        <ele>519</ele>
        <time>2019-03-25T10:07:44Z</time>
      </trkpt>
      <trkpt lat="43.80122" lon="5.30037">
        <ele>518</ele>
        <time>2019-03-25T10:07:53Z</time>
      </trkpt>
      <trkpt lat="43.80113" lon="5.3003">
        <ele>518</ele>
        <time>2019-03-25T10:08:00Z</time>
      </trkpt>
      <trkpt lat="43.80103" lon="5.30027">
        <ele>516</ele>
        <time>2019-03-25T10:08:09Z</time>
      </trkpt>
      <trkpt lat="43.80094" lon="5.30031">
        <ele>515</ele>
        <time>2019-03-25T10:08:17Z</time>
      </trkpt>
      <trkpt lat="43.80085" lon="5.30039">
        <ele>514</ele>
        <time>2019-03-25T10:08:23Z</time>
      </trkpt>
      <trkpt lat="43.80075" lon="5.30039">
        <ele>514</ele>
        <time>2019-03-25T10:08:31Z</time>
      </trkpt>
      <trkpt lat="43.80065" lon="5.30038">
        <ele>513</ele>
        <time>2019-03-25T10:08:39Z</time>
      </trkpt>
      <trkpt lat="43.80056" lon="5.30034">
        <ele>512</ele>
        <time>2019-03-25T10:08:46Z</time>
      </trkpt>
      <trkpt lat="43.80047" lon="5.30035">
        <ele>512</ele>
        <time>2019-03-25T10:08:54Z</time>
      </trkpt>
      <trkpt lat="43.80038" lon="5.30031">
        <ele>511</ele>
        <time>2019-03-25T10:09:01Z</time>
      </trkpt>
      <trkpt lat="43.8003" lon="5.30024">
        <ele>510</ele>
        <time>2019-03-25T10:09:08Z</time>
      </trkpt>
      <trkpt lat="43.80022" lon="5.30017">
        <ele>509</ele>
        <time>2019-03-25T10:09:15Z</time>
      </trkpt>
      <trkpt lat="43.80014" lon="5.3001">
        <ele>508</ele>
        <time>2019-03-25T10:09:22Z</time>
      </trkpt>
      <trkpt lat="43.80007" lon="5.29999">
        <ele>508</ele>
        <time>2019-03-25T10:09:29Z</time>
      </trkpt>
      <trkpt lat="43.8" lon="5.29989">
        <ele>507</ele>
        <time>2019-03-25T10:09:36Z</time>
      </trkpt>
      <trkpt lat="43.79993" lon="5.29981">
        <ele>507</ele>
        <time>2019-03-25T10:09:43Z</time>
      </trkpt>
      <trkpt lat="43.79984" lon="5.29977">
        <ele>506</ele>
        <time>2019-03-25T10:09:50Z</time>
      </trkpt>
      <trkpt lat="43.79975" lon="5.29975">
        <ele>504</ele>
        <time>2019-03-25T10:09:58Z</time>
      </trkpt>
      <trkpt lat="43.79966" lon="5.29975">
        <ele>502</ele>
        <time>2019-03-25T10:10:07Z</time>
      </trkpt>
      <trkpt lat="43.79957" lon="5.2998">
        <ele>500</ele>
        <time>2019-03-25T10:10:16Z</time>
      </trkpt>
      <trkpt lat="43.7995" lon="5.29988">
        <ele>499</ele>
        <time>2019-03-25T10:10:23Z</time>
      </trkpt>
      <trkpt lat="43.79941" lon="5.29993">
        <ele>498</ele>
        <time>2019-03-25T10:10:30Z</time>
      </trkpt>
      <trkpt lat="43.79931" lon="5.29996">
        <ele>496</ele>
        <time>2019-03-25T10:10:39Z</time>
      </trkpt>
      <trkpt lat="43.79923" lon="5.30005">
        <ele>494</ele>
        <time>2019-03-25T10:10:47Z</time>
      </trkpt>
      <trkpt lat="43.79915" lon="5.30012">
        <ele>493</ele>
        <time>2019-03-25T10:10:55Z</time>
      </trkpt>
      <trkpt lat="43.79906" lon="5.3002">
        <ele>492</ele>
        <time>2019-03-25T10:11:03Z</time>
      </trkpt>
      <trkpt lat="43.79898" lon="5.30027">
        <ele>491</ele>
        <time>2019-03-25T10:11:09Z</time>
      </trkpt>
      <trkpt lat="43.79891" lon="5.30035">
        <ele>489</ele>
        <time>2019-03-25T10:11:16Z</time>
      </trkpt>
      <trkpt lat="43.79884" lon="5.30045">
        <ele>488</ele>
        <time>2019-03-25T10:11:23Z</time>
      </trkpt>
      <trkpt lat="43.79878" lon="5.30055">
        <ele>487</ele>
        <time>2019-03-25T10:11:30Z</time>
      </trkpt>
      <trkpt lat="43.79875" lon="5.30067">
        <ele>487</ele>
        <time>2019-03-25T10:11:37Z</time>
      </trkpt>
      <trkpt lat="43.79873" lon="5.3008">
        <ele>486</ele>
        <time>2019-03-25T10:11:44Z</time>
      </trkpt>
      <trkpt lat="43.7987" lon="5.30093">
        <ele>486</ele>
        <time>2019-03-25T10:11:52Z</time>
      </trkpt>
      <trkpt lat="43.79864" lon="5.30103">
        <ele>486</ele>
        <time>2019-03-25T10:12:00Z</time>
      </trkpt>
      <trkpt lat="43.79858" lon="5.30114">
        <ele>485</ele>
        <time>2019-03-25T10:12:09Z</time>
      </trkpt>
      <trkpt lat="43.79849" lon="5.3012">
        <ele>484</ele>
        <time>2019-03-25T10:12:17Z</time>
      </trkpt>
      <trkpt lat="43.7984" lon="5.30125">
        <ele>484</ele>
        <time>2019-03-25T10:12:24Z</time>
      </trkpt>
      <trkpt lat="43.79831" lon="5.30131">
        <ele>484</ele>
        <time>2019-03-25T10:12:33Z</time>
      </trkpt>
      <trkpt lat="43.79822" lon="5.30133">
        <ele>483</ele>
        <time>2019-03-25T10:12:40Z</time>
      </trkpt>
      <trkpt lat="43.79813" lon="5.30136">
        <ele>482</ele>
        <time>2019-03-25T10:12:47Z</time>
      </trkpt>
      <trkpt lat="43.79803" lon="5.30139">
        <ele>482</ele>
        <time>2019-03-25T10:12:54Z</time>
      </trkpt>
      <trkpt lat="43.79793" lon="5.30139">
        <ele>482</ele>
        <time>2019-03-25T10:13:01Z</time>
      </trkpt>
      <trkpt lat="43.79785" lon="5.30137">
        <ele>480</ele>
        <time>2019-03-25T10:13:10Z</time>
      </trkpt>
      <trkpt lat="43.79775" lon="5.30132">
        <ele>479</ele>
        <time>2019-03-25T10:13:18Z</time>
      </trkpt>
      <trkpt lat="43.79766" lon="5.30129">
        <ele>478</ele>
        <time>2019-03-25T10:13:26Z</time>
      </trkpt>
      <trkpt lat="43.79757" lon="5.30126">
        <ele>476</ele>
        <time>2019-03-25T10:13:34Z</time>
      </trkpt>
      <trkpt lat="43.79746" lon="5.30126">
        <ele>475</ele>
        <time>2019-03-25T10:13:41Z</time>
      </trkpt>
      <trkpt lat="43.79737" lon="5.30125">
        <ele>474</ele>
        <time>2019-03-25T10:13:48Z</time>
      </trkpt>
      <trkpt lat="43.79727" lon="5.30125">
        <ele>472</ele>
        <time>2019-03-25T10:13:56Z</time>
      </trkpt>
      <trkpt lat="43.79717" lon="5.30125">
        <ele>470</ele>
        <time>2019-03-25T10:14:05Z</time>
      </trkpt>
      <trkpt lat="43.79708" lon="5.30122">
        <ele>469</ele>
        <time>2019-03-25T10:14:13Z</time>
      </trkpt>
      <trkpt lat="43.797" lon="5.30116">
        <ele>469</ele>
        <time>2019-03-25T10:14:23Z</time>
      </trkpt>
      <trkpt lat="43.79691" lon="5.30112">
        <ele>468</ele>
        <time>2019-03-25T10:14:30Z</time>
      </trkpt>
      <trkpt lat="43.79684" lon="5.30103">
        <ele>468</ele>
        <time>2019-03-25T10:14:36Z</time>
      </trkpt>
      <trkpt lat="43.79677" lon="5.30093">
        <ele>468</ele>
        <time>2019-03-25T10:14:42Z</time>
      </trkpt>
      <trkpt lat="43.79673" lon="5.30081">
        <ele>468</ele>
        <time>2019-03-25T10:14:49Z</time>
      </trkpt>
      <trkpt lat="43.79676" lon="5.30068">
        <ele>468</ele>
        <time>2019-03-25T10:14:56Z</time>
      </trkpt>
      <trkpt lat="43.79674" lon="5.30056">
        <ele>467</ele>
        <time>2019-03-25T10:15:06Z</time>
      </trkpt>
      <trkpt lat="43.79667" lon="5.30046">
        <ele>465</ele>
        <time>2019-03-25T10:15:14Z</time>
      </trkpt>
      <trkpt lat="43.79659" lon="5.30039">
        <ele>463</ele>
        <time>2019-03-25T10:15:24Z</time>
      </trkpt>
      <trkpt lat="43.7965" lon="5.30037">
        <ele>460</ele>
        <time>2019-03-25T10:15:29Z</time>
      </trkpt>
      <trkpt lat="43.79642" lon="5.30044">
        <ele>459</ele>
        <time>2019-03-25T10:15:44Z</time>
      </trkpt>
      <trkpt lat="43.79633" lon="5.3005">
        <ele>457</ele>
        <time>2019-03-25T10:15:54Z</time>
      </trkpt>
      <trkpt lat="43.79624" lon="5.30056">
        <ele>456</ele>
        <time>2019-03-25T10:16:02Z</time>
      </trkpt>
      <trkpt lat="43.79615" lon="5.30063">
        <ele>456</ele>
        <time>2019-03-25T10:16:10Z</time>
      </trkpt>
      <trkpt lat="43.79607" lon="5.30069">
        <ele>455</ele>
        <time>2019-03-25T10:16:19Z</time>
      </trkpt>
      <trkpt lat="43.79598" lon="5.30074">
        <ele>455</ele>
        <time>2019-03-25T10:16:28Z</time>
      </trkpt>
      <trkpt lat="43.79591" lon="5.30082">
        <ele>454</ele>
        <time>2019-03-25T10:16:36Z</time>
      </trkpt>
      <trkpt lat="43.79585" lon="5.30093">
        <ele>453</ele>
        <time>2019-03-25T10:16:43Z</time>
      </trkpt>
      <trkpt lat="43.79579" lon="5.30104">
        <ele>454</ele>
        <time>2019-03-25T10:16:53Z</time>
      </trkpt>
      <trkpt lat="43.79569" lon="5.30108">
        <ele>453</ele>
        <time>2019-03-25T10:17:03Z</time>
      </trkpt>
      <trkpt lat="43.7956" lon="5.30107">
        <ele>453</ele>
        <time>2019-03-25T10:17:08Z</time>
      </trkpt>
      <trkpt lat="43.79551" lon="5.30104">
        <ele>451</ele>
        <time>2019-03-25T10:17:15Z</time>
      </trkpt>
      <trkpt lat="43.79542" lon="5.30098">
        <ele>451</ele>
        <time>2019-03-25T10:17:21Z</time>
      </trkpt>
      <trkpt lat="43.79536" lon="5.30087">
        <ele>450</ele>
        <time>2019-03-25T10:17:28Z</time>
      </trkpt>
      <trkpt lat="43.79531" lon="5.30076">
        <ele>449</ele>
        <time>2019-03-25T10:17:34Z</time>
      </trkpt>
      <trkpt lat="43.79527" lon="5.30064">
        <ele>448</ele>
        <time>2019-03-25T10:17:41Z</time>
      </trkpt>
      <trkpt lat="43.79525" lon="5.30051">
        <ele>448</ele>
        <time>2019-03-25T10:17:48Z</time>
      </trkpt>
      <trkpt lat="43.79519" lon="5.3004">
        <ele>445</ele>
        <time>2019-03-25T10:18:02Z</time>
      </trkpt>
      <trkpt lat="43.7951" lon="5.30037">
        <ele>444</ele>
        <time>2019-03-25T10:18:11Z</time>
      </trkpt>
      <trkpt lat="43.79502" lon="5.3004">
        <ele>444</ele>
        <time>2019-03-25T10:18:20Z</time>
      </trkpt>
      <trkpt lat="43.79493" lon="5.30046">
        <ele>442</ele>
        <time>2019-03-25T10:18:29Z</time>
      </trkpt>
      <trkpt lat="43.79487" lon="5.30059">
        <ele>440</ele>
        <time>2019-03-25T10:18:36Z</time>
      </trkpt>
      <trkpt lat="43.79481" lon="5.3007">
        <ele>440</ele>
        <time>2019-03-25T10:18:43Z</time>
      </trkpt>
      <trkpt lat="43.79473" lon="5.30077">
        <ele>440</ele>
        <time>2019-03-25T10:18:51Z</time>
      </trkpt>
      <trkpt lat="43.79463" lon="5.30074">
        <ele>441</ele>
        <time>2019-03-25T10:18:58Z</time>
      </trkpt>
      <trkpt lat="43.79455" lon="5.30068">
        <ele>441</ele>
        <time>2019-03-25T10:19:04Z</time>
      </trkpt>
      <trkpt lat="43.79448" lon="5.30058">
        <ele>440</ele>
        <time>2019-03-25T10:19:12Z</time>
      </trkpt>
      <trkpt lat="43.79443" lon="5.30047">
        <ele>439</ele>
        <time>2019-03-25T10:19:21Z</time>
      </trkpt>
      <trkpt lat="43.79436" lon="5.30037">
        <ele>438</ele>
        <time>2019-03-25T10:19:28Z</time>
      </trkpt>
      <trkpt lat="43.79429" lon="5.30027">
        <ele>437</ele>
        <time>2019-03-25T10:19:36Z</time>
      </trkpt>
      <trkpt lat="43.7942" lon="5.30023">
        <ele>437</ele>
        <time>2019-03-25T10:19:45Z</time>
      </trkpt>
      <trkpt lat="43.79412" lon="5.30025">
        <ele>437</ele>
        <time>2019-03-25T10:19:53Z</time>
      </trkpt>
      <trkpt lat="43.79402" lon="5.30026">
        <ele>436</ele>
        <time>2019-03-25T10:20:00Z</time>
      </trkpt>
      <trkpt lat="43.79392" lon="5.30028">
        <ele>436</ele>
        <time>2019-03-25T10:20:08Z</time>
      </trkpt>
      <trkpt lat="43.79384" lon="5.30029">
        <ele>434</ele>
        <time>2019-03-25T10:20:15Z</time>
      </trkpt>
      <trkpt lat="43.79374" lon="5.30031">
        <ele>433</ele>
        <time>2019-03-25T10:20:23Z</time>
      </trkpt>
      <trkpt lat="43.79365" lon="5.30037">
        <ele>434</ele>
        <time>2019-03-25T10:20:31Z</time>
      </trkpt>
      <trkpt lat="43.79356" lon="5.30044">
        <ele>432</ele>
        <time>2019-03-25T10:20:39Z</time>
      </trkpt>
      <trkpt lat="43.7936" lon="5.30056">
        <ele>431</ele>
        <time>2019-03-25T10:20:49Z</time>
      </trkpt>
      <trkpt lat="43.79369" lon="5.30049">
        <ele>431</ele>
        <time>2019-03-25T10:20:59Z</time>
      </trkpt>
      <trkpt lat="43.79378" lon="5.30046">
        <ele>431</ele>
        <time>2019-03-25T10:21:05Z</time>
      </trkpt>
      <trkpt lat="43.79387" lon="5.3005">
        <ele>432</ele>
        <time>2019-03-25T10:21:12Z</time>
      </trkpt>
      <trkpt lat="43.79395" lon="5.30056">
        <ele>430</ele>
        <time>2019-03-25T10:21:19Z</time>
      </trkpt>
      <trkpt lat="43.794" lon="5.30067">
        <ele>430</ele>
        <time>2019-03-25T10:21:25Z</time>
      </trkpt>
      <trkpt lat="43.79409" lon="5.30071">
        <ele>428</ele>
        <time>2019-03-25T10:21:43Z</time>
      </trkpt>
      <trkpt lat="43.79418" lon="5.30074">
        <ele>427</ele>
        <time>2019-03-25T10:21:52Z</time>
      </trkpt>
      <trkpt lat="43.79428" lon="5.30078">
        <ele>427</ele>
        <time>2019-03-25T10:21:59Z</time>
      </trkpt>
      <trkpt lat="43.79436" lon="5.30085">
        <ele>425</ele>
        <time>2019-03-25T10:22:11Z</time>
      </trkpt>
      <trkpt lat="43.79445" lon="5.30092">
        <ele>425</ele>
        <time>2019-03-25T10:22:17Z</time>
      </trkpt>
      <trkpt lat="43.79437" lon="5.30097">
        <ele>423</ele>
        <time>2019-03-25T10:22:29Z</time>
      </trkpt>
      <trkpt lat="43.79429" lon="5.3009">
        <ele>422</ele>
        <time>2019-03-25T10:22:35Z</time>
      </trkpt>
      <trkpt lat="43.79419" lon="5.30092">
        <ele>421</ele>
        <time>2019-03-25T10:22:41Z</time>
      </trkpt>
      <trkpt lat="43.79409" lon="5.30097">
        <ele>420</ele>
        <time>2019-03-25T10:22:47Z</time>
      </trkpt>
      <trkpt lat="43.794" lon="5.30095">
        <ele>416</ele>
        <time>2019-03-25T10:22:57Z</time>
      </trkpt>
      <trkpt lat="43.79392" lon="5.30103">
        <ele>412</ele>
        <time>2019-03-25T10:23:13Z</time>
      </trkpt>
      <trkpt lat="43.79383" lon="5.30107">
        <ele>410</ele>
        <time>2019-03-25T10:23:20Z</time>
      </trkpt>
      <trkpt lat="43.79374" lon="5.30111">
        <ele>408</ele>
        <time>2019-03-25T10:23:28Z</time>
      </trkpt>
      <trkpt lat="43.79366" lon="5.30119">
        <ele>405</ele>
        <time>2019-03-25T10:23:40Z</time>
      </trkpt>
      <trkpt lat="43.79357" lon="5.30125">
        <ele>403</ele>
        <time>2019-03-25T10:23:51Z</time>
      </trkpt>
      <trkpt lat="43.79348" lon="5.30127">
        <ele>402</ele>
        <time>2019-03-25T10:24:00Z</time>
      </trkpt>
      <trkpt lat="43.79342" lon="5.30138">
        <ele>399</ele>
        <time>2019-03-25T10:24:11Z</time>
      </trkpt>
      <trkpt lat="43.79335" lon="5.30148">
        <ele>398</ele>
        <time>2019-03-25T10:24:18Z</time>
      </trkpt>
      <trkpt lat="43.79327" lon="5.30153">
        <ele>397</ele>
        <time>2019-03-25T10:24:24Z</time>
      </trkpt>
      <trkpt lat="43.79317" lon="5.3016">
        <ele>395</ele>
        <time>2019-03-25T10:24:33Z</time>
      </trkpt>
      <trkpt lat="43.79308" lon="5.30154">
        <ele>391</ele>
        <time>2019-03-25T10:24:40Z</time>
      </trkpt>
      <trkpt lat="43.79299" lon="5.30148">
        <ele>390</ele>
        <time>2019-03-25T10:24:46Z</time>
      </trkpt>
      <trkpt lat="43.79289" lon="5.3015">
        <ele>389</ele>
        <time>2019-03-25T10:24:53Z</time>
      </trkpt>
      <trkpt lat="43.79285" lon="5.30161">
        <ele>387</ele>
        <time>2019-03-25T10:25:01Z</time>
      </trkpt>
      <trkpt lat="43.79277" lon="5.30168">
        <ele>387</ele>
        <time>2019-03-25T10:25:08Z</time>
      </trkpt>
      <trkpt lat="43.79268" lon="5.30165">
        <ele>385</ele>
        <time>2019-03-25T10:25:15Z</time>
      </trkpt>
      <trkpt lat="43.79258" lon="5.3016">
        <ele>385</ele>
        <time>2019-03-25T10:25:22Z</time>
      </trkpt>
      <trkpt lat="43.79248" lon="5.30156">
        <ele>384</ele>
        <time>2019-03-25T10:25:29Z</time>
      </trkpt>
      <trkpt lat="43.79239" lon="5.3015">
        <ele>382</ele>
        <time>2019-03-25T10:25:40Z</time>
      </trkpt>
      <trkpt lat="43.7923" lon="5.30146">
        <ele>382</ele>
        <time>2019-03-25T10:25:46Z</time>
      </trkpt>
      <trkpt lat="43.79221" lon="5.30141">
        <ele>380</ele>
        <time>2019-03-25T10:25:54Z</time>
      </trkpt>
      <trkpt lat="43.79212" lon="5.30134">
        <ele>379</ele>
        <time>2019-03-25T10:26:03Z</time>
      </trkpt>
      <trkpt lat="43.79204" lon="5.30128">
        <ele>378</ele>
        <time>2019-03-25T10:26:11Z</time>
      </trkpt>
      <trkpt lat="43.79197" lon="5.3012">
        <ele>378</ele>
        <time>2019-03-25T10:26:19Z</time>
      </trkpt>
      <trkpt lat="43.79188" lon="5.30117">
        <ele>379</ele>
        <time>2019-03-25T10:26:26Z</time>
      </trkpt>
      <trkpt lat="43.79179" lon="5.30118">
        <ele>378</ele>
        <time>2019-03-25T10:26:34Z</time>
      </trkpt>
      <trkpt lat="43.7917" lon="5.30122">
        <ele>376</ele>
        <time>2019-03-25T10:26:43Z</time>
      </trkpt>
      <trkpt lat="43.7916" lon="5.30122">
        <ele>376</ele>
        <time>2019-03-25T10:26:50Z</time>
      </trkpt>
      <trkpt lat="43.79151" lon="5.30117">
        <ele>376</ele>
        <time>2019-03-25T10:26:57Z</time>
      </trkpt>
      <trkpt lat="43.79142" lon="5.30114">
        <ele>375</ele>
        <time>2019-03-25T10:27:04Z</time>
      </trkpt>
      <trkpt lat="43.79132" lon="5.30115">
        <ele>374</ele>
        <time>2019-03-25T10:27:11Z</time>
      </trkpt>
      <trkpt lat="43.79123" lon="5.30119">
        <ele>373</ele>
        <time>2019-03-25T10:27:22Z</time>
      </trkpt>
      <trkpt lat="43.79114" lon="5.30118">
        <ele>373</ele>
        <time>2019-03-25T10:27:28Z</time>
      </trkpt>
      <trkpt lat="43.79104" lon="5.30117">
        <ele>372</ele>
        <time>2019-03-25T10:27:36Z</time>
      </trkpt>
      <trkpt lat="43.79095" lon="5.30113">
        <ele>371</ele>
        <time>2019-03-25T10:27:44Z</time>
      </trkpt>
      <trkpt lat="43.79087" lon="5.30109">
        <ele>370</ele>
        <time>2019-03-25T10:27:51Z</time>
      </trkpt>
      <trkpt lat="43.79078" lon="5.30104">
        <ele>370</ele>
        <time>2019-03-25T10:27:58Z</time>
      </trkpt>
      <trkpt lat="43.79068" lon="5.30103">
        <ele>369</ele>
        <time>2019-03-25T10:28:05Z</time>
      </trkpt>
      <trkpt lat="43.79058" lon="5.30106">
        <ele>368</ele>
        <time>2019-03-25T10:28:12Z</time>
      </trkpt>
      <trkpt lat="43.79049" lon="5.30108">
        <ele>369</ele>
        <time>2019-03-25T10:28:20Z</time>
      </trkpt>
      <trkpt lat="43.7904" lon="5.3011">
        <ele>368</ele>
        <time>2019-03-25T10:28:31Z</time>
      </trkpt>
      <trkpt lat="43.79032" lon="5.30104">
        <ele>368</ele>
        <time>2019-03-25T10:28:38Z</time>
      </trkpt>
      <trkpt lat="43.79022" lon="5.30102">
        <ele>368</ele>
        <time>2019-03-25T10:28:46Z</time>
      </trkpt>
      <trkpt lat="43.79012" lon="5.30097">
        <ele>367</ele>
        <time>2019-03-25T10:28:54Z</time>
      </trkpt>
      <trkpt lat="43.79003" lon="5.30094">
        <ele>367</ele>
        <time>2019-03-25T10:29:05Z</time>
      </trkpt>
      <trkpt lat="43.78994" lon="5.30094">
        <ele>365</ele>
        <time>2019-03-25T10:29:13Z</time>
      </trkpt>
      <trkpt lat="43.78985" lon="5.3009">
        <ele>364</ele>
        <time>2019-03-25T10:29:22Z</time>
      </trkpt>
      <trkpt lat="43.78976" lon="5.30085">
        <ele>364</ele>
        <time>2019-03-25T10:29:29Z</time>
      </trkpt>
      <trkpt lat="43.78965" lon="5.30083">
        <ele>364</ele>
        <time>2019-03-25T10:29:36Z</time>
      </trkpt>
      <trkpt lat="43.78955" lon="5.3008">
        <ele>365</ele>
        <time>2019-03-25T10:29:42Z</time>
      </trkpt>
      <trkpt lat="43.78947" lon="5.30074">
        <ele>364</ele>
        <time>2019-03-25T10:29:49Z</time>
      </trkpt>
      <trkpt lat="43.78939" lon="5.30065">
        <ele>363</ele>
        <time>2019-03-25T10:29:56Z</time>
      </trkpt>
      <trkpt lat="43.78932" lon="5.30057">
        <ele>363</ele>
        <time>2019-03-25T10:30:03Z</time>
      </trkpt>
      <trkpt lat="43.78924" lon="5.30049">
        <ele>363</ele>
        <time>2019-03-25T10:30:11Z</time>
      </trkpt>
      <trkpt lat="43.78914" lon="5.30047">
        <ele>363</ele>
        <time>2019-03-25T10:30:18Z</time>
      </trkpt>
      <trkpt lat="43.78905" lon="5.30046">
        <ele>361</ele>
        <time>2019-03-25T10:30:25Z</time>
      </trkpt>
      <trkpt lat="43.78896" lon="5.30053">
        <ele>359</ele>
        <time>2019-03-25T10:30:33Z</time>
      </trkpt>
      <trkpt lat="43.78888" lon="5.30062">
        <ele>357</ele>
        <time>2019-03-25T10:30:41Z</time>
      </trkpt>
      <trkpt lat="43.7888" lon="5.30072">
        <ele>357</ele>
        <time>2019-03-25T10:30:48Z</time>
      </trkpt>
      <trkpt lat="43.78873" lon="5.30081">
        <ele>357</ele>
        <time>2019-03-25T10:30:55Z</time>
      </trkpt>
      <trkpt lat="43.78866" lon="5.3009">
        <ele>357</ele>
        <time>2019-03-25T10:31:01Z</time>
      </trkpt>
      <trkpt lat="43.78857" lon="5.30095">
        <ele>357</ele>
        <time>2019-03-25T10:31:08Z</time>
      </trkpt>
      <trkpt lat="43.78847" lon="5.30099">
        <ele>357</ele>
        <time>2019-03-25T10:31:16Z</time>
      </trkpt>
      <trkpt lat="43.78838" lon="5.301">
        <ele>358</ele>
        <time>2019-03-25T10:31:27Z</time>
      </trkpt>
      <trkpt lat="43.78828" lon="5.30102">
        <ele>358</ele>
        <time>2019-03-25T10:31:35Z</time>
      </trkpt>
      <trkpt lat="43.78818" lon="5.30103">
        <ele>358</ele>
        <time>2019-03-25T10:31:42Z</time>
      </trkpt>
      <trkpt lat="43.78808" lon="5.30106">
        <ele>358</ele>
        <time>2019-03-25T10:31:49Z</time>
      </trkpt>
      <trkpt lat="43.78799" lon="5.30111">
        <ele>357</ele>
        <time>2019-03-25T10:31:57Z</time>
      </trkpt>
      <trkpt lat="43.78791" lon="5.30117">
        <ele>357</ele>
        <time>2019-03-25T10:32:04Z</time>
      </trkpt>
      <trkpt lat="43.78782" lon="5.30122">
        <ele>357</ele>
        <time>2019-03-25T10:32:12Z</time>
      </trkpt>
      <trkpt lat="43.78773" lon="5.30128">
        <ele>357</ele>
        <time>2019-03-25T10:32:20Z</time>
      </trkpt>
      <trkpt lat="43.78765" lon="5.30136">
        <ele>357</ele>
        <time>2019-03-25T10:32:28Z</time>
      </trkpt>
      <trkpt lat="43.78758" lon="5.30147">
        <ele>358</ele>
        <time>2019-03-25T10:32:35Z</time>
      </trkpt>
      <trkpt lat="43.78752" lon="5.30158">
        <ele>357</ele>
        <time>2019-03-25T10:32:42Z</time>
      </trkpt>
      <trkpt lat="43.78748" lon="5.30169">
        <ele>357</ele>
        <time>2019-03-25T10:32:49Z</time>
      </trkpt>
      <trkpt lat="43.78744" lon="5.30181">
        <ele>356</ele>
        <time>2019-03-25T10:32:56Z</time>
      </trkpt>
      <trkpt lat="43.7874" lon="5.30194">
        <ele>356</ele>
        <time>2019-03-25T10:33:04Z</time>
      </trkpt>
      <trkpt lat="43.78734" lon="5.30205">
        <ele>356</ele>
        <time>2019-03-25T10:33:11Z</time>
      </trkpt>
      <trkpt lat="43.78728" lon="5.30214">
        <ele>355</ele>
        <time>2019-03-25T10:33:18Z</time>
      </trkpt>
      <trkpt lat="43.78723" lon="5.30225">
        <ele>356</ele>
        <time>2019-03-25T10:33:25Z</time>
      </trkpt>
      <trkpt lat="43.78716" lon="5.30235">
        <ele>356</ele>
        <time>2019-03-25T10:33:32Z</time>
      </trkpt>
      <trkpt lat="43.78708" lon="5.30243">
        <ele>355</ele>
        <time>2019-03-25T10:33:39Z</time>
      </trkpt>
      <trkpt lat="43.787" lon="5.30251">
        <ele>355</ele>
        <time>2019-03-25T10:33:47Z</time>
      </trkpt>
      <trkpt lat="43.78692" lon="5.30259">
        <ele>355</ele>
        <time>2019-03-25T10:33:55Z</time>
      </trkpt>
      <trkpt lat="43.78684" lon="5.30267">
        <ele>355</ele>
        <time>2019-03-25T10:34:03Z</time>
      </trkpt>
      <trkpt lat="43.78676" lon="5.30274">
        <ele>355</ele>
        <time>2019-03-25T10:34:11Z</time>
      </trkpt>
      <trkpt lat="43.7867" lon="5.30285">
        <ele>354</ele>
        <time>2019-03-25T10:34:18Z</time>
      </trkpt>
      <trkpt lat="43.78667" lon="5.30297">
        <ele>353</ele>
        <time>2019-03-25T10:34:25Z</time>
      </trkpt>
      <trkpt lat="43.78668" lon="5.30309">
        <ele>351</ele>
        <time>2019-03-25T10:34:33Z</time>
      </trkpt>
      <trkpt lat="43.78673" lon="5.30321">
        <ele>348</ele>
        <time>2019-03-25T10:34:41Z</time>
      </trkpt>
      <trkpt lat="43.78679" lon="5.30331">
        <ele>348</ele>
        <time>2019-03-25T10:34:49Z</time>
      </trkpt>
      <trkpt lat="43.78684" lon="5.30342">
        <ele>346</ele>
        <time>2019-03-25T10:34:57Z</time>
      </trkpt>
      <trkpt lat="43.7869" lon="5.30352">
        <ele>346</ele>
        <time>2019-03-25T10:35:04Z</time>
      </trkpt>
      <trkpt lat="43.78692" lon="5.30366">
        <ele>347</ele>
        <time>2019-03-25T10:35:12Z</time>
      </trkpt>
      <trkpt lat="43.78694" lon="5.30378">
        <ele>346</ele>
        <time>2019-03-25T10:35:19Z</time>
      </trkpt>
      <trkpt lat="43.78696" lon="5.30391">
        <ele>345</ele>
        <time>2019-03-25T10:35:27Z</time>
      </trkpt>
      <trkpt lat="43.78696" lon="5.30404">
        <ele>346</ele>
        <time>2019-03-25T10:35:35Z</time>
      </trkpt>
      <trkpt lat="43.78692" lon="5.30415">
        <ele>345</ele>
        <time>2019-03-25T10:35:42Z</time>
      </trkpt>
      <trkpt lat="43.78684" lon="5.30425">
        <ele>343</ele>
        <time>2019-03-25T10:35:51Z</time>
      </trkpt>
      <trkpt lat="43.78678" lon="5.30435">
        <ele>343</ele>
        <time>2019-03-25T10:35:59Z</time>
      </trkpt>
      <trkpt lat="43.78671" lon="5.30445">
        <ele>342</ele>
        <time>2019-03-25T10:36:07Z</time>
      </trkpt>
      <trkpt lat="43.78664" lon="5.30453">
        <ele>342</ele>
        <time>2019-03-25T10:36:14Z</time>
      </trkpt>
      <trkpt lat="43.78655" lon="5.30458">
        <ele>341</ele>
        <time>2019-03-25T10:36:21Z</time>
      </trkpt>
      <trkpt lat="43.78645" lon="5.30459">
        <ele>339</ele>
        <time>2019-03-25T10:36:28Z</time>
      </trkpt>
      <trkpt lat="43.78635" lon="5.30457">
        <ele>339</ele>
        <time>2019-03-25T10:36:35Z</time>
      </trkpt>
      <trkpt lat="43.78626" lon="5.30453">
        <ele>338</ele>
        <time>2019-03-25T10:36:43Z</time>
      </trkpt>
      <trkpt lat="43.78617" lon="5.30449">
        <ele>336</ele>
        <time>2019-03-25T10:36:50Z</time>
      </trkpt>
      <trkpt lat="43.78609" lon="5.30444">
        <ele>335</ele>
        <time>2019-03-25T10:36:58Z</time>
      </trkpt>
      <trkpt lat="43.78599" lon="5.30441">
        <ele>334</ele>
        <time>2019-03-25T10:37:05Z</time>
      </trkpt>
      <trkpt lat="43.78588" lon="5.3044">
        <ele>334</ele>
        <time>2019-03-25T10:37:13Z</time>
      </trkpt>
      <trkpt lat="43.78579" lon="5.30443">
        <ele>334</ele>
        <time>2019-03-25T10:37:20Z</time>
      </trkpt>
      <trkpt lat="43.7857" lon="5.30449">
        <ele>334</ele>
        <time>2019-03-25T10:37:28Z</time>
      </trkpt>
      <trkpt lat="43.78561" lon="5.30451">
        <ele>333</ele>
        <time>2019-03-25T10:37:36Z</time>
      </trkpt>
      <trkpt lat="43.78552" lon="5.30454">
        <ele>333</ele>
        <time>2019-03-25T10:37:44Z</time>
      </trkpt>
      <trkpt lat="43.78544" lon="5.30463">
        <ele>333</ele>
        <time>2019-03-25T10:37:53Z</time>
      </trkpt>
      <trkpt lat="43.7854" lon="5.30475">
        <ele>333</ele>
        <time>2019-03-25T10:38:01Z</time>
      </trkpt>
      <trkpt lat="43.78535" lon="5.30487">
        <ele>333</ele>
        <time>2019-03-25T10:38:08Z</time>
      </trkpt>
      <trkpt lat="43.7853" lon="5.30499">
        <ele>331</ele>
        <time>2019-03-25T10:38:16Z</time>
      </trkpt>
      <trkpt lat="43.78525" lon="5.3051">
        <ele>330</ele>
        <time>2019-03-25T10:38:25Z</time>
      </trkpt>
      <trkpt lat="43.78519" lon="5.3052">
        <ele>330</ele>
        <time>2019-03-25T10:38:34Z</time>
      </trkpt>
      <trkpt lat="43.78511" lon="5.3053">
        <ele>329</ele>
        <time>2019-03-25T10:38:42Z</time>
      </trkpt>
      <trkpt lat="43.78504" lon="5.30537">
        <ele>327</ele>
        <time>2019-03-25T10:39:47Z</time>
      </trkpt>
      <trkpt lat="43.78495" lon="5.30544">
        <ele>327</ele>
        <time>2019-03-25T10:40:09Z</time>
      </trkpt>
      <trkpt lat="43.78486" lon="5.30551">
        <ele>325</ele>
        <time>2019-03-25T10:40:16Z</time>
      </trkpt>
      <trkpt lat="43.78478" lon="5.30558">
        <ele>324</ele>
        <time>2019-03-25T10:40:23Z</time>
      </trkpt>
      <trkpt lat="43.78469" lon="5.30565">
        <ele>325</ele>
        <time>2019-03-25T10:40:30Z</time>
      </trkpt>
      <trkpt lat="43.7846" lon="5.30572">
        <ele>325</ele>
        <time>2019-03-25T10:40:37Z</time>
      </trkpt>
      <trkpt lat="43.78452" lon="5.30581">
        <ele>324</ele>
        <time>2019-03-25T10:40:44Z</time>
      </trkpt>
      <trkpt lat="43.78446" lon="5.30592">
        <ele>323</ele>
        <time>2019-03-25T10:40:51Z</time>
      </trkpt>
      <trkpt lat="43.78441" lon="5.30601">
        <ele>324</ele>
        <time>2019-03-25T10:40:58Z</time>
      </trkpt>
      <trkpt lat="43.78434" lon="5.30612">
        <ele>324</ele>
        <time>2019-03-25T10:41:05Z</time>
      </trkpt>
      <trkpt lat="43.78428" lon="5.30621">
        <ele>324</ele>
        <time>2019-03-25T10:41:12Z</time>
      </trkpt>
      <trkpt lat="43.78421" lon="5.3063">
        <ele>323</ele>
        <time>2019-03-25T10:41:19Z</time>
      </trkpt>
      <trkpt lat="43.78415" lon="5.3064">
        <ele>322</ele>
        <time>2019-03-25T10:41:25Z</time>
      </trkpt>
      <trkpt lat="43.78406" lon="5.30645">
        <ele>323</ele>
        <time>2019-03-25T10:41:32Z</time>
      </trkpt>
      <trkpt lat="43.78397" lon="5.30648">
        <ele>322</ele>
        <time>2019-03-25T10:41:41Z</time>
      </trkpt>
      <trkpt lat="43.78387" lon="5.3065">
        <ele>321</ele>
        <time>2019-03-25T10:41:51Z</time>
      </trkpt>
      <trkpt lat="43.78379" lon="5.30656">
        <ele>321</ele>
        <time>2019-03-25T10:41:58Z</time>
      </trkpt>
      <trkpt lat="43.78369" lon="5.30661">
        <ele>321</ele>
        <time>2019-03-25T10:42:04Z</time>
      </trkpt>
      <trkpt lat="43.78362" lon="5.30669">
        <ele>319</ele>
        <time>2019-03-25T10:42:12Z</time>
      </trkpt>
      <trkpt lat="43.78353" lon="5.30674">
        <ele>319</ele>
        <time>2019-03-25T10:42:19Z</time>
      </trkpt>
      <trkpt lat="43.78345" lon="5.30682">
        <ele>319</ele>
        <time>2019-03-25T10:42:26Z</time>
      </trkpt>
      <trkpt lat="43.78337" lon="5.30689">
        <ele>319</ele>
        <time>2019-03-25T10:42:34Z</time>
      </trkpt>
      <trkpt lat="43.7833" lon="5.30698">
        <ele>318</ele>
        <time>2019-03-25T10:42:41Z</time>
      </trkpt>
      <trkpt lat="43.78322" lon="5.30706">
        <ele>317</ele>
        <time>2019-03-25T10:42:48Z</time>
      </trkpt>
      <trkpt lat="43.78315" lon="5.30715">
        <ele>317</ele>
        <time>2019-03-25T10:42:56Z</time>
      </trkpt>
      <trkpt lat="43.78308" lon="5.30723">
        <ele>316</ele>
        <time>2019-03-25T10:43:03Z</time>
      </trkpt>
      <trkpt lat="43.78302" lon="5.30733">
        <ele>315</ele>
        <time>2019-03-25T10:43:10Z</time>
      </trkpt>
      <trkpt lat="43.78297" lon="5.30745">
        <ele>314</ele>
        <time>2019-03-25T10:43:18Z</time>
      </trkpt>
      <trkpt lat="43.78292" lon="5.30756">
        <ele>313</ele>
        <time>2019-03-25T10:43:26Z</time>
      </trkpt>
      <trkpt lat="43.78286" lon="5.30767">
        <ele>313</ele>
        <time>2019-03-25T10:43:33Z</time>
      </trkpt>
      <trkpt lat="43.7828" lon="5.30777">
        <ele>312</ele>
        <time>2019-03-25T10:43:40Z</time>
      </trkpt>
      <trkpt lat="43.78273" lon="5.30786">
        <ele>313</ele>
        <time>2019-03-25T10:43:49Z</time>
      </trkpt>
      <trkpt lat="43.78265" lon="5.30792">
        <ele>312</ele>
        <time>2019-03-25T10:43:56Z</time>
      </trkpt>
      <trkpt lat="43.78254" lon="5.30794">
        <ele>312</ele>
        <time>2019-03-25T10:44:03Z</time>
      </trkpt>
      <trkpt lat="43.78244" lon="5.30795">
        <ele>311</ele>
        <time>2019-03-25T10:44:11Z</time>
      </trkpt>
      <trkpt lat="43.78235" lon="5.30794">
        <ele>310</ele>
        <time>2019-03-25T10:44:18Z</time>
      </trkpt>
      <trkpt lat="43.78226" lon="5.30789">
        <ele>309</ele>
        <time>2019-03-25T10:44:26Z</time>
      </trkpt>
      <trkpt lat="43.78218" lon="5.30782">
        <ele>307</ele>
        <time>2019-03-25T10:44:33Z</time>
      </trkpt>
      <trkpt lat="43.78209" lon="5.30773">
        <ele>307</ele>
        <time>2019-03-25T10:44:40Z</time>
      </trkpt>
      <trkpt lat="43.78202" lon="5.30765">
        <ele>306</ele>
        <time>2019-03-25T10:44:48Z</time>
      </trkpt>
      <trkpt lat="43.78194" lon="5.30758">
        <ele>305</ele>
        <time>2019-03-25T10:44:56Z</time>
      </trkpt>
      <trkpt lat="43.78185" lon="5.30755">
        <ele>304</ele>
        <time>2019-03-25T10:45:03Z</time>
      </trkpt>
      <trkpt lat="43.78176" lon="5.30749">
        <ele>303</ele>
        <time>2019-03-25T10:45:11Z</time>
      </trkpt>
      <trkpt lat="43.78167" lon="5.30745">
        <ele>303</ele>
        <time>2019-03-25T10:45:18Z</time>
      </trkpt>
      <trkpt lat="43.78158" lon="5.3074">
        <ele>303</ele>
        <time>2019-03-25T10:45:26Z</time>
      </trkpt>
      <trkpt lat="43.78148" lon="5.30736">
        <ele>303</ele>
        <time>2019-03-25T10:45:34Z</time>
      </trkpt>
      <trkpt lat="43.7814" lon="5.30732">
        <ele>302</ele>
        <time>2019-03-25T10:45:40Z</time>
      </trkpt>
      <trkpt lat="43.78131" lon="5.30726">
        <ele>301</ele>
        <time>2019-03-25T10:45:47Z</time>
      </trkpt>
      <trkpt lat="43.78121" lon="5.30721">
        <ele>301</ele>
        <time>2019-03-25T10:45:56Z</time>
      </trkpt>
      <trkpt lat="43.78113" lon="5.30716">
        <ele>300</ele>
        <time>2019-03-25T10:46:03Z</time>
      </trkpt>
      <trkpt lat="43.78104" lon="5.30711">
        <ele>300</ele>
        <time>2019-03-25T10:46:10Z</time>
      </trkpt>
      <trkpt lat="43.78097" lon="5.30702">
        <ele>299</ele>
        <time>2019-03-25T10:46:18Z</time>
      </trkpt>
      <trkpt lat="43.78089" lon="5.30693">
        <ele>298</ele>
        <time>2019-03-25T10:46:27Z</time>
      </trkpt>
      <trkpt lat="43.7808" lon="5.30689">
        <ele>298</ele>
        <time>2019-03-25T10:46:34Z</time>
      </trkpt>
      <trkpt lat="43.7807" lon="5.30688">
        <ele>297</ele>
        <time>2019-03-25T10:46:41Z</time>
      </trkpt>
      <trkpt lat="43.7806" lon="5.30686">
        <ele>297</ele>
        <time>2019-03-25T10:46:51Z</time>
      </trkpt>
      <trkpt lat="43.78051" lon="5.30685">
        <ele>296</ele>
        <time>2019-03-25T10:46:58Z</time>
      </trkpt>
      <trkpt lat="43.7804" lon="5.30683">
        <ele>296</ele>
        <time>2019-03-25T10:47:06Z</time>
      </trkpt>
      <trkpt lat="43.78031" lon="5.30684">
        <ele>295</ele>
        <time>2019-03-25T10:47:14Z</time>
      </trkpt>
      <trkpt lat="43.78017" lon="5.30672">
        <ele>293</ele>
        <time>2019-03-25T10:47:27Z</time>
      </trkpt>
      <trkpt lat="43.78009" lon="5.30665">
        <ele>293</ele>
        <time>2019-03-25T10:47:34Z</time>
      </trkpt>
      <trkpt lat="43.78" lon="5.3066">
        <ele>293</ele>
        <time>2019-03-25T10:47:41Z</time>
      </trkpt>
      <trkpt lat="43.77991" lon="5.30654">
        <ele>292</ele>
        <time>2019-03-25T10:47:48Z</time>
      </trkpt>
      <trkpt lat="43.77983" lon="5.30647">
        <ele>292</ele>
        <time>2019-03-25T10:47:55Z</time>
      </trkpt>
      <trkpt lat="43.77975" lon="5.30642">
        <ele>291</ele>
        <time>2019-03-25T10:48:01Z</time>
      </trkpt>
      <trkpt lat="43.77966" lon="5.30636">
        <ele>291</ele>
        <time>2019-03-25T10:48:08Z</time>
      </trkpt>
      <trkpt lat="43.77958" lon="5.3063">
        <ele>290</ele>
        <time>2019-03-25T10:48:16Z</time>
      </trkpt>
      <trkpt lat="43.77949" lon="5.30623">
        <ele>289</ele>
        <time>2019-03-25T10:48:24Z</time>
      </trkpt>
      <trkpt lat="43.77941" lon="5.30616">
        <ele>288</ele>
        <time>2019-03-25T10:48:31Z</time>
      </trkpt>
      <trkpt lat="43.77934" lon="5.30607">
        <ele>288</ele>
        <time>2019-03-25T10:48:38Z</time>
      </trkpt>
      <trkpt lat="43.77927" lon="5.30598">
        <ele>288</ele>
        <time>2019-03-25T10:48:46Z</time>
      </trkpt>
      <trkpt lat="43.7792" lon="5.30591">
        <ele>287</ele>
        <time>2019-03-25T10:48:54Z</time>
      </trkpt>
      <trkpt lat="43.7791" lon="5.30589">
        <ele>287</ele>
        <time>2019-03-25T10:49:02Z</time>
      </trkpt>
      <trkpt lat="43.779" lon="5.30593">
        <ele>286</ele>
        <time>2019-03-25T10:49:09Z</time>
      </trkpt>
      <trkpt lat="43.77891" lon="5.30597">
        <ele>286</ele>
        <time>2019-03-25T10:49:15Z</time>
      </trkpt>
      <trkpt lat="43.77881" lon="5.30599">
        <ele>285</ele>
        <time>2019-03-25T10:49:22Z</time>
      </trkpt>
      <trkpt lat="43.77873" lon="5.30605">
        <ele>283</ele>
        <time>2019-03-25T10:49:30Z</time>
      </trkpt>
      <trkpt lat="43.77865" lon="5.30612">
        <ele>282</ele>
        <time>2019-03-25T10:49:39Z</time>
      </trkpt>
      <trkpt lat="43.77857" lon="5.30619">
        <ele>283</ele>
        <time>2019-03-25T10:49:47Z</time>
      </trkpt>
      <trkpt lat="43.77849" lon="5.30627">
        <ele>283</ele>
        <time>2019-03-25T10:49:55Z</time>
      </trkpt>
      <trkpt lat="43.77841" lon="5.30634">
        <ele>283</ele>
        <time>2019-03-25T10:50:02Z</time>
      </trkpt>
      <trkpt lat="43.77834" lon="5.30641">
        <ele>282</ele>
        <time>2019-03-25T10:50:09Z</time>
      </trkpt>
      <trkpt lat="43.77834" lon="5.30654">
        <ele>282</ele>
        <time>2019-03-25T10:50:20Z</time>
      </trkpt>
      <trkpt lat="43.77839" lon="5.30665">
        <ele>283</ele>
        <time>2019-03-25T10:50:29Z</time>
      </trkpt>
      <trkpt lat="43.77847" lon="5.30674">
        <ele>283</ele>
        <time>2019-03-25T10:50:36Z</time>
      </trkpt>
      <trkpt lat="43.77853" lon="5.30684">
        <ele>282</ele>
        <time>2019-03-25T10:50:45Z</time>
      </trkpt>
      <trkpt lat="43.77855" lon="5.30697">
        <ele>283</ele>
        <time>2019-03-25T10:50:55Z</time>
      </trkpt>
      <trkpt lat="43.7786" lon="5.30708">
        <ele>284</ele>
        <time>2019-03-25T10:51:01Z</time>
      </trkpt>
      <trkpt lat="43.77863" lon="5.30721">
        <ele>285</ele>
        <time>2019-03-25T10:51:10Z</time>
      </trkpt>
      <trkpt lat="43.77866" lon="5.30732">
        <ele>287</ele>
        <time>2019-03-25T10:51:19Z</time>
      </trkpt>
      <trkpt lat="43.77869" lon="5.30745">
        <ele>288</ele>
        <time>2019-03-25T10:51:29Z</time>
      </trkpt>
      <trkpt lat="43.7787" lon="5.30757">
        <ele>289</ele>
        <time>2019-03-25T10:51:39Z</time>
      </trkpt>
      <trkpt lat="43.77873" lon="5.30769">
        <ele>288</ele>
        <time>2019-03-25T10:51:47Z</time>
      </trkpt>
      <trkpt lat="43.77876" lon="5.30782">
        <ele>290</ele>
        <time>2019-03-25T10:51:57Z</time>
      </trkpt>
      <trkpt lat="43.7788" lon="5.30794">
        <ele>290</ele>
        <time>2019-03-25T10:52:06Z</time>
      </trkpt>
      <trkpt lat="43.77882" lon="5.30806">
        <ele>292</ele>
        <time>2019-03-25T10:52:15Z</time>
      </trkpt>
      <trkpt lat="43.77885" lon="5.30818">
        <ele>294</ele>
        <time>2019-03-25T10:52:24Z</time>
      </trkpt>
      <trkpt lat="43.77891" lon="5.3083">
        <ele>294</ele>
        <time>2019-03-25T10:52:32Z</time>
      </trkpt>
      <trkpt lat="43.77896" lon="5.30841">
        <ele>294</ele>
        <time>2019-03-25T10:52:40Z</time>
      </trkpt>
      <trkpt lat="43.779" lon="5.30852">
        <ele>293</ele>
        <time>2019-03-25T10:52:50Z</time>
      </trkpt>
      <trkpt lat="43.77906" lon="5.30863">
        <ele>293</ele>
        <time>2019-03-25T10:52:58Z</time>
      </trkpt>
      <trkpt lat="43.7791" lon="5.30875">
        <ele>294</ele>
        <time>2019-03-25T10:53:08Z</time>
      </trkpt>
      <trkpt lat="43.77913" lon="5.30887">
        <ele>293</ele>
        <time>2019-03-25T10:53:17Z</time>
      </trkpt>
      <trkpt lat="43.77914" lon="5.30901">
        <ele>293</ele>
        <time>2019-03-25T10:53:30Z</time>
      </trkpt>
      <trkpt lat="43.77919" lon="5.3091">
        <ele>295</ele>
        <time>2019-03-25T10:53:38Z</time>
      </trkpt>
      <trkpt lat="43.77926" lon="5.30921">
        <ele>298</ele>
        <time>2019-03-25T10:53:45Z</time>
      </trkpt>
      <trkpt lat="43.77931" lon="5.30934">
        <ele>299</ele>
        <time>2019-03-25T10:53:54Z</time>
      </trkpt>
      <trkpt lat="43.77937" lon="5.30945">
        <ele>300</ele>
        <time>2019-03-25T10:54:02Z</time>
      </trkpt>
      <trkpt lat="43.77943" lon="5.30955">
        <ele>300</ele>
        <time>2019-03-25T10:54:11Z</time>
      </trkpt>
      <trkpt lat="43.7795" lon="5.30964">
        <ele>300</ele>
        <time>2019-03-25T10:54:18Z</time>
      </trkpt>
      <trkpt lat="43.77953" lon="5.30976">
        <ele>300</ele>
        <time>2019-03-25T10:54:27Z</time>
      </trkpt>
      <trkpt lat="43.77958" lon="5.30987">
        <ele>300</ele>
        <time>2019-03-25T10:54:36Z</time>
      </trkpt>
      <trkpt lat="43.77963" lon="5.30998">
        <ele>301</ele>
        <time>2019-03-25T10:54:44Z</time>
      </trkpt>
      <trkpt lat="43.77966" lon="5.3101">
        <ele>302</ele>
        <time>2019-03-25T10:54:53Z</time>
      </trkpt>
      <trkpt lat="43.7797" lon="5.31022">
        <ele>303</ele>
        <time>2019-03-25T10:55:02Z</time>
      </trkpt>
      <trkpt lat="43.77976" lon="5.31033">
        <ele>304</ele>
        <time>2019-03-25T10:55:10Z</time>
      </trkpt>
      <trkpt lat="43.77985" lon="5.31037">
        <ele>304</ele>
        <time>2019-03-25T10:55:22Z</time>
      </trkpt>
      <trkpt lat="43.77993" lon="5.31054">
        <ele>304</ele>
        <time>2019-03-25T10:55:34Z</time>
      </trkpt>
      <trkpt lat="43.78001" lon="5.31059">
        <ele>303</ele>
        <time>2019-03-25T10:55:40Z</time>
      </trkpt>
      <trkpt lat="43.78007" lon="5.3107">
        <ele>305</ele>
        <time>2019-03-25T10:55:48Z</time>
      </trkpt>
      <trkpt lat="43.78013" lon="5.3108">
        <ele>306</ele>
        <time>2019-03-25T10:55:56Z</time>
      </trkpt>
      <trkpt lat="43.78017" lon="5.31092">
        <ele>306</ele>
        <time>2019-03-25T10:56:05Z</time>
      </trkpt>
      <trkpt lat="43.78023" lon="5.31102">
        <ele>305</ele>
        <time>2019-03-25T10:56:14Z</time>
      </trkpt>
      <trkpt lat="43.78032" lon="5.31106">
        <ele>304</ele>
        <time>2019-03-25T10:56:22Z</time>
      </trkpt>
      <trkpt lat="43.78042" lon="5.31108">
        <ele>304</ele>
        <time>2019-03-25T10:56:30Z</time>
      </trkpt>
      <trkpt lat="43.78051" lon="5.31109">
        <ele>305</ele>
        <time>2019-03-25T10:56:40Z</time>
      </trkpt>
      <trkpt lat="43.7806" lon="5.31113">
        <ele>305</ele>
        <time>2019-03-25T10:56:51Z</time>
      </trkpt>
      <trkpt lat="43.78063" lon="5.31127">
        <ele>304</ele>
        <time>2019-03-25T10:57:00Z</time>
      </trkpt>
      <trkpt lat="43.78067" lon="5.31139">
        <ele>303</ele>
        <time>2019-03-25T10:57:09Z</time>
      </trkpt>
      <trkpt lat="43.78071" lon="5.31152">
        <ele>303</ele>
        <time>2019-03-25T10:57:19Z</time>
      </trkpt>
      <trkpt lat="43.78077" lon="5.31162">
        <ele>303</ele>
        <time>2019-03-25T10:57:27Z</time>
      </trkpt>
      <trkpt lat="43.78082" lon="5.31173">
        <ele>305</ele>
        <time>2019-03-25T10:57:37Z</time>
      </trkpt>
      <trkpt lat="43.78088" lon="5.31184">
        <ele>306</ele>
        <time>2019-03-25T10:57:47Z</time>
      </trkpt>
      <trkpt lat="43.78094" lon="5.31195">
        <ele>306</ele>
        <time>2019-03-25T10:57:58Z</time>
      </trkpt>
      <trkpt lat="43.78101" lon="5.31204">
        <ele>307</ele>
        <time>2019-03-25T10:58:08Z</time>
      </trkpt>
      <trkpt lat="43.7811" lon="5.31207">
        <ele>306</ele>
        <time>2019-03-25T10:58:26Z</time>
      </trkpt>
      <trkpt lat="43.78116" lon="5.31218">
        <ele>308</ele>
        <time>2019-03-25T10:58:40Z</time>
      </trkpt>
      <trkpt lat="43.78121" lon="5.31229">
        <ele>307</ele>
        <time>2019-03-25T10:58:51Z</time>
      </trkpt>
      <trkpt lat="43.78129" lon="5.31236">
        <ele>309</ele>
        <time>2019-03-25T10:59:01Z</time>
      </trkpt>
      <trkpt lat="43.78141" lon="5.31255">
        <ele>317</ele>
        <time>2019-03-25T10:59:21Z</time>
      </trkpt>
      <trkpt lat="43.78148" lon="5.31264">
        <ele>317</ele>
        <time>2019-03-25T10:59:30Z</time>
      </trkpt>
      <trkpt lat="43.78156" lon="5.3127">
        <ele>318</ele>
        <time>2019-03-25T10:59:38Z</time>
      </trkpt>
      <trkpt lat="43.78164" lon="5.31275">
        <ele>319</ele>
        <time>2019-03-25T10:59:46Z</time>
      </trkpt>
      <trkpt lat="43.78172" lon="5.31283">
        <ele>321</ele>
        <time>2019-03-25T10:59:55Z</time>
      </trkpt>
      <trkpt lat="43.78179" lon="5.31291">
        <ele>322</ele>
        <time>2019-03-25T11:00:05Z</time>
      </trkpt>
      <trkpt lat="43.78187" lon="5.31295">
        <ele>320</ele>
        <time>2019-03-25T11:00:14Z</time>
      </trkpt>
      <trkpt lat="43.78195" lon="5.31302">
        <ele>320</ele>
        <time>2019-03-25T11:00:24Z</time>
      </trkpt>
      <trkpt lat="43.78202" lon="5.31311">
        <ele>321</ele>
        <time>2019-03-25T11:00:34Z</time>
      </trkpt>
      <trkpt lat="43.78211" lon="5.31314">
        <ele>322</ele>
        <time>2019-03-25T11:00:42Z</time>
      </trkpt>
      <trkpt lat="43.7822" lon="5.31315">
        <ele>323</ele>
        <time>2019-03-25T11:00:48Z</time>
      </trkpt>
      <trkpt lat="43.78229" lon="5.31323">
        <ele>324</ele>
        <time>2019-03-25T11:00:58Z</time>
      </trkpt>
      <trkpt lat="43.78236" lon="5.3133">
        <ele>323</ele>
        <time>2019-03-25T11:01:09Z</time>
      </trkpt>
      <trkpt lat="43.78245" lon="5.31335">
        <ele>324</ele>
        <time>2019-03-25T11:01:17Z</time>
      </trkpt>
      <trkpt lat="43.78252" lon="5.31342">
        <ele>320</ele>
        <time>2019-03-25T11:01:26Z</time>
      </trkpt>
      <trkpt lat="43.78259" lon="5.31351">
        <ele>319</ele>
        <time>2019-03-25T11:01:35Z</time>
      </trkpt>
      <trkpt lat="43.78265" lon="5.31361">
        <ele>321</ele>
        <time>2019-03-25T11:01:45Z</time>
      </trkpt>
      <trkpt lat="43.7827" lon="5.31372">
        <ele>326</ele>
        <time>2019-03-25T11:01:54Z</time>
      </trkpt>
      <trkpt lat="43.78274" lon="5.31385">
        <ele>327</ele>
        <time>2019-03-25T11:02:02Z</time>
      </trkpt>
      <trkpt lat="43.78276" lon="5.31398">
        <ele>329</ele>
        <time>2019-03-25T11:02:12Z</time>
      </trkpt>
      <trkpt lat="43.78281" lon="5.3141">
        <ele>329</ele>
        <time>2019-03-25T11:02:22Z</time>
      </trkpt>
      <trkpt lat="43.78286" lon="5.31422">
        <ele>329</ele>
        <time>2019-03-25T11:02:32Z</time>
      </trkpt>
      <trkpt lat="43.78293" lon="5.31429">
        <ele>330</ele>
        <time>2019-03-25T11:02:41Z</time>
      </trkpt>
      <trkpt lat="43.78302" lon="5.31436">
        <ele>331</ele>
        <time>2019-03-25T11:02:50Z</time>
      </trkpt>
      <trkpt lat="43.78312" lon="5.31438">
        <ele>331</ele>
        <time>2019-03-25T11:02:58Z</time>
      </trkpt>
      <trkpt lat="43.78321" lon="5.31443">
        <ele>332</ele>
        <time>2019-03-25T11:03:06Z</time>
      </trkpt>
      <trkpt lat="43.78328" lon="5.31451">
        <ele>334</ele>
        <time>2019-03-25T11:03:16Z</time>
      </trkpt>
      <trkpt lat="43.78335" lon="5.31459">
        <ele>333</ele>
        <time>2019-03-25T11:03:27Z</time>
      </trkpt>
      <trkpt lat="43.78341" lon="5.31469">
        <ele>334</ele>
        <time>2019-03-25T11:03:37Z</time>
      </trkpt>
      <trkpt lat="43.78349" lon="5.31478">
        <ele>337</ele>
        <time>2019-03-25T11:03:47Z</time>
      </trkpt>
      <trkpt lat="43.78356" lon="5.31485">
        <ele>338</ele>
        <time>2019-03-25T11:03:59Z</time>
      </trkpt>
      <trkpt lat="43.78366" lon="5.31486">
        <ele>337</ele>
        <time>2019-03-25T11:04:10Z</time>
      </trkpt>
      <trkpt lat="43.78374" lon="5.31494">
        <ele>338</ele>
        <time>2019-03-25T11:04:21Z</time>
      </trkpt>
      <trkpt lat="43.78383" lon="5.315">
        <ele>337</ele>
        <time>2019-03-25T11:04:30Z</time>
      </trkpt>
      <trkpt lat="43.78391" lon="5.31503">
        <ele>339</ele>
        <time>2019-03-25T11:04:39Z</time>
      </trkpt>
      <trkpt lat="43.78401" lon="5.31504">
        <ele>340</ele>
        <time>2019-03-25T11:04:48Z</time>
      </trkpt>
      <trkpt lat="43.7841" lon="5.31504">
        <ele>340</ele>
        <time>2019-03-25T11:04:56Z</time>
      </trkpt>
      <trkpt lat="43.7842" lon="5.31506">
        <ele>341</ele>
        <time>2019-03-25T11:05:06Z</time>
      </trkpt>
      <trkpt lat="43.7843" lon="5.31508">
        <ele>344</ele>
        <time>2019-03-25T11:05:15Z</time>
      </trkpt>
      <trkpt lat="43.78438" lon="5.31512">
        <ele>345</ele>
        <time>2019-03-25T11:05:24Z</time>
      </trkpt>
      <trkpt lat="43.78447" lon="5.31517">
        <ele>346</ele>
        <time>2019-03-25T11:05:34Z</time>
      </trkpt>
      <trkpt lat="43.78456" lon="5.31522">
        <ele>346</ele>
        <time>2019-03-25T11:05:44Z</time>
      </trkpt>
      <trkpt lat="43.78465" lon="5.31524">
        <ele>345</ele>
        <time>2019-03-25T11:05:53Z</time>
      </trkpt>
      <trkpt lat="43.78474" lon="5.31525">
        <ele>346</ele>
        <time>2019-03-25T11:06:04Z</time>
      </trkpt>
      <trkpt lat="43.78484" lon="5.31529">
        <ele>345</ele>
        <time>2019-03-25T11:06:14Z</time>
      </trkpt>
      <trkpt lat="43.78492" lon="5.31533">
        <ele>348</ele>
        <time>2019-03-25T11:06:23Z</time>
      </trkpt>
      <trkpt lat="43.78502" lon="5.31535">
        <ele>348</ele>
        <time>2019-03-25T11:06:31Z</time>
      </trkpt>
      <trkpt lat="43.78511" lon="5.31539">
        <ele>350</ele>
        <time>2019-03-25T11:06:40Z</time>
      </trkpt>
      <trkpt lat="43.7852" lon="5.31544">
        <ele>353</ele>
        <time>2019-03-25T11:06:51Z</time>
      </trkpt>
      <trkpt lat="43.78529" lon="5.31551">
        <ele>353</ele>
        <time>2019-03-25T11:07:01Z</time>
      </trkpt>
      <trkpt lat="43.78535" lon="5.3156">
        <ele>356</ele>
        <time>2019-03-25T11:07:10Z</time>
      </trkpt>
      <trkpt lat="43.78542" lon="5.31569">
        <ele>355</ele>
        <time>2019-03-25T11:07:19Z</time>
      </trkpt>
      <trkpt lat="43.78548" lon="5.31579">
        <ele>354</ele>
        <time>2019-03-25T11:07:29Z</time>
      </trkpt>
      <trkpt lat="43.78554" lon="5.31589">
        <ele>352</ele>
        <time>2019-03-25T11:07:39Z</time>
      </trkpt>
      <trkpt lat="43.7856" lon="5.31599">
        <ele>353</ele>
        <time>2019-03-25T11:07:48Z</time>
      </trkpt>
      <trkpt lat="43.78565" lon="5.3161">
        <ele>356</ele>
        <time>2019-03-25T11:07:57Z</time>
      </trkpt>
      <trkpt lat="43.78565" lon="5.31624">
        <ele>359</ele>
        <time>2019-03-25T11:08:07Z</time>
      </trkpt>
      <trkpt lat="43.78568" lon="5.31636">
        <ele>356</ele>
        <time>2019-03-25T11:08:17Z</time>
      </trkpt>
      <trkpt lat="43.78573" lon="5.31647">
        <ele>356</ele>
        <time>2019-03-25T11:08:26Z</time>
      </trkpt>
      <trkpt lat="43.78581" lon="5.31656">
        <ele>354</ele>
        <time>2019-03-25T11:08:34Z</time>
      </trkpt>
      <trkpt lat="43.78589" lon="5.31667">
        <ele>356</ele>
        <time>2019-03-25T11:08:43Z</time>
      </trkpt>
      <trkpt lat="43.78591" lon="5.31681">
        <ele>357</ele>
        <time>2019-03-25T11:08:53Z</time>
      </trkpt>
      <trkpt lat="43.78599" lon="5.31693">
        <ele>358</ele>
        <time>2019-03-25T11:09:03Z</time>
      </trkpt>
      <trkpt lat="43.78606" lon="5.31704">
        <ele>360</ele>
        <time>2019-03-25T11:09:13Z</time>
      </trkpt>
      <trkpt lat="43.78608" lon="5.31718">
        <ele>359</ele>
        <time>2019-03-25T11:09:23Z</time>
      </trkpt>
      <trkpt lat="43.7861" lon="5.31731">
        <ele>360</ele>
        <time>2019-03-25T11:09:33Z</time>
      </trkpt>
      <trkpt lat="43.78612" lon="5.31744">
        <ele>360</ele>
        <time>2019-03-25T11:09:43Z</time>
      </trkpt>
      <trkpt lat="43.78612" lon="5.31758">
        <ele>359</ele>
        <time>2019-03-25T11:09:54Z</time>
      </trkpt>
      <trkpt lat="43.78615" lon="5.3177">
        <ele>362</ele>
        <time>2019-03-25T11:10:01Z</time>
      </trkpt>
      <trkpt lat="43.78617" lon="5.31783">
        <ele>364</ele>
        <time>2019-03-25T11:10:11Z</time>
      </trkpt>
      <trkpt lat="43.78619" lon="5.31796">
        <ele>362</ele>
        <time>2019-03-25T11:10:22Z</time>
      </trkpt>
      <trkpt lat="43.78624" lon="5.31807">
        <ele>363</ele>
        <time>2019-03-25T11:10:31Z</time>
      </trkpt>
      <trkpt lat="43.78628" lon="5.31818">
        <ele>365</ele>
        <time>2019-03-25T11:10:40Z</time>
      </trkpt>
      <trkpt lat="43.78631" lon="5.31832">
        <ele>366</ele>
        <time>2019-03-25T11:10:51Z</time>
      </trkpt>
      <trkpt lat="43.78632" lon="5.31845">
        <ele>366</ele>
        <time>2019-03-25T11:11:02Z</time>
      </trkpt>
      <trkpt lat="43.78637" lon="5.31857">
        <ele>366</ele>
        <time>2019-03-25T11:11:13Z</time>
      </trkpt>
      <trkpt lat="43.78642" lon="5.31868">
        <ele>365</ele>
        <time>2019-03-25T11:11:23Z</time>
      </trkpt>
      <trkpt lat="43.78649" lon="5.31874">
        <ele>364</ele>
        <time>2019-03-25T11:11:35Z</time>
      </trkpt>
      <trkpt lat="43.78655" lon="5.31885">
        <ele>365</ele>
        <time>2019-03-25T11:11:50Z</time>
      </trkpt>
      <trkpt lat="43.78663" lon="5.31892">
        <ele>365</ele>
        <time>2019-03-25T11:12:01Z</time>
      </trkpt>
      <trkpt lat="43.7867" lon="5.31901">
        <ele>367</ele>
        <time>2019-03-25T11:12:13Z</time>
      </trkpt>
      <trkpt lat="43.78677" lon="5.3191">
        <ele>367</ele>
        <time>2019-03-25T11:12:28Z</time>
      </trkpt>
      <trkpt lat="43.78683" lon="5.3192">
        <ele>368</ele>
        <time>2019-03-25T11:12:42Z</time>
      </trkpt>
      <trkpt lat="43.78689" lon="5.31929">
        <ele>371</ele>
        <time>2019-03-25T11:12:53Z</time>
      </trkpt>
      <trkpt lat="43.78695" lon="5.31939">
        <ele>372</ele>
        <time>2019-03-25T11:13:09Z</time>
      </trkpt>
      <trkpt lat="43.78696" lon="5.31952">
        <ele>375</ele>
        <time>2019-03-25T11:13:25Z</time>
      </trkpt>
      <trkpt lat="43.787" lon="5.31963">
        <ele>377</ele>
        <time>2019-03-25T11:13:36Z</time>
      </trkpt>
      <trkpt lat="43.78696" lon="5.31974">
        <ele>378</ele>
        <time>2019-03-25T11:13:54Z</time>
      </trkpt>
      <trkpt lat="43.78697" lon="5.31987">
        <ele>380</ele>
        <time>2019-03-25T11:14:06Z</time>
      </trkpt>
      <trkpt lat="43.78699" lon="5.32">
        <ele>382</ele>
        <time>2019-03-25T11:14:16Z</time>
      </trkpt>
      <trkpt lat="43.78703" lon="5.32013">
        <ele>383</ele>
        <time>2019-03-25T11:14:28Z</time>
      </trkpt>
      <trkpt lat="43.78704" lon="5.32025">
        <ele>384</ele>
        <time>2019-03-25T11:14:42Z</time>
      </trkpt>
      <trkpt lat="43.78703" lon="5.32038">
        <ele>386</ele>
        <time>2019-03-25T11:14:58Z</time>
      </trkpt>
      <trkpt lat="43.78707" lon="5.3205">
        <ele>387</ele>
        <time>2019-03-25T11:15:13Z</time>
      </trkpt>
      <trkpt lat="43.78711" lon="5.32062">
        <ele>389</ele>
        <time>2019-03-25T11:15:28Z</time>
      </trkpt>
      <trkpt lat="43.78717" lon="5.32072">
        <ele>391</ele>
        <time>2019-03-25T11:15:42Z</time>
      </trkpt>
      <trkpt lat="43.78723" lon="5.32082">
        <ele>392</ele>
        <time>2019-03-25T11:15:57Z</time>
      </trkpt>
      <trkpt lat="43.78729" lon="5.32091">
        <ele>395</ele>
        <time>2019-03-25T11:16:13Z</time>
      </trkpt>
      <trkpt lat="43.78736" lon="5.32098">
        <ele>397</ele>
        <time>2019-03-25T11:16:26Z</time>
      </trkpt>
      <trkpt lat="43.78745" lon="5.32104">
        <ele>400</ele>
        <time>2019-03-25T11:16:43Z</time>
      </trkpt>
      <trkpt lat="43.78752" lon="5.32111">
        <ele>398</ele>
        <time>2019-03-25T11:16:59Z</time>
      </trkpt>
      <trkpt lat="43.78755" lon="5.32124">
        <ele>402</ele>
        <time>2019-03-25T11:17:17Z</time>
      </trkpt>
      <trkpt lat="43.78756" lon="5.32137">
        <ele>407</ele>
        <time>2019-03-25T11:17:34Z</time>
      </trkpt>
      <trkpt lat="43.78758" lon="5.3215">
        <ele>408</ele>
        <time>2019-03-25T11:17:47Z</time>
      </trkpt>
      <trkpt lat="43.78763" lon="5.32174">
        <ele>410</ele>
        <time>2019-03-25T11:18:11Z</time>
      </trkpt>
      <trkpt lat="43.78765" lon="5.32186">
        <ele>410</ele>
        <time>2019-03-25T11:18:24Z</time>
      </trkpt>
      <trkpt lat="43.78764" lon="5.32199">
        <ele>413</ele>
        <time>2019-03-25T11:18:40Z</time>
      </trkpt>
      <trkpt lat="43.78765" lon="5.32212">
        <ele>418</ele>
        <time>2019-03-25T11:18:54Z</time>
      </trkpt>
      <trkpt lat="43.7877" lon="5.32224">
        <ele>418</ele>
        <time>2019-03-25T11:19:08Z</time>
      </trkpt>
      <trkpt lat="43.78776" lon="5.32234">
        <ele>419</ele>
        <time>2019-03-25T11:19:21Z</time>
      </trkpt>
      <trkpt lat="43.78778" lon="5.32247">
        <ele>422</ele>
        <time>2019-03-25T11:19:37Z</time>
      </trkpt>
      <trkpt lat="43.78779" lon="5.3226">
        <ele>421</ele>
        <time>2019-03-25T11:20:00Z</time>
      </trkpt>
      <trkpt lat="43.78772" lon="5.32268">
        <ele>423</ele>
        <time>2019-03-25T11:20:25Z</time>
      </trkpt>
      <trkpt lat="43.78765" lon="5.32276">
        <ele>429</ele>
        <time>2019-03-25T11:20:43Z</time>
      </trkpt>
      <trkpt lat="43.7876" lon="5.32287">
        <ele>431</ele>
        <time>2019-03-25T11:20:57Z</time>
      </trkpt>
      <trkpt lat="43.78757" lon="5.32299">
        <ele>434</ele>
        <time>2019-03-25T11:21:11Z</time>
      </trkpt>
      <trkpt lat="43.78751" lon="5.32309">
        <ele>438</ele>
        <time>2019-03-25T11:21:31Z</time>
      </trkpt>
      <trkpt lat="43.78747" lon="5.32321">
        <ele>442</ele>
        <time>2019-03-25T11:21:58Z</time>
      </trkpt>
      <trkpt lat="43.78743" lon="5.32333">
        <ele>444</ele>
        <time>2019-03-25T11:22:14Z</time>
      </trkpt>
      <trkpt lat="43.78739" lon="5.32344">
        <ele>448</ele>
        <time>2019-03-25T11:22:38Z</time>
      </trkpt>
      <trkpt lat="43.78733" lon="5.32355">
        <ele>449</ele>
        <time>2019-03-25T11:23:00Z</time>
      </trkpt>
      <trkpt lat="43.78728" lon="5.32366">
        <ele>451</ele>
        <time>2019-03-25T11:23:15Z</time>
      </trkpt>
      <trkpt lat="43.78721" lon="5.32374">
        <ele>454</ele>
        <time>2019-03-25T11:23:46Z</time>
      </trkpt>
      <trkpt lat="43.78715" lon="5.32383">
        <ele>456</ele>
        <time>2019-03-25T11:24:05Z</time>
      </trkpt>
      <trkpt lat="43.78709" lon="5.32393">
        <ele>461</ele>
        <time>2019-03-25T11:24:22Z</time>
      </trkpt>
      <trkpt lat="43.78702" lon="5.32402">
        <ele>463</ele>
        <time>2019-03-25T11:24:39Z</time>
      </trkpt>
      <trkpt lat="43.78697" lon="5.32414">
        <ele>465</ele>
        <time>2019-03-25T11:24:56Z</time>
      </trkpt>
      <trkpt lat="43.78691" lon="5.32423">
        <ele>466</ele>
        <time>2019-03-25T11:25:21Z</time>
      </trkpt>
      <trkpt lat="43.78686" lon="5.32434">
        <ele>470</ele>
        <time>2019-03-25T11:25:50Z</time>
      </trkpt>
      <trkpt lat="43.78678" lon="5.32442">
        <ele>471</ele>
        <time>2019-03-25T11:26:00Z</time>
      </trkpt>
      <trkpt lat="43.78676" lon="5.32454">
        <ele>475</ele>
        <time>2019-03-25T11:26:23Z</time>
      </trkpt>
      <trkpt lat="43.78673" lon="5.32466">
        <ele>476</ele>
        <time>2019-03-25T11:26:38Z</time>
      </trkpt>
      <trkpt lat="43.78665" lon="5.32474">
        <ele>481</ele>
        <time>2019-03-25T11:27:06Z</time>
      </trkpt>
      <trkpt lat="43.7866" lon="5.32485">
        <ele>479</ele>
        <time>2019-03-25T11:27:22Z</time>
      </trkpt>
      <trkpt lat="43.78655" lon="5.32495">
        <ele>482</ele>
        <time>2019-03-25T11:27:36Z</time>
      </trkpt>
      <trkpt lat="43.78649" lon="5.32506">
        <ele>486</ele>
        <time>2019-03-25T11:27:51Z</time>
      </trkpt>
      <trkpt lat="43.78646" lon="5.32518">
        <ele>490</ele>
        <time>2019-03-25T11:28:13Z</time>
      </trkpt>
      <trkpt lat="43.7864" lon="5.32507">
        <ele>502</ele>
        <time>2019-03-25T11:29:14Z</time>
      </trkpt>
      <trkpt lat="43.78638" lon="5.32494">
        <ele>504</ele>
        <time>2019-03-25T11:29:24Z</time>
      </trkpt>
      <trkpt lat="43.78642" lon="5.32469">
        <ele>504</ele>
        <time>2019-03-25T11:29:49Z</time>
      </trkpt>
      <trkpt lat="43.78642" lon="5.32455">
        <ele>506</ele>
        <time>2019-03-25T11:29:59Z</time>
      </trkpt>
      <trkpt lat="43.78642" lon="5.32443">
        <ele>506</ele>
        <time>2019-03-25T11:30:09Z</time>
      </trkpt>
      <trkpt lat="43.7864" lon="5.3243">
        <ele>507</ele>
        <time>2019-03-25T11:30:20Z</time>
      </trkpt>
      <trkpt lat="43.7864" lon="5.32417">
        <ele>507</ele>
        <time>2019-03-25T11:30:30Z</time>
      </trkpt>
      <trkpt lat="43.78638" lon="5.32404">
        <ele>509</ele>
        <time>2019-03-25T11:30:41Z</time>
      </trkpt>
      <trkpt lat="43.78635" lon="5.32392">
        <ele>511</ele>
        <time>2019-03-25T11:30:52Z</time>
      </trkpt>
      <trkpt lat="43.78634" lon="5.32378">
        <ele>511</ele>
        <time>2019-03-25T11:31:01Z</time>
      </trkpt>
      <trkpt lat="43.78633" lon="5.32365">
        <ele>510</ele>
        <time>2019-03-25T11:31:11Z</time>
      </trkpt>
      <trkpt lat="43.7863" lon="5.32353">
        <ele>510</ele>
        <time>2019-03-25T11:31:20Z</time>
      </trkpt>
      <trkpt lat="43.78629" lon="5.3234">
        <ele>512</ele>
        <time>2019-03-25T11:31:30Z</time>
      </trkpt>
      <trkpt lat="43.78627" lon="5.32327">
        <ele>513</ele>
        <time>2019-03-25T11:31:38Z</time>
      </trkpt>
      <trkpt lat="43.78624" lon="5.32315">
        <ele>513</ele>
        <time>2019-03-25T11:31:47Z</time>
      </trkpt>
      <trkpt lat="43.78621" lon="5.32302">
        <ele>516</ele>
        <time>2019-03-25T11:31:56Z</time>
      </trkpt>
      <trkpt lat="43.78618" lon="5.32289">
        <ele>517</ele>
        <time>2019-03-25T11:32:05Z</time>
      </trkpt>
      <trkpt lat="43.78615" lon="5.32278">
        <ele>516</ele>
        <time>2019-03-25T11:32:15Z</time>
      </trkpt>
      <trkpt lat="43.78607" lon="5.3227">
        <ele>518</ele>
        <time>2019-03-25T11:32:22Z</time>
      </trkpt>
      <trkpt lat="43.78599" lon="5.32263">
        <ele>518</ele>
        <time>2019-03-25T11:32:31Z</time>
      </trkpt>
      <trkpt lat="43.78591" lon="5.32257">
        <ele>519</ele>
        <time>2019-03-25T11:32:41Z</time>
      </trkpt>
      <trkpt lat="43.78582" lon="5.32253">
        <ele>519</ele>
        <time>2019-03-25T11:32:50Z</time>
      </trkpt>
      <trkpt lat="43.78573" lon="5.32249">
        <ele>519</ele>
        <time>2019-03-25T11:33:00Z</time>
      </trkpt>
      <trkpt lat="43.78564" lon="5.32249">
        <ele>519</ele>
        <time>2019-03-25T11:33:10Z</time>
      </trkpt>
      <trkpt lat="43.78554" lon="5.32248">
        <ele>520</ele>
        <time>2019-03-25T11:33:20Z</time>
      </trkpt>
      <trkpt lat="43.78545" lon="5.32252">
        <ele>521</ele>
        <time>2019-03-25T11:33:31Z</time>
      </trkpt>
      <trkpt lat="43.78537" lon="5.32258">
        <ele>522</ele>
        <time>2019-03-25T11:33:43Z</time>
      </trkpt>
      <trkpt lat="43.78528" lon="5.32261">
        <ele>521</ele>
        <time>2019-03-25T11:33:53Z</time>
      </trkpt>
      <trkpt lat="43.78518" lon="5.32263">
        <ele>522</ele>
        <time>2019-03-25T11:34:02Z</time>
      </trkpt>
      <trkpt lat="43.78509" lon="5.32266">
        <ele>522</ele>
        <time>2019-03-25T11:34:12Z</time>
      </trkpt>
      <trkpt lat="43.785" lon="5.32264">
        <ele>522</ele>
        <time>2019-03-25T11:34:21Z</time>
      </trkpt>
      <trkpt lat="43.78491" lon="5.32269">
        <ele>523</ele>
        <time>2019-03-25T11:34:34Z</time>
      </trkpt>
      <trkpt lat="43.78482" lon="5.32265">
        <ele>524</ele>
        <time>2019-03-25T11:34:44Z</time>
      </trkpt>
      <trkpt lat="43.78475" lon="5.32257">
        <ele>524</ele>
        <time>2019-03-25T11:34:54Z</time>
      </trkpt>
      <trkpt lat="43.78468" lon="5.32247">
        <ele>525</ele>
        <time>2019-03-25T11:35:14Z</time>
      </trkpt>
      <trkpt lat="43.7846" lon="5.32243">
        <ele>526</ele>
        <time>2019-03-25T11:35:28Z</time>
      </trkpt>
      <trkpt lat="43.78451" lon="5.32242">
        <ele>530</ele>
        <time>2019-03-25T11:35:52Z</time>
      </trkpt>
      <trkpt lat="43.78441" lon="5.32241">
        <ele>532</ele>
        <time>2019-03-25T11:36:09Z</time>
      </trkpt>
      <trkpt lat="43.78432" lon="5.3224">
        <ele>535</ele>
        <time>2019-03-25T11:36:26Z</time>
      </trkpt>
      <trkpt lat="43.78423" lon="5.32235">
        <ele>538</ele>
        <time>2019-03-25T11:36:42Z</time>
      </trkpt>
      <trkpt lat="43.78414" lon="5.32236">
        <ele>540</ele>
        <time>2019-03-25T11:37:01Z</time>
      </trkpt>
      <trkpt lat="43.78406" lon="5.32242">
        <ele>543</ele>
        <time>2019-03-25T11:37:18Z</time>
      </trkpt>
      <trkpt lat="43.78398" lon="5.32248">
        <ele>545</ele>
        <time>2019-03-25T11:37:31Z</time>
      </trkpt>
      <trkpt lat="43.78389" lon="5.32253">
        <ele>548</ele>
        <time>2019-03-25T11:37:47Z</time>
      </trkpt>
      <trkpt lat="43.78381" lon="5.32259">
        <ele>550</ele>
        <time>2019-03-25T11:38:06Z</time>
      </trkpt>
      <trkpt lat="43.78375" lon="5.32269">
        <ele>553</ele>
        <time>2019-03-25T11:38:26Z</time>
      </trkpt>
      <trkpt lat="43.78369" lon="5.32278">
        <ele>556</ele>
        <time>2019-03-25T11:38:42Z</time>
      </trkpt>
      <trkpt lat="43.7836" lon="5.32281">
        <ele>557</ele>
        <time>2019-03-25T11:38:55Z</time>
      </trkpt>
      <trkpt lat="43.78351" lon="5.32285">
        <ele>557</ele>
        <time>2019-03-25T11:39:08Z</time>
      </trkpt>
      <trkpt lat="43.78342" lon="5.3229">
        <ele>559</ele>
        <time>2019-03-25T11:39:20Z</time>
      </trkpt>
      <trkpt lat="43.78333" lon="5.32296">
        <ele>561</ele>
        <time>2019-03-25T11:39:43Z</time>
      </trkpt>
      <trkpt lat="43.78324" lon="5.32299">
        <ele>562</ele>
        <time>2019-03-25T11:39:50Z</time>
      </trkpt>
      <trkpt lat="43.78315" lon="5.32303">
        <ele>564</ele>
        <time>2019-03-25T11:40:01Z</time>
      </trkpt>
      <trkpt lat="43.78311" lon="5.32315">
        <ele>568</ele>
        <time>2019-03-25T11:40:32Z</time>
      </trkpt>
      <trkpt lat="43.78308" lon="5.32327">
        <ele>570</ele>
        <time>2019-03-25T11:40:52Z</time>
      </trkpt>
      <trkpt lat="43.78314" lon="5.32336">
        <ele>572</ele>
        <time>2019-03-25T11:41:08Z</time>
      </trkpt>
      <trkpt lat="43.78322" lon="5.32344">
        <ele>579</ele>
        <time>2019-03-25T11:41:26Z</time>
      </trkpt>
      <trkpt lat="43.78327" lon="5.32356">
        <ele>581</ele>
        <time>2019-03-25T11:41:40Z</time>
      </trkpt>
      <trkpt lat="43.78332" lon="5.32367">
        <ele>582</ele>
        <time>2019-03-25T11:41:54Z</time>
      </trkpt>
      <trkpt lat="43.78334" lon="5.32381">
        <ele>584</ele>
        <time>2019-03-25T11:42:14Z</time>
      </trkpt>
      <trkpt lat="43.78334" lon="5.32394">
        <ele>586</ele>
        <time>2019-03-25T11:42:28Z</time>
      </trkpt>
      <trkpt lat="43.7834" lon="5.32405">
        <ele>589</ele>
        <time>2019-03-25T11:42:42Z</time>
      </trkpt>
      <trkpt lat="43.78345" lon="5.32418">
        <ele>590</ele>
        <time>2019-03-25T11:42:58Z</time>
      </trkpt>
      <trkpt lat="43.78347" lon="5.3243">
        <ele>591</ele>
        <time>2019-03-25T11:43:08Z</time>
      </trkpt>
      <trkpt lat="43.78354" lon="5.3244">
        <ele>592</ele>
        <time>2019-03-25T11:43:18Z</time>
      </trkpt>
      <trkpt lat="43.78361" lon="5.3245">
        <ele>593</ele>
        <time>2019-03-25T11:43:28Z</time>
      </trkpt>
      <trkpt lat="43.78366" lon="5.3246">
        <ele>595</ele>
        <time>2019-03-25T11:43:38Z</time>
      </trkpt>
      <trkpt lat="43.78372" lon="5.32472">
        <ele>596</ele>
        <time>2019-03-25T11:43:50Z</time>
      </trkpt>
      <trkpt lat="43.78377" lon="5.32483">
        <ele>597</ele>
        <time>2019-03-25T11:44:04Z</time>
      </trkpt>
      <trkpt lat="43.78382" lon="5.32495">
        <ele>596</ele>
        <time>2019-03-25T11:44:14Z</time>
      </trkpt>
      <trkpt lat="43.78387" lon="5.32508">
        <ele>598</ele>
        <time>2019-03-25T11:44:26Z</time>
      </trkpt>
      <trkpt lat="43.78388" lon="5.32521">
        <ele>598</ele>
        <time>2019-03-25T11:44:36Z</time>
      </trkpt>
      <trkpt lat="43.78385" lon="5.32535">
        <ele>598</ele>
        <time>2019-03-25T11:44:46Z</time>
      </trkpt>
      <trkpt lat="43.78383" lon="5.32549">
        <ele>597</ele>
        <time>2019-03-25T11:44:56Z</time>
      </trkpt>
      <trkpt lat="43.78382" lon="5.32562">
        <ele>597</ele>
        <time>2019-03-25T11:45:04Z</time>
      </trkpt>
      <trkpt lat="43.78382" lon="5.32575">
        <ele>595</ele>
        <time>2019-03-25T11:45:14Z</time>
      </trkpt>
      <trkpt lat="43.78379" lon="5.3259">
        <ele>595</ele>
        <time>2019-03-25T11:45:24Z</time>
      </trkpt>
      <trkpt lat="43.7838" lon="5.32604">
        <ele>595</ele>
        <time>2019-03-25T11:45:32Z</time>
      </trkpt>
      <trkpt lat="43.7838" lon="5.32619">
        <ele>594</ele>
        <time>2019-03-25T11:45:42Z</time>
      </trkpt>
      <trkpt lat="43.78379" lon="5.32633">
        <ele>594</ele>
        <time>2019-03-25T11:45:52Z</time>
      </trkpt>
      <trkpt lat="43.7838" lon="5.32647">
        <ele>594</ele>
        <time>2019-03-25T11:46:02Z</time>
      </trkpt>
      <trkpt lat="43.78379" lon="5.32661">
        <ele>595</ele>
        <time>2019-03-25T11:46:14Z</time>
      </trkpt>
      <trkpt lat="43.78379" lon="5.32676">
        <ele>595</ele>
        <time>2019-03-25T11:46:26Z</time>
      </trkpt>
      <trkpt lat="43.78378" lon="5.32689">
        <ele>596</ele>
        <time>2019-03-25T11:46:36Z</time>
      </trkpt>
      <trkpt lat="43.7838" lon="5.32703">
        <ele>597</ele>
        <time>2019-03-25T11:46:48Z</time>
      </trkpt>
      <trkpt lat="43.78381" lon="5.32715">
        <ele>597</ele>
        <time>2019-03-25T11:47:00Z</time>
      </trkpt>
      <trkpt lat="43.78385" lon="5.32728">
        <ele>598</ele>
        <time>2019-03-25T11:47:12Z</time>
      </trkpt>
      <trkpt lat="43.78392" lon="5.32738">
        <ele>598</ele>
        <time>2019-03-25T11:47:24Z</time>
      </trkpt>
      <trkpt lat="43.7839" lon="5.3275">
        <ele>600</ele>
        <time>2019-03-25T11:47:34Z</time>
      </trkpt>
      <trkpt lat="43.78392" lon="5.32765">
        <ele>600</ele>
        <time>2019-03-25T11:47:44Z</time>
      </trkpt>
      <trkpt lat="43.78393" lon="5.32778">
        <ele>600</ele>
        <time>2019-03-25T11:47:54Z</time>
      </trkpt>
      <trkpt lat="43.78392" lon="5.32791">
        <ele>600</ele>
        <time>2019-03-25T11:48:04Z</time>
      </trkpt>
      <trkpt lat="43.78398" lon="5.32804">
        <ele>600</ele>
        <time>2019-03-25T11:48:16Z</time>
      </trkpt>
      <trkpt lat="43.78405" lon="5.32811">
        <ele>600</ele>
        <time>2019-03-25T11:48:24Z</time>
      </trkpt>
      <trkpt lat="43.78413" lon="5.32822">
        <ele>599</ele>
        <time>2019-03-25T11:48:34Z</time>
      </trkpt>
      <trkpt lat="43.78421" lon="5.3283">
        <ele>599</ele>
        <time>2019-03-25T11:48:42Z</time>
      </trkpt>
      <trkpt lat="43.78428" lon="5.32839">
        <ele>598</ele>
        <time>2019-03-25T11:48:50Z</time>
      </trkpt>
      <trkpt lat="43.78432" lon="5.3285">
        <ele>597</ele>
        <time>2019-03-25T11:48:58Z</time>
      </trkpt>
      <trkpt lat="43.78441" lon="5.32858">
        <ele>598</ele>
        <time>2019-03-25T11:49:08Z</time>
      </trkpt>
      <trkpt lat="43.78446" lon="5.32869">
        <ele>597</ele>
        <time>2019-03-25T11:49:16Z</time>
      </trkpt>
      <trkpt lat="43.78451" lon="5.3288">
        <ele>597</ele>
        <time>2019-03-25T11:49:24Z</time>
      </trkpt>
      <trkpt lat="43.78459" lon="5.32891">
        <ele>597</ele>
        <time>2019-03-25T11:49:34Z</time>
      </trkpt>
      <trkpt lat="43.78463" lon="5.32902">
        <ele>597</ele>
        <time>2019-03-25T11:49:44Z</time>
      </trkpt>
      <trkpt lat="43.78468" lon="5.32915">
        <ele>597</ele>
        <time>2019-03-25T11:49:54Z</time>
      </trkpt>
      <trkpt lat="43.78471" lon="5.3293">
        <ele>596</ele>
        <time>2019-03-25T11:50:04Z</time>
      </trkpt>
      <trkpt lat="43.78474" lon="5.32943">
        <ele>594</ele>
        <time>2019-03-25T11:50:16Z</time>
      </trkpt>
      <trkpt lat="43.78474" lon="5.32958">
        <ele>594</ele>
        <time>2019-03-25T11:50:26Z</time>
      </trkpt>
      <trkpt lat="43.78476" lon="5.32972">
        <ele>593</ele>
        <time>2019-03-25T11:50:36Z</time>
      </trkpt>
      <trkpt lat="43.78478" lon="5.32985">
        <ele>592</ele>
        <time>2019-03-25T11:51:06Z</time>
      </trkpt>
      <trkpt lat="43.78479" lon="5.32998">
        <ele>591</ele>
        <time>2019-03-25T11:51:16Z</time>
      </trkpt>
      <trkpt lat="43.78484" lon="5.33011">
        <ele>591</ele>
        <time>2019-03-25T11:51:26Z</time>
      </trkpt>
      <trkpt lat="43.78492" lon="5.33021">
        <ele>591</ele>
        <time>2019-03-25T11:51:34Z</time>
      </trkpt>
      <trkpt lat="43.78497" lon="5.33033">
        <ele>591</ele>
        <time>2019-03-25T11:51:42Z</time>
      </trkpt>
      <trkpt lat="43.78497" lon="5.33046">
        <ele>591</ele>
        <time>2019-03-25T11:51:52Z</time>
      </trkpt>
      <trkpt lat="43.78496" lon="5.33059">
        <ele>592</ele>
        <time>2019-03-25T11:52:02Z</time>
      </trkpt>
      <trkpt lat="43.78498" lon="5.33072">
        <ele>592</ele>
        <time>2019-03-25T11:52:12Z</time>
      </trkpt>
      <trkpt lat="43.78502" lon="5.33085">
        <ele>593</ele>
        <time>2019-03-25T11:52:24Z</time>
      </trkpt>
      <trkpt lat="43.78504" lon="5.33099">
        <ele>593</ele>
        <time>2019-03-25T11:52:34Z</time>
      </trkpt>
      <trkpt lat="43.78507" lon="5.33111">
        <ele>594</ele>
        <time>2019-03-25T11:52:44Z</time>
      </trkpt>
      <trkpt lat="43.7851" lon="5.33123">
        <ele>594</ele>
        <time>2019-03-25T11:52:54Z</time>
      </trkpt>
      <trkpt lat="43.78512" lon="5.33137">
        <ele>595</ele>
        <time>2019-03-25T11:53:04Z</time>
      </trkpt>
      <trkpt lat="43.78512" lon="5.33151">
        <ele>595</ele>
        <time>2019-03-25T11:53:14Z</time>
      </trkpt>
      <trkpt lat="43.78511" lon="5.33163">
        <ele>596</ele>
        <time>2019-03-25T11:53:24Z</time>
      </trkpt>
      <trkpt lat="43.78512" lon="5.33177">
        <ele>595</ele>
        <time>2019-03-25T11:53:34Z</time>
      </trkpt>
      <trkpt lat="43.7851" lon="5.3319">
        <ele>594</ele>
        <time>2019-03-25T11:53:44Z</time>
      </trkpt>
      <trkpt lat="43.78509" lon="5.33202">
        <ele>594</ele>
        <time>2019-03-25T11:53:58Z</time>
      </trkpt>
      <trkpt lat="43.78504" lon="5.33216">
        <ele>594</ele>
        <time>2019-03-25T11:54:08Z</time>
      </trkpt>
      <trkpt lat="43.78506" lon="5.3323">
        <ele>591</ele>
        <time>2019-03-25T11:54:18Z</time>
      </trkpt>
      <trkpt lat="43.78507" lon="5.33244">
        <ele>591</ele>
        <time>2019-03-25T11:54:26Z</time>
      </trkpt>
      <trkpt lat="43.78502" lon="5.33256">
        <ele>589</ele>
        <time>2019-03-25T11:54:34Z</time>
      </trkpt>
      <trkpt lat="43.785" lon="5.33268">
        <ele>588</ele>
        <time>2019-03-25T11:54:42Z</time>
      </trkpt>
      <trkpt lat="43.78496" lon="5.33281">
        <ele>586</ele>
        <time>2019-03-25T11:54:50Z</time>
      </trkpt>
      <trkpt lat="43.78489" lon="5.33291">
        <ele>586</ele>
        <time>2019-03-25T11:54:58Z</time>
      </trkpt>
      <trkpt lat="43.78488" lon="5.33304">
        <ele>584</ele>
        <time>2019-03-25T11:55:10Z</time>
      </trkpt>
      <trkpt lat="43.78477" lon="5.33307">
        <ele>584</ele>
        <time>2019-03-25T11:55:20Z</time>
      </trkpt>
      <trkpt lat="43.78468" lon="5.33305">
        <ele>584</ele>
        <time>2019-03-25T11:55:32Z</time>
      </trkpt>
      <trkpt lat="43.7846" lon="5.33301">
        <ele>583</ele>
        <time>2019-03-25T11:55:44Z</time>
      </trkpt>
      <trkpt lat="43.78452" lon="5.3331">
        <ele>580</ele>
        <time>2019-03-25T11:55:58Z</time>
      </trkpt>
      <trkpt lat="43.78442" lon="5.33309">
        <ele>579</ele>
        <time>2019-03-25T11:56:12Z</time>
      </trkpt>
      <trkpt lat="43.78433" lon="5.33314">
        <ele>577</ele>
        <time>2019-03-25T11:56:24Z</time>
      </trkpt>
      <trkpt lat="43.78426" lon="5.33322">
        <ele>574</ele>
        <time>2019-03-25T11:56:36Z</time>
      </trkpt>
      <trkpt lat="43.78417" lon="5.33326">
        <ele>571</ele>
        <time>2019-03-25T11:56:52Z</time>
      </trkpt>
      <trkpt lat="43.78408" lon="5.33331">
        <ele>570</ele>
        <time>2019-03-25T11:57:06Z</time>
      </trkpt>
      <trkpt lat="43.78402" lon="5.33341">
        <ele>567</ele>
        <time>2019-03-25T11:57:18Z</time>
      </trkpt>
      <trkpt lat="43.78396" lon="5.3335">
        <ele>563</ele>
        <time>2019-03-25T11:57:30Z</time>
      </trkpt>
      <trkpt lat="43.78387" lon="5.33353">
        <ele>560</ele>
        <time>2019-03-25T11:57:48Z</time>
      </trkpt>
      <trkpt lat="43.78378" lon="5.33349">
        <ele>557</ele>
        <time>2019-03-25T11:58:10Z</time>
      </trkpt>
      <trkpt lat="43.78368" lon="5.3335">
        <ele>554</ele>
        <time>2019-03-25T11:58:24Z</time>
      </trkpt>
      <trkpt lat="43.78359" lon="5.33351">
        <ele>553</ele>
        <time>2019-03-25T11:58:36Z</time>
      </trkpt>
      <trkpt lat="43.78349" lon="5.33344">
        <ele>551</ele>
        <time>2019-03-25T11:58:48Z</time>
      </trkpt>
      <trkpt lat="43.78341" lon="5.3334">
        <ele>548</ele>
        <time>2019-03-25T11:58:58Z</time>
      </trkpt>
      <trkpt lat="43.78331" lon="5.33334">
        <ele>547</ele>
        <time>2019-03-25T11:59:10Z</time>
      </trkpt>
      <trkpt lat="43.78322" lon="5.33336">
        <ele>545</ele>
        <time>2019-03-25T11:59:20Z</time>
      </trkpt>
      <trkpt lat="43.78313" lon="5.33335">
        <ele>544</ele>
        <time>2019-03-25T11:59:30Z</time>
      </trkpt>
      <trkpt lat="43.78303" lon="5.33336">
        <ele>542</ele>
        <time>2019-03-25T11:59:40Z</time>
      </trkpt>
      <trkpt lat="43.78293" lon="5.33337">
        <ele>541</ele>
        <time>2019-03-25T11:59:50Z</time>
      </trkpt>
      <trkpt lat="43.78283" lon="5.3334">
        <ele>540</ele>
        <time>2019-03-25T12:00:00Z</time>
      </trkpt>
      <trkpt lat="43.78277" lon="5.33331">
        <ele>538</ele>
        <time>2019-03-25T12:00:10Z</time>
      </trkpt>
      <trkpt lat="43.78268" lon="5.33324">
        <ele>537</ele>
        <time>2019-03-25T12:00:20Z</time>
      </trkpt>
      <trkpt lat="43.78259" lon="5.33331">
        <ele>536</ele>
        <time>2019-03-25T12:00:28Z</time>
      </trkpt>
      <trkpt lat="43.78248" lon="5.33334">
        <ele>536</ele>
        <time>2019-03-25T12:00:36Z</time>
      </trkpt>
      <trkpt lat="43.78239" lon="5.33335">
        <ele>535</ele>
        <time>2019-03-25T12:00:44Z</time>
      </trkpt>
      <trkpt lat="43.78229" lon="5.33332">
        <ele>535</ele>
        <time>2019-03-25T12:00:52Z</time>
      </trkpt>
      <trkpt lat="43.78219" lon="5.33329">
        <ele>535</ele>
        <time>2019-03-25T12:01:00Z</time>
      </trkpt>
      <trkpt lat="43.7821" lon="5.33329">
        <ele>535</ele>
        <time>2019-03-25T12:01:08Z</time>
      </trkpt>
      <trkpt lat="43.78199" lon="5.33332">
        <ele>534</ele>
        <time>2019-03-25T12:01:18Z</time>
      </trkpt>
      <trkpt lat="43.7819" lon="5.33339">
        <ele>534</ele>
        <time>2019-03-25T12:01:26Z</time>
      </trkpt>
      <trkpt lat="43.78184" lon="5.3333">
        <ele>533</ele>
        <time>2019-03-25T12:01:36Z</time>
      </trkpt>
      <trkpt lat="43.78176" lon="5.33321">
        <ele>533</ele>
        <time>2019-03-25T12:01:48Z</time>
      </trkpt>
      <trkpt lat="43.78166" lon="5.3332">
        <ele>533</ele>
        <time>2019-03-25T12:02:00Z</time>
      </trkpt>
      <trkpt lat="43.78156" lon="5.33316">
        <ele>534</ele>
        <time>2019-03-25T12:02:12Z</time>
      </trkpt>
      <trkpt lat="43.78145" lon="5.3332">
        <ele>533</ele>
        <time>2019-03-25T12:02:22Z</time>
      </trkpt>
      <trkpt lat="43.78137" lon="5.33327">
        <ele>532</ele>
        <time>2019-03-25T12:02:30Z</time>
      </trkpt>
      <trkpt lat="43.78129" lon="5.33335">
        <ele>531</ele>
        <time>2019-03-25T12:02:38Z</time>
      </trkpt>
      <trkpt lat="43.7812" lon="5.33339">
        <ele>531</ele>
        <time>2019-03-25T12:02:46Z</time>
      </trkpt>
      <trkpt lat="43.78112" lon="5.33344">
        <ele>530</ele>
        <time>2019-03-25T12:02:54Z</time>
      </trkpt>
      <trkpt lat="43.78103" lon="5.3335">
        <ele>529</ele>
        <time>2019-03-25T12:03:04Z</time>
      </trkpt>
      <trkpt lat="43.78099" lon="5.33361">
        <ele>527</ele>
        <time>2019-03-25T12:03:14Z</time>
      </trkpt>
      <trkpt lat="43.78092" lon="5.3337">
        <ele>525</ele>
        <time>2019-03-25T12:03:32Z</time>
      </trkpt>
      <trkpt lat="43.78081" lon="5.33372">
        <ele>525</ele>
        <time>2019-03-25T12:03:42Z</time>
      </trkpt>
      <trkpt lat="43.78072" lon="5.33371">
        <ele>524</ele>
        <time>2019-03-25T12:03:50Z</time>
      </trkpt>
      <trkpt lat="43.78075" lon="5.33383">
        <ele>521</ele>
        <time>2019-03-25T12:04:14Z</time>
      </trkpt>
      <trkpt lat="43.78069" lon="5.33395">
        <ele>519</ele>
        <time>2019-03-25T12:04:24Z</time>
      </trkpt>
      <trkpt lat="43.78066" lon="5.33409">
        <ele>516</ele>
        <time>2019-03-25T12:04:36Z</time>
      </trkpt>
      <trkpt lat="43.78061" lon="5.33421">
        <ele>514</ele>
        <time>2019-03-25T12:04:48Z</time>
      </trkpt>
      <trkpt lat="43.78062" lon="5.33434">
        <ele>511</ele>
        <time>2019-03-25T12:05:02Z</time>
      </trkpt>
      <trkpt lat="43.78071" lon="5.33439">
        <ele>510</ele>
        <time>2019-03-25T12:05:12Z</time>
      </trkpt>
      <trkpt lat="43.78074" lon="5.33451">
        <ele>507</ele>
        <time>2019-03-25T12:05:26Z</time>
      </trkpt>
      <trkpt lat="43.78068" lon="5.33461">
        <ele>506</ele>
        <time>2019-03-25T12:05:36Z</time>
      </trkpt>
      <trkpt lat="43.78069" lon="5.33474">
        <ele>502</ele>
        <time>2019-03-25T12:05:50Z</time>
      </trkpt>
      <trkpt lat="43.7807" lon="5.33488">
        <ele>499</ele>
        <time>2019-03-25T12:06:06Z</time>
      </trkpt>
      <trkpt lat="43.78072" lon="5.33501">
        <ele>497</ele>
        <time>2019-03-25T12:06:22Z</time>
      </trkpt>
      <trkpt lat="43.7807" lon="5.33515">
        <ele>495</ele>
        <time>2019-03-25T12:06:36Z</time>
      </trkpt>
      <trkpt lat="43.78064" lon="5.33525">
        <ele>493</ele>
        <time>2019-03-25T12:06:46Z</time>
      </trkpt>
      <trkpt lat="43.78055" lon="5.33526">
        <ele>493</ele>
        <time>2019-03-25T12:06:56Z</time>
      </trkpt>
      <trkpt lat="43.78045" lon="5.33526">
        <ele>492</ele>
        <time>2019-03-25T12:07:06Z</time>
      </trkpt>
      <trkpt lat="43.78043" lon="5.3354">
        <ele>490</ele>
        <time>2019-03-25T12:07:18Z</time>
      </trkpt>
      <trkpt lat="43.78034" lon="5.33541">
        <ele>490</ele>
        <time>2019-03-25T12:07:28Z</time>
      </trkpt>
      <trkpt lat="43.78025" lon="5.33535">
        <ele>487</ele>
        <time>2019-03-25T12:07:44Z</time>
      </trkpt>
      <trkpt lat="43.78018" lon="5.33542">
        <ele>482</ele>
        <time>2019-03-25T12:08:08Z</time>
      </trkpt>
      <trkpt lat="43.7801" lon="5.33548">
        <ele>479</ele>
        <time>2019-03-25T12:08:25Z</time>
      </trkpt>
      <trkpt lat="43.78005" lon="5.33559">
        <ele>477</ele>
        <time>2019-03-25T12:08:40Z</time>
      </trkpt>
      <trkpt lat="43.77999" lon="5.33568">
        <ele>473</ele>
        <time>2019-03-25T12:08:55Z</time>
      </trkpt>
      <trkpt lat="43.77992" lon="5.33576">
        <ele>471</ele>
        <time>2019-03-25T12:09:05Z</time>
      </trkpt>
      <trkpt lat="43.77984" lon="5.33584">
        <ele>467</ele>
        <time>2019-03-25T12:09:21Z</time>
      </trkpt>
      <trkpt lat="43.77977" lon="5.33591">
        <ele>466</ele>
        <time>2019-03-25T12:09:32Z</time>
      </trkpt>
      <trkpt lat="43.77971" lon="5.33602">
        <ele>464</ele>
        <time>2019-03-25T12:09:41Z</time>
      </trkpt>
      <trkpt lat="43.77963" lon="5.33609">
        <ele>462</ele>
        <time>2019-03-25T12:09:51Z</time>
      </trkpt>
      <trkpt lat="43.7796" lon="5.33622">
        <ele>459</ele>
        <time>2019-03-25T12:10:06Z</time>
      </trkpt>
      <trkpt lat="43.77956" lon="5.33633">
        <ele>458</ele>
        <time>2019-03-25T12:10:16Z</time>
      </trkpt>
      <trkpt lat="43.77954" lon="5.33645">
        <ele>456</ele>
        <time>2019-03-25T12:10:28Z</time>
      </trkpt>
      <trkpt lat="43.77948" lon="5.33655">
        <ele>455</ele>
        <time>2019-03-25T12:10:39Z</time>
      </trkpt>
      <trkpt lat="43.7794" lon="5.33661">
        <ele>451</ele>
        <time>2019-03-25T12:10:48Z</time>
      </trkpt>
      <trkpt lat="43.77935" lon="5.33672">
        <ele>452</ele>
        <time>2019-03-25T12:10:58Z</time>
      </trkpt>
      <trkpt lat="43.77927" lon="5.33684">
        <ele>451</ele>
        <time>2019-03-25T12:11:06Z</time>
      </trkpt>
      <trkpt lat="43.77924" lon="5.33697">
        <ele>450</ele>
        <time>2019-03-25T12:11:18Z</time>
      </trkpt>
      <trkpt lat="43.77927" lon="5.33709">
        <ele>448</ele>
        <time>2019-03-25T12:11:26Z</time>
      </trkpt>
      <trkpt lat="43.77925" lon="5.33724">
        <ele>446</ele>
        <time>2019-03-25T12:11:38Z</time>
      </trkpt>
      <trkpt lat="43.7792" lon="5.33738">
        <ele>445</ele>
        <time>2019-03-25T12:11:48Z</time>
      </trkpt>
      <trkpt lat="43.77916" lon="5.33752">
        <ele>444</ele>
        <time>2019-03-25T12:11:56Z</time>
      </trkpt>
      <trkpt lat="43.7791" lon="5.33765">
        <ele>442</ele>
        <time>2019-03-25T12:12:06Z</time>
      </trkpt>
      <trkpt lat="43.77902" lon="5.33777">
        <ele>440</ele>
        <time>2019-03-25T12:12:14Z</time>
      </trkpt>
      <trkpt lat="43.77896" lon="5.3379">
        <ele>438</ele>
        <time>2019-03-25T12:12:22Z</time>
      </trkpt>
      <trkpt lat="43.7789" lon="5.33802">
        <ele>437</ele>
        <time>2019-03-25T12:12:38Z</time>
      </trkpt>
      <trkpt lat="43.77882" lon="5.33809">
        <ele>436</ele>
        <time>2019-03-25T12:12:46Z</time>
      </trkpt>
      <trkpt lat="43.77877" lon="5.33819">
        <ele>435</ele>
        <time>2019-03-25T12:12:54Z</time>
      </trkpt>
      <trkpt lat="43.77867" lon="5.33826">
        <ele>433</ele>
        <time>2019-03-25T12:13:12Z</time>
      </trkpt>
      <trkpt lat="43.77858" lon="5.33833">
        <ele>433</ele>
        <time>2019-03-25T12:13:20Z</time>
      </trkpt>
      <trkpt lat="43.77849" lon="5.33837">
        <ele>432</ele>
        <time>2019-03-25T12:13:26Z</time>
      </trkpt>
      <trkpt lat="43.77842" lon="5.33846">
        <ele>430</ele>
        <time>2019-03-25T12:13:34Z</time>
      </trkpt>
      <trkpt lat="43.77837" lon="5.33858">
        <ele>426</ele>
        <time>2019-03-25T12:14:02Z</time>
      </trkpt>
      <trkpt lat="43.77833" lon="5.33872">
        <ele>424</ele>
        <time>2019-03-25T12:14:08Z</time>
      </trkpt>
      <trkpt lat="43.7783" lon="5.33884">
        <ele>422</ele>
        <time>2019-03-25T12:14:14Z</time>
      </trkpt>
      <trkpt lat="43.77825" lon="5.33896">
        <ele>421</ele>
        <time>2019-03-25T12:14:24Z</time>
      </trkpt>
      <trkpt lat="43.77817" lon="5.33905">
        <ele>421</ele>
        <time>2019-03-25T12:14:34Z</time>
      </trkpt>
      <trkpt lat="43.77809" lon="5.33913">
        <ele>421</ele>
        <time>2019-03-25T12:14:42Z</time>
      </trkpt>
      <trkpt lat="43.77805" lon="5.33924">
        <ele>419</ele>
        <time>2019-03-25T12:14:48Z</time>
      </trkpt>
      <trkpt lat="43.77801" lon="5.33938">
        <ele>417</ele>
        <time>2019-03-25T12:14:58Z</time>
      </trkpt>
      <trkpt lat="43.77798" lon="5.33951">
        <ele>416</ele>
        <time>2019-03-25T12:15:10Z</time>
      </trkpt>
      <trkpt lat="43.77791" lon="5.33961">
        <ele>414</ele>
        <time>2019-03-25T12:15:20Z</time>
      </trkpt>
      <trkpt lat="43.77783" lon="5.33968">
        <ele>413</ele>
        <time>2019-03-25T12:15:30Z</time>
      </trkpt>
      <trkpt lat="43.77775" lon="5.33978">
        <ele>412</ele>
        <time>2019-03-25T12:15:38Z</time>
      </trkpt>
      <trkpt lat="43.77767" lon="5.33983">
        <ele>411</ele>
        <time>2019-03-25T12:15:44Z</time>
      </trkpt>
      <trkpt lat="43.7776" lon="5.33991">
        <ele>410</ele>
        <time>2019-03-25T12:15:52Z</time>
      </trkpt>
      <trkpt lat="43.7775" lon="5.33999">
        <ele>408</ele>
        <time>2019-03-25T12:16:06Z</time>
      </trkpt>
      <trkpt lat="43.77745" lon="5.3401">
        <ele>407</ele>
        <time>2019-03-25T12:16:12Z</time>
      </trkpt>
      <trkpt lat="43.77739" lon="5.3402">
        <ele>406</ele>
        <time>2019-03-25T12:16:24Z</time>
      </trkpt>
      <trkpt lat="43.77731" lon="5.34029">
        <ele>405</ele>
        <time>2019-03-25T12:16:36Z</time>
      </trkpt>
      <trkpt lat="43.77722" lon="5.34025">
        <ele>404</ele>
        <time>2019-03-25T12:16:46Z</time>
      </trkpt>
      <trkpt lat="43.7771" lon="5.34016">
        <ele>403</ele>
        <time>2019-03-25T12:16:52Z</time>
      </trkpt>
      <trkpt lat="43.777" lon="5.34022">
        <ele>401</ele>
        <time>2019-03-25T12:17:02Z</time>
      </trkpt>
      <trkpt lat="43.77688" lon="5.34032">
        <ele>399</ele>
        <time>2019-03-25T12:17:08Z</time>
      </trkpt>
      <trkpt lat="43.77691" lon="5.34046">
        <ele>399</ele>
        <time>2019-03-25T12:17:14Z</time>
      </trkpt>
      <trkpt lat="43.77679" lon="5.3404">
        <ele>397</ele>
        <time>2019-03-25T12:17:20Z</time>
      </trkpt>
      <trkpt lat="43.7767" lon="5.34034">
        <ele>396</ele>
        <time>2019-03-25T12:17:30Z</time>
      </trkpt>
      <trkpt lat="43.7766" lon="5.34038">
        <ele>394</ele>
        <time>2019-03-25T12:17:42Z</time>
      </trkpt>
      <trkpt lat="43.77655" lon="5.34028">
        <ele>393</ele>
        <time>2019-03-25T12:17:50Z</time>
      </trkpt>
      <trkpt lat="43.77646" lon="5.34042">
        <ele>391</ele>
        <time>2019-03-25T12:17:56Z</time>
      </trkpt>
      <trkpt lat="43.77639" lon="5.34053">
        <ele>389</ele>
        <time>2019-03-25T12:18:04Z</time>
      </trkpt>
      <trkpt lat="43.77633" lon="5.34063">
        <ele>389</ele>
        <time>2019-03-25T12:18:12Z</time>
      </trkpt>
      <trkpt lat="43.77623" lon="5.34052">
        <ele>387</ele>
        <time>2019-03-25T12:18:30Z</time>
      </trkpt>
      <trkpt lat="43.77613" lon="5.34055">
        <ele>386</ele>
        <time>2019-03-25T12:18:40Z</time>
      </trkpt>
      <trkpt lat="43.77604" lon="5.34065">
        <ele>386</ele>
        <time>2019-03-25T12:18:48Z</time>
      </trkpt>
      <trkpt lat="43.77598" lon="5.34078">
        <ele>384</ele>
        <time>2019-03-25T12:18:54Z</time>
      </trkpt>
      <trkpt lat="43.77587" lon="5.34078">
        <ele>382</ele>
        <time>2019-03-25T12:19:04Z</time>
      </trkpt>
      <trkpt lat="43.77576" lon="5.34085">
        <ele>381</ele>
        <time>2019-03-25T12:19:14Z</time>
      </trkpt>
      <trkpt lat="43.77571" lon="5.34097">
        <ele>380</ele>
        <time>2019-03-25T12:19:22Z</time>
      </trkpt>
      <trkpt lat="43.77564" lon="5.34107">
        <ele>378</ele>
        <time>2019-03-25T12:19:32Z</time>
      </trkpt>
      <trkpt lat="43.77555" lon="5.34111">
        <ele>377</ele>
        <time>2019-03-25T12:19:42Z</time>
      </trkpt>
      <trkpt lat="43.77551" lon="5.34123">
        <ele>376</ele>
        <time>2019-03-25T12:19:50Z</time>
      </trkpt>
      <trkpt lat="43.77546" lon="5.34135">
        <ele>375</ele>
        <time>2019-03-25T12:20:04Z</time>
      </trkpt>
      <trkpt lat="43.77545" lon="5.34147">
        <ele>374</ele>
        <time>2019-03-25T12:20:12Z</time>
      </trkpt>
      <trkpt lat="43.77538" lon="5.34162">
        <ele>373</ele>
        <time>2019-03-25T12:20:20Z</time>
      </trkpt>
      <trkpt lat="43.77534" lon="5.34175">
        <ele>371</ele>
        <time>2019-03-25T12:20:26Z</time>
      </trkpt>
      <trkpt lat="43.7753" lon="5.34188">
        <ele>370</ele>
        <time>2019-03-25T12:20:36Z</time>
      </trkpt>
      <trkpt lat="43.77521" lon="5.34194">
        <ele>368</ele>
        <time>2019-03-25T12:20:46Z</time>
      </trkpt>
      <trkpt lat="43.77512" lon="5.34203">
        <ele>367</ele>
        <time>2019-03-25T12:21:00Z</time>
      </trkpt>
      <trkpt lat="43.77509" lon="5.34217">
        <ele>363</ele>
        <time>2019-03-25T12:21:16Z</time>
      </trkpt>
      <trkpt lat="43.77512" lon="5.34229">
        <ele>361</ele>
        <time>2019-03-25T12:21:24Z</time>
      </trkpt>
      <trkpt lat="43.77502" lon="5.34236">
        <ele>360</ele>
        <time>2019-03-25T12:21:32Z</time>
      </trkpt>
      <trkpt lat="43.77492" lon="5.34236">
        <ele>359</ele>
        <time>2019-03-25T12:21:42Z</time>
      </trkpt>
      <trkpt lat="43.77486" lon="5.34249">
        <ele>356</ele>
        <time>2019-03-25T12:21:50Z</time>
      </trkpt>
      <trkpt lat="43.77488" lon="5.34264">
        <ele>355</ele>
        <time>2019-03-25T12:22:02Z</time>
      </trkpt>
      <trkpt lat="43.77478" lon="5.34274">
        <ele>354</ele>
        <time>2019-03-25T12:22:08Z</time>
      </trkpt>
      <trkpt lat="43.77486" lon="5.34284">
        <ele>352</ele>
        <time>2019-03-25T12:22:26Z</time>
      </trkpt>
      <trkpt lat="43.77495" lon="5.34288">
        <ele>350</ele>
        <time>2019-03-25T12:22:32Z</time>
      </trkpt>
      <trkpt lat="43.775" lon="5.34302">
        <ele>351</ele>
        <time>2019-03-25T12:22:38Z</time>
      </trkpt>
      <trkpt lat="43.77497" lon="5.34315">
        <ele>349</ele>
        <time>2019-03-25T12:22:46Z</time>
      </trkpt>
      <trkpt lat="43.77495" lon="5.3433">
        <ele>348</ele>
        <time>2019-03-25T12:22:52Z</time>
      </trkpt>
      <trkpt lat="43.77495" lon="5.34346">
        <ele>346</ele>
        <time>2019-03-25T12:23:00Z</time>
      </trkpt>
      <trkpt lat="43.77499" lon="5.34357">
        <ele>345</ele>
        <time>2019-03-25T12:23:08Z</time>
      </trkpt>
      <trkpt lat="43.77501" lon="5.34369">
        <ele>343</ele>
        <time>2019-03-25T12:23:16Z</time>
      </trkpt>
      <trkpt lat="43.77504" lon="5.34387">
        <ele>343</ele>
        <time>2019-03-25T12:23:28Z</time>
      </trkpt>
      <trkpt lat="43.77497" lon="5.34401">
        <ele>342</ele>
        <time>2019-03-25T12:23:34Z</time>
      </trkpt>
      <trkpt lat="43.7749" lon="5.34411">
        <ele>342</ele>
        <time>2019-03-25T12:23:42Z</time>
      </trkpt>
      <trkpt lat="43.77495" lon="5.34423">
        <ele>339</ele>
        <time>2019-03-25T12:23:52Z</time>
      </trkpt>
      <trkpt lat="43.77495" lon="5.34438">
        <ele>338</ele>
        <time>2019-03-25T12:24:00Z</time>
      </trkpt>
      <trkpt lat="43.77497" lon="5.34451">
        <ele>336</ele>
        <time>2019-03-25T12:24:10Z</time>
      </trkpt>
      <trkpt lat="43.7749" lon="5.34461">
        <ele>336</ele>
        <time>2019-03-25T12:24:16Z</time>
      </trkpt>
      <trkpt lat="43.77486" lon="5.34472">
        <ele>335</ele>
        <time>2019-03-25T12:24:28Z</time>
      </trkpt>
      <trkpt lat="43.77487" lon="5.3449">
        <ele>334</ele>
        <time>2019-03-25T12:24:38Z</time>
      </trkpt>
      <trkpt lat="43.77479" lon="5.34497">
        <ele>333</ele>
        <time>2019-03-25T12:24:48Z</time>
      </trkpt>
      <trkpt lat="43.77486" lon="5.3451">
        <ele>332</ele>
        <time>2019-03-25T12:24:54Z</time>
      </trkpt>
      <trkpt lat="43.77485" lon="5.34526">
        <ele>331</ele>
        <time>2019-03-25T12:25:02Z</time>
      </trkpt>
      <trkpt lat="43.77483" lon="5.34538">
        <ele>329</ele>
        <time>2019-03-25T12:25:20Z</time>
      </trkpt>
      <trkpt lat="43.77478" lon="5.34551">
        <ele>328</ele>
        <time>2019-03-25T12:25:26Z</time>
      </trkpt>
      <trkpt lat="43.77477" lon="5.34564">
        <ele>326</ele>
        <time>2019-03-25T12:25:38Z</time>
      </trkpt>
      <trkpt lat="43.77477" lon="5.34578">
        <ele>325</ele>
        <time>2019-03-25T12:25:48Z</time>
      </trkpt>
      <trkpt lat="43.77475" lon="5.34596">
        <ele>324</ele>
        <time>2019-03-25T12:25:54Z</time>
      </trkpt>
      <trkpt lat="43.7747" lon="5.34607">
        <ele>323</ele>
        <time>2019-03-25T12:26:02Z</time>
      </trkpt>
      <trkpt lat="43.77463" lon="5.34616">
        <ele>323</ele>
        <time>2019-03-25T12:26:10Z</time>
      </trkpt>
      <trkpt lat="43.77455" lon="5.34625">
        <ele>322</ele>
        <time>2019-03-25T12:26:22Z</time>
      </trkpt>
      <trkpt lat="43.77453" lon="5.34642">
        <ele>321</ele>
        <time>2019-03-25T12:26:30Z</time>
      </trkpt>
      <trkpt lat="43.77446" lon="5.34649">
        <ele>320</ele>
        <time>2019-03-25T12:26:42Z</time>
      </trkpt>
      <trkpt lat="43.77437" lon="5.34654">
        <ele>319</ele>
        <time>2019-03-25T12:26:52Z</time>
      </trkpt>
      <trkpt lat="43.77434" lon="5.34666">
        <ele>317</ele>
        <time>2019-03-25T12:27:02Z</time>
      </trkpt>
      <trkpt lat="43.77434" lon="5.34682">
        <ele>315</ele>
        <time>2019-03-25T12:27:12Z</time>
      </trkpt>
      <trkpt lat="43.77432" lon="5.34696">
        <ele>315</ele>
        <time>2019-03-25T12:27:24Z</time>
      </trkpt>
      <trkpt lat="43.77429" lon="5.34711">
        <ele>311</ele>
        <time>2019-03-25T12:27:40Z</time>
      </trkpt>
      <trkpt lat="43.7743" lon="5.34724">
        <ele>310</ele>
        <time>2019-03-25T12:27:48Z</time>
      </trkpt>
      <trkpt lat="43.77436" lon="5.34735">
        <ele>309</ele>
        <time>2019-03-25T12:27:54Z</time>
      </trkpt>
      <trkpt lat="43.7743" lon="5.34748">
        <ele>307</ele>
        <time>2019-03-25T12:28:04Z</time>
      </trkpt>
      <trkpt lat="43.77424" lon="5.3476">
        <ele>306</ele>
        <time>2019-03-25T12:28:14Z</time>
      </trkpt>
      <trkpt lat="43.77415" lon="5.34767">
        <ele>306</ele>
        <time>2019-03-25T12:28:22Z</time>
      </trkpt>
      <trkpt lat="43.77406" lon="5.34772">
        <ele>306</ele>
        <time>2019-03-25T12:28:30Z</time>
      </trkpt>
      <trkpt lat="43.77396" lon="5.34782">
        <ele>304</ele>
        <time>2019-03-25T12:28:42Z</time>
      </trkpt>
      <trkpt lat="43.77388" lon="5.34788">
        <ele>304</ele>
        <time>2019-03-25T12:28:52Z</time>
      </trkpt>
      <trkpt lat="43.77384" lon="5.34802">
        <ele>302</ele>
        <time>2019-03-25T12:29:02Z</time>
      </trkpt>
      <trkpt lat="43.77379" lon="5.34812">
        <ele>301</ele>
        <time>2019-03-25T12:29:08Z</time>
      </trkpt>
      <trkpt lat="43.77368" lon="5.3482">
        <ele>301</ele>
        <time>2019-03-25T12:29:16Z</time>
      </trkpt>
      <trkpt lat="43.77357" lon="5.34823">
        <ele>301</ele>
        <time>2019-03-25T12:29:28Z</time>
      </trkpt>
      <trkpt lat="43.77355" lon="5.34837">
        <ele>298</ele>
        <time>2019-03-25T12:29:38Z</time>
      </trkpt>
      <trkpt lat="43.77352" lon="5.34849">
        <ele>298</ele>
        <time>2019-03-25T12:29:44Z</time>
      </trkpt>
      <trkpt lat="43.77344" lon="5.34857">
        <ele>296</ele>
        <time>2019-03-25T12:29:52Z</time>
      </trkpt>
      <trkpt lat="43.77335" lon="5.34859">
        <ele>296</ele>
        <time>2019-03-25T12:30:02Z</time>
      </trkpt>
      <trkpt lat="43.77325" lon="5.34859">
        <ele>295</ele>
        <time>2019-03-25T12:30:12Z</time>
      </trkpt>
      <trkpt lat="43.77318" lon="5.34848">
        <ele>295</ele>
        <time>2019-03-25T12:30:24Z</time>
      </trkpt>
      <trkpt lat="43.77312" lon="5.34837">
        <ele>295</ele>
        <time>2019-03-25T12:30:42Z</time>
      </trkpt>
      <trkpt lat="43.77302" lon="5.34834">
        <ele>294</ele>
        <time>2019-03-25T12:30:54Z</time>
      </trkpt>
      <trkpt lat="43.77293" lon="5.34827">
        <ele>294</ele>
        <time>2019-03-25T12:31:02Z</time>
      </trkpt>
      <trkpt lat="43.77283" lon="5.34826">
        <ele>293</ele>
        <time>2019-03-25T12:31:10Z</time>
      </trkpt>
      <trkpt lat="43.77273" lon="5.34824">
        <ele>293</ele>
        <time>2019-03-25T12:31:16Z</time>
      </trkpt>
      <trkpt lat="43.77263" lon="5.34822">
        <ele>291</ele>
        <time>2019-03-25T12:31:24Z</time>
      </trkpt>
      <trkpt lat="43.77254" lon="5.34825">
        <ele>289</ele>
        <time>2019-03-25T12:31:36Z</time>
      </trkpt>
      <trkpt lat="43.77246" lon="5.34817">
        <ele>289</ele>
        <time>2019-03-25T12:31:46Z</time>
      </trkpt>
      <trkpt lat="43.77236" lon="5.34812">
        <ele>289</ele>
        <time>2019-03-25T12:31:54Z</time>
      </trkpt>
      <trkpt lat="43.77226" lon="5.34814">
        <ele>287</ele>
        <time>2019-03-25T12:32:06Z</time>
      </trkpt>
      <trkpt lat="43.77217" lon="5.34812">
        <ele>285</ele>
        <time>2019-03-25T12:32:18Z</time>
      </trkpt>
      <trkpt lat="43.77215" lon="5.34797">
        <ele>283</ele>
        <time>2019-03-25T12:32:30Z</time>
      </trkpt>
      <trkpt lat="43.77213" lon="5.34783">
        <ele>282</ele>
        <time>2019-03-25T12:32:40Z</time>
      </trkpt>
      <trkpt lat="43.7721" lon="5.34769">
        <ele>280</ele>
        <time>2019-03-25T12:32:52Z</time>
      </trkpt>
      <trkpt lat="43.77209" lon="5.34753">
        <ele>278</ele>
        <time>2019-03-25T12:33:04Z</time>
      </trkpt>
      <trkpt lat="43.77208" lon="5.34739">
        <ele>277</ele>
        <time>2019-03-25T12:33:14Z</time>
      </trkpt>
      <trkpt lat="43.77209" lon="5.34724">
        <ele>276</ele>
        <time>2019-03-25T12:33:24Z</time>
      </trkpt>
      <trkpt lat="43.77211" lon="5.3471">
        <ele>276</ele>
        <time>2019-03-25T12:33:34Z</time>
      </trkpt>
      <trkpt lat="43.77214" lon="5.34698">
        <ele>276</ele>
        <time>2019-03-25T12:33:42Z</time>
      </trkpt>
      <trkpt lat="43.77208" lon="5.34688">
        <ele>275</ele>
        <time>2019-03-25T12:33:52Z</time>
      </trkpt>
      <trkpt lat="43.77198" lon="5.34684">
        <ele>273</ele>
        <time>2019-03-25T12:34:04Z</time>
      </trkpt>
      <trkpt lat="43.77188" lon="5.34683">
        <ele>272</ele>
        <time>2019-03-25T12:34:16Z</time>
      </trkpt>
      <trkpt lat="43.77178" lon="5.34685">
        <ele>271</ele>
        <time>2019-03-25T12:34:28Z</time>
      </trkpt>
      <trkpt lat="43.77169" lon="5.34682">
        <ele>269</ele>
        <time>2019-03-25T12:34:40Z</time>
      </trkpt>
      <trkpt lat="43.77165" lon="5.34669">
        <ele>269</ele>
        <time>2019-03-25T12:34:48Z</time>
      </trkpt>
      <trkpt lat="43.77159" lon="5.34659">
        <ele>267</ele>
        <time>2019-03-25T12:35:00Z</time>
      </trkpt>
      <trkpt lat="43.77157" lon="5.34644">
        <ele>265</ele>
        <time>2019-03-25T12:35:10Z</time>
      </trkpt>
      <trkpt lat="43.77157" lon="5.34631">
        <ele>265</ele>
        <time>2019-03-25T12:35:18Z</time>
      </trkpt>
      <trkpt lat="43.7716" lon="5.34617">
        <ele>263</ele>
        <time>2019-03-25T12:35:26Z</time>
      </trkpt>
      <trkpt lat="43.77165" lon="5.34603">
        <ele>263</ele>
        <time>2019-03-25T12:35:36Z</time>
      </trkpt>
      <trkpt lat="43.77166" lon="5.34589">
        <ele>263</ele>
        <time>2019-03-25T12:35:46Z</time>
      </trkpt>
      <trkpt lat="43.77169" lon="5.34574">
        <ele>264</ele>
        <time>2019-03-25T12:35:56Z</time>
      </trkpt>
      <trkpt lat="43.77172" lon="5.34561">
        <ele>264</ele>
        <time>2019-03-25T12:36:06Z</time>
      </trkpt>
      <trkpt lat="43.77179" lon="5.34555">
        <ele>264</ele>
        <time>2019-03-25T12:36:16Z</time>
      </trkpt>
      <trkpt lat="43.77169" lon="5.34557">
        <ele>263</ele>
        <time>2019-03-25T12:36:26Z</time>
      </trkpt>
      <trkpt lat="43.7716" lon="5.34564">
        <ele>262</ele>
        <time>2019-03-25T12:36:34Z</time>
      </trkpt>
      <trkpt lat="43.7715" lon="5.34562">
        <ele>261</ele>
        <time>2019-03-25T12:36:44Z</time>
      </trkpt>
      <trkpt lat="43.77141" lon="5.34568">
        <ele>260</ele>
        <time>2019-03-25T12:36:54Z</time>
      </trkpt>
      <trkpt lat="43.77132" lon="5.34568">
        <ele>259</ele>
        <time>2019-03-25T12:37:02Z</time>
      </trkpt>
      <trkpt lat="43.77123" lon="5.34573">
        <ele>258</ele>
        <time>2019-03-25T12:37:10Z</time>
      </trkpt>
      <trkpt lat="43.77114" lon="5.34572">
        <ele>257</ele>
        <time>2019-03-25T12:37:20Z</time>
      </trkpt>
      <trkpt lat="43.77105" lon="5.34574">
        <ele>256</ele>
        <time>2019-03-25T12:37:28Z</time>
      </trkpt>
      <trkpt lat="43.77094" lon="5.34571">
        <ele>256</ele>
        <time>2019-03-25T12:37:38Z</time>
      </trkpt>
      <trkpt lat="43.77085" lon="5.34575">
        <ele>255</ele>
        <time>2019-03-25T12:37:50Z</time>
      </trkpt>
      <trkpt lat="43.77076" lon="5.34573">
        <ele>254</ele>
        <time>2019-03-25T12:38:02Z</time>
      </trkpt>
      <trkpt lat="43.77075" lon="5.34585">
        <ele>252</ele>
        <time>2019-03-25T12:38:14Z</time>
      </trkpt>
      <trkpt lat="43.77067" lon="5.34595">
        <ele>250</ele>
        <time>2019-03-25T12:38:28Z</time>
      </trkpt>
      <trkpt lat="43.7706" lon="5.34606">
        <ele>249</ele>
        <time>2019-03-25T12:38:38Z</time>
      </trkpt>
      <trkpt lat="43.77053" lon="5.34616">
        <ele>248</ele>
        <time>2019-03-25T12:38:46Z</time>
      </trkpt>
      <trkpt lat="43.77048" lon="5.34627">
        <ele>245</ele>
        <time>2019-03-25T12:38:58Z</time>
      </trkpt>
      <trkpt lat="43.77044" lon="5.34641">
        <ele>244</ele>
        <time>2019-03-25T12:39:08Z</time>
      </trkpt>
      <trkpt lat="43.77044" lon="5.34654">
        <ele>243</ele>
        <time>2019-03-25T12:39:16Z</time>
      </trkpt>
      <trkpt lat="43.77038" lon="5.34642">
        <ele>242</ele>
        <time>2019-03-25T12:39:30Z</time>
      </trkpt>
      <trkpt lat="43.77028" lon="5.34639">
        <ele>241</ele>
        <time>2019-03-25T12:39:40Z</time>
      </trkpt>
      <trkpt lat="43.77018" lon="5.3464">
        <ele>239</ele>
        <time>2019-03-25T12:39:56Z</time>
      </trkpt>
      <trkpt lat="43.77007" lon="5.34639">
        <ele>238</ele>
        <time>2019-03-25T12:40:04Z</time>
      </trkpt>
      <trkpt lat="43.76999" lon="5.3463">
        <ele>237</ele>
        <time>2019-03-25T12:40:10Z</time>
      </trkpt>
      <trkpt lat="43.76993" lon="5.34619">
        <ele>237</ele>
        <time>2019-03-25T12:40:18Z</time>
      </trkpt>
      <trkpt lat="43.76983" lon="5.34619">
        <ele>235</ele>
        <time>2019-03-25T12:40:32Z</time>
      </trkpt>
      <trkpt lat="43.76976" lon="5.34628">
        <ele>233</ele>
        <time>2019-03-25T12:40:42Z</time>
      </trkpt>
      <trkpt lat="43.7697" lon="5.34641">
        <ele>230</ele>
        <time>2019-03-25T12:40:50Z</time>
      </trkpt>
      <trkpt lat="43.76965" lon="5.34655">
        <ele>229</ele>
        <time>2019-03-25T12:40:58Z</time>
      </trkpt>
      <trkpt lat="43.7696" lon="5.34667">
        <ele>227</ele>
        <time>2019-03-25T12:41:06Z</time>
      </trkpt>
      <trkpt lat="43.76951" lon="5.34676">
        <ele>226</ele>
        <time>2019-03-25T12:41:14Z</time>
      </trkpt>
      <trkpt lat="43.76945" lon="5.34686">
        <ele>222</ele>
        <time>2019-03-25T12:41:24Z</time>
      </trkpt>
      <trkpt lat="43.76936" lon="5.34694">
        <ele>219</ele>
        <time>2019-03-25T12:41:34Z</time>
      </trkpt>
      <trkpt lat="43.76929" lon="5.34705">
        <ele>218</ele>
        <time>2019-03-25T12:41:44Z</time>
      </trkpt>
      <trkpt lat="43.76929" lon="5.34705">
        <ele>218</ele>
        <time>2019-03-25T12:41:45Z</time>
      </trkpt>
    </trkseg>
  </trk>
</gpx>